GFSSE_sfc_dewp_000.txt.gz
Dewpoint
71 70 74 74 75 75 75 75 76 77 77 78 77 77 77 77 76 76 76 76 76 75 75 75 74 74 74 74 74 74 73 73 72 73 73 73 72 72 71 71 71 64 72
71 70 74 75 74 75 75 75 76 77 77 77 77 76 76 76 76 76 76 76 75 75 75 75 74 74 74 73 72 73 72 72 72 73 72 71 72 72 72 70 70 69 71
68 70 70 75 74 75 74 75 76 77 76 77 76 75 74 75 76 76 76 75 75 75 75 74 74 74 73 73 73 72 72 72 71 72 71 65 66 70 72 71 71 71 72
66 67 68 75 75 74 74 75 75 75 75 75 75 74 74 75 75 76 75 75 75 75 74 74 74 74 73 73 73 72 72 72 71 70 68 64 63 73 72 72 72 72 72
68 67 71 74 74 74 74 75 76 76 75 76 75 74 74 74 75 75 75 74 74 74 74 73 73 73 73 74 74 73 72 71 71 70 70 68 67 72 72 72 73 72 70
68 69 72 73 74 74 75 75 75 76 76 76 75 74 74 75 74 74 74 74 74 74 74 73 73 73 73 74 74 74 73 72 72 70 70 69 68 73 72 71 71 72 72
67 69 69 76 75 75 75 75 76 75 75 76 75 75 75 74 74 74 74 74 73 72 73 72 73 73 73 74 74 73 74 72 70 70 71 70 70 72 71 72 70 70 72
67 69 71 75 76 76 76 76 77 76 76 76 75 75 74 74 74 74 73 73 72 72 72 72 73 73 73 74 74 73 73 73 69 71 70 70 74 74 72 72 71 71 72
67 69 70 71 75 76 76 76 76 76 75 75 75 75 74 74 73 74 73 72 72 73 74 74 73 72 73 73 73 73 72 72 71 70 68 71 74 74 74 73 72 72 72
68 69 72 73 73 73 73 76 76 75 74 74 75 75 74 74 73 73 74 73 73 73 73 74 73 73 73 73 73 73 72 73 68 68 70 70 73 74 74 74 72 71 72
68 69 70 71 74 75 72 73 75 74 74 74 74 75 73 69 70 69 73 73 73 72 72 73 73 73 72 72 72 72 73 66 67 66 68 73 72 72 73 74 73 72 72
68 68 68 70 72 72 69 74 74 70 69 69 69 71 69 71 72 70 72 73 73 72 72 73 72 72 72 65 66 69 64 67 67 68 67 73 72 72 73 73 73 74 72
67 68 70 70 73 72 72 70 70 69 69 70 73 72 70 70 71 70 70 69 69 71 68 70 69 67 69 68 66 65 66 66 64 67 70 72 72 72 72 73 73 73 72
67 67 68 70 72 72 77 70 70 68 69 68 69 73 72 70 70 72 70 72 72 69 70 71 68 70 70 69 67 67 65 65 63 64 68 73 72 73 73 73 73 73 72
66 67 68 70 73 74 74 70 69 70 68 67 68 71 70 68 75 72 73 72 71 71 70 70 70 69 70 68 67 66 63 64 65 64 64 72 71 72 73 73 72 73 72
66 67 69 70 73 74 73 74 72 70 69 69 67 68 73 70 76 70 70 69 70 70 70 70 70 70 69 67 65 65 64 62 64 66 63 66 71 71 72 73 73 73 73
66 68 69 71 72 74 75 74 72 70 69 68 68 72 72 74 74 73 70 69 69 73 73 71 71 69 66 65 64 62 63 64 63 65 64 62 66 73 72 72 74 75 73
67 69 70 68 70 73 74 73 71 69 69 69 68 70 74 74 74 73 71 69 70 70 69 68 68 66 64 63 62 63 63 63 64 64 64 64 62 61 71 72 72 75 75
69 70 71 71 70 72 74 72 72 73 74 76 74 71 72 73 73 72 70 69 72 70 73 69 66 67 63 61 60 60 63 62 63 60 65 67 66 64 61 73 71 72 72
69 71 72 71 73 74 77 77 73 73 71 70 70 74 74 75 73 74 72 71 71 73 68 68 69 65 65 62 59 59 63 64 64 62 61 59 62 65 65 70 68 68 71
69 71 73 73 74 74 74 69 69 68 69 71 69 74 74 73 74 73 70 72 72 70 69 69 66 65 60 64 60 59 61 63 62 62 59 54 57 58 63 66 67 67 70
69 71 73 74 75 75 71 73 71 73 68 70 70 73 73 73 74 73 73 71 72 66 70 67 67 61 61 63 60 59 54 59 61 59 58 52 54 53 57 62 65 68 67
68 71 73 75 75 76 75 73 73 74 74 70 71 72 74 74 75 75 74 71 71 67 60 67 66 65 58 65 66 60 54 52 55 58 60 54 55 52 55 58 61 62 63
67 70 73 75 76 76 77 74 76 70 67 66 68 67 71 74 74 74 74 72 69 63 67 65 65 64 65 60 61 63 65 63 54 53 55 54 56 53 56 53 55 58 60
66 68 71 75 77 77 77 77 73 74 68 67 67 72 74 74 74 71 74 70 68 64 68 68 67 67 63 61 59 60 63 59 62 54 49 52 54 55 55 55 54 54 57
65 67 69 74 77 77 76 76 76 74 73 67 70 68 66 66 70 72 73 70 68 65 67 66 67 66 65 64 61 62 57 55 54 53 51 53 53 54 55 54 55 52 53

GFSSE_sfc_dewp_003.txt.gz
Dewpoint
70 69 74 74 75 76 76 76 77 77 78 78 78 78 78 77 77 77 77 76 75 76 74 74 74 73 73 74 74 73 73 72 73 72 73 72 73 72 71 70 69 65 72
69 69 74 74 75 76 76 76 76 77 78 78 77 77 77 77 77 77 77 75 75 75 75 75 74 74 74 73 73 72 72 72 72 72 72 72 72 72 70 70 71 69 72
66 68 70 75 75 76 77 77 76 76 76 77 76 76 76 76 78 77 75 75 75 75 74 74 74 74 74 73 72 72 72 72 70 70 71 71 67 71 70 71 72 72 72
64 65 68 76 75 75 76 76 76 75 75 76 76 75 76 76 76 75 75 75 74 74 74 74 73 74 74 74 73 72 71 71 70 71 71 68 66 72 72 73 71 72 72
66 68 71 75 75 75 76 76 76 76 75 75 75 74 74 75 75 74 74 74 74 74 74 73 73 73 73 74 74 72 71 70 70 71 69 69 71 72 73 72 71 72 71
67 68 73 75 75 75 76 77 76 76 76 75 74 74 74 75 74 74 74 74 74 74 73 73 73 73 73 74 73 73 72 72 72 72 70 67 70 73 72 71 73 73 72
67 67 70 76 76 75 76 76 76 75 75 75 75 74 74 74 74 74 74 73 73 73 72 73 73 73 73 73 74 73 73 72 72 71 69 72 70 73 71 73 71 72 73
67 67 70 75 75 76 76 76 76 75 75 76 75 75 74 74 73 74 73 72 72 72 72 73 72 72 73 73 73 73 73 73 70 71 70 70 74 73 73 74 71 71 73
67 68 70 71 75 76 76 76 76 76 75 75 75 75 74 73 73 73 72 71 72 72 73 73 72 72 73 73 73 73 73 73 72 69 69 71 75 74 74 73 73 72 72
67 68 70 71 71 73 73 76 76 75 74 74 75 74 74 73 73 72 72 72 72 72 72 72 72 72 72 72 72 72 73 73 70 70 71 70 74 74 74 73 72 73 73
68 69 69 68 71 74 74 75 76 74 73 74 74 74 73 70 71 71 74 72 72 72 72 72 72 73 72 73 72 71 73 64 65 68 70 74 72 73 74 74 72 72 73
67 66 67 70 71 71 67 74 72 69 68 69 68 70 69 70 73 69 72 74 72 73 72 73 73 73 73 69 65 70 63 66 65 65 70 74 72 72 72 74 74 73 73
64 64 69 73 73 72 74 69 69 68 68 68 71 71 69 69 72 71 74 71 72 72 73 72 71 70 68 67 65 64 64 64 62 63 72 73 71 72 72 72 73 74 73
65 65 67 71 73 72 72 69 67 66 66 66 68 73 72 69 73 70 72 73 72 72 70 71 70 69 69 69 67 66 63 61 60 61 68 73 72 72 73 73 73 73 72
64 65 67 69 72 72 74 68 67 67 65 66 67 70 69 67 74 74 71 69 70 72 72 69 69 68 69 69 66 65 63 61 60 59 61 73 72 72 73 74 73 73 73
64 65 66 69 73 74 74 74 71 69 70 66 66 67 72 70 76 70 75 73 73 72 73 67 70 69 70 68 64 64 63 62 63 63 60 66 73 72 72 73 73 73 74
64 66 67 69 71 73 74 74 71 68 67 68 66 70 70 72 72 74 73 70 69 72 72 72 73 72 67 60 62 61 61 62 61 64 62 59 67 74 72 72 74 74 74
65 67 68 66 68 72 74 74 71 69 73 69 70 72 72 73 74 74 70 69 73 70 73 69 72 67 61 60 60 60 61 61 63 63 62 62 60 59 72 74 72 75 73
66 68 69 70 69 71 76 73 72 74 72 73 71 71 75 73 74 73 70 72 74 71 70 68 68 67 60 60 59 58 61 61 61 59 61 62 65 63 60 74 73 72 73
65 68 70 70 73 73 78 78 74 69 71 71 71 70 73 72 74 73 70 72 71 74 68 72 69 63 63 62 57 56 61 62 61 59 58 56 61 62 64 67 69 69 73
65 68 71 73 76 73 71 73 71 69 70 69 68 74 75 74 74 74 71 73 71 71 72 68 65 65 60 62 59 58 60 61 61 60 55 54 55 56 61 64 66 69 72
66 69 73 74 77 76 72 74 72 72 68 66 67 72 73 75 74 73 75 70 71 69 70 68 67 62 59 62 59 57 56 60 61 61 57 53 54 53 57 62 65 68 69
66 70 73 77 78 77 77 74 75 74 71 71 68 70 72 73 73 74 73 73 73 69 58 67 65 64 58 63 66 60 54 59 59 63 61 55 56 53 55 58 60 61 63
65 69 74 77 78 78 78 74 76 70 67 64 66 66 70 74 73 73 74 72 72 65 69 65 63 65 65 60 59 61 63 63 56 56 62 57 55 53 56 54 53 58 58
64 66 71 77 79 79 78 77 72 73 66 65 63 74 73 76 72 70 71 72 70 63 67 67 65 67 65 61 58 57 63 57 60 54 50 54 54 54 55 54 53 52 55
63 65 69 77 79 79 78 77 77 77 73 66 67 68 67 66 69 71 69 72 70 65 66 65 67 67 66 65 62 62 58 54 54 53 51 54 52 54 54 55 55 55 53

GFSSE_sfc_dewp_006.txt.gz
Dewpoint
71 70 74 74 74 75 77 77 77 78 78 78 78 78 78 78 78 77 77 77 77 76 76 75 74 73 73 73 73 73 73 73 72 72 72 72 72 72 71 69 69 68 72
69 70 75 75 75 76 77 77 78 78 78 78 78 78 78 78 78 77 77 77 77 76 76 75 74 74 73 73 73 73 72 71 72 72 71 72 71 71 71 71 73 71 72
67 69 72 76 76 76 77 77 77 77 77 77 77 78 78 78 77 77 77 77 76 76 75 74 74 74 73 73 72 72 72 71 70 69 69 71 69 71 72 71 72 73 72
66 67 69 76 77 77 77 77 77 76 77 77 77 77 77 77 77 76 75 75 75 75 74 74 74 74 74 73 72 71 71 70 71 70 71 68 65 72 73 71 72 72 72
66 68 71 76 76 77 77 77 77 76 76 77 77 76 77 77 76 76 75 74 74 74 74 74 73 73 73 74 73 72 70 70 71 72 71 71 69 71 73 72 72 72 73
67 69 74 76 76 77 77 77 77 77 76 76 76 76 77 76 75 74 74 73 73 73 73 74 73 73 73 74 73 73 72 71 72 73 72 72 69 73 73 73 73 72 72
68 69 71 76 77 77 77 77 76 76 76 76 76 76 76 75 74 74 73 73 73 73 73 73 73 73 73 73 73 73 73 73 72 73 72 72 72 74 73 72 73 72 73
65 68 71 76 76 76 77 77 77 76 76 76 76 75 75 74 74 74 72 72 72 73 73 73 72 73 73 72 72 73 73 73 72 71 72 71 74 74 74 71 72 73 73
67 69 71 72 75 76 77 77 77 76 76 75 75 75 74 73 73 74 73 71 72 73 73 73 72 71 72 72 73 73 73 74 73 72 72 73 75 74 74 72 71 72 73
66 68 71 72 72 74 74 77 75 75 75 75 75 74 74 73 74 74 74 74 72 71 72 72 71 71 71 72 73 72 73 73 71 73 73 72 75 74 73 73 73 73 72
67 69 69 69 73 75 74 74 76 75 74 74 74 75 75 72 72 72 75 75 73 73 72 73 72 72 72 73 74 74 74 69 68 71 72 74 75 74 74 73 72 73 73
65 68 70 69 72 72 69 75 75 72 70 72 71 74 72 73 75 73 74 73 74 74 72 73 73 73 74 71 71 73 67 68 69 71 71 74 74 73 72 70 73 72 73
66 65 67 71 73 72 73 73 71 71 71 71 75 74 75 73 73 73 74 72 75 73 74 72 72 72 71 69 69 67 67 66 65 69 71 74 72 72 73 73 73 73 73
65 69 71 72 74 75 75 73 72 70 71 70 72 76 77 75 75 73 73 73 73 73 73 73 72 71 70 71 67 67 66 63 62 64 73 74 73 72 73 73 72 73 73
62 68 70 73 76 77 77 73 71 72 69 69 73 75 73 75 75 73 76 75 76 74 73 74 72 72 73 72 68 67 65 66 65 64 70 75 73 71 73 73 73 70 72
64 65 69 73 75 75 76 79 77 76 71 73 70 74 76 77 77 71 76 73 74 73 75 73 74 74 72 70 70 66 66 66 66 67 65 73 74 73 72 73 74 73 73
64 67 69 71 73 74 77 77 77 74 69 72 72 74 76 77 78 78 77 76 75 74 75 74 74 71 68 66 67 66 66 66 66 66 66 65 72 75 74 73 73 75 74
65 69 70 65 71 73 75 76 74 72 74 75 76 71 75 77 77 78 76 73 72 75 75 73 73 72 68 66 66 67 67 66 65 66 66 64 67 67 74 74 74 74 74
67 71 71 71 71 74 75 75 75 74 75 75 75 76 75 74 76 76 75 74 75 73 74 72 69 71 67 67 63 64 66 66 65 61 64 65 67 68 69 74 74 74 73
67 71 72 71 75 75 76 77 76 75 73 75 75 75 74 76 76 77 75 75 76 76 73 74 71 70 68 67 62 60 66 66 66 64 63 61 64 65 66 70 72 72 73
67 70 72 73 76 76 75 73 73 72 75 73 73 74 75 77 77 77 75 75 73 76 70 71 70 68 68 68 66 64 66 65 65 65 61 60 61 62 65 68 69 73 72
66 69 73 73 76 76 75 75 74 73 71 72 73 75 76 75 77 75 76 75 73 73 73 71 70 68 67 69 65 65 63 65 63 63 62 58 59 60 62 64 68 69 71
66 70 72 75 75 76 76 75 77 77 75 73 74 74 75 76 77 74 75 76 76 73 70 72 70 68 66 70 67 66 63 63 65 65 64 60 62 61 62 64 63 64 64
65 69 73 75 76 76 76 75 74 71 71 72 74 72 74 76 76 76 77 76 76 72 73 71 69 69 69 66 69 66 66 65 62 62 66 61 61 58 60 60 60 62 61
65 69 72 75 76 77 77 76 74 74 71 71 70 77 76 77 76 75 75 75 74 72 73 70 70 69 70 68 66 66 68 66 64 61 59 60 62 61 62 60 59 59 61
64 68 70 75 77 77 77 76 76 73 73 70 73 73 73 73 74 75 74 75 74 72 72 71 71 71 70 70 68 68 66 64 61 63 60 59 60 62 59 61 62 62 60

GFSSE_sfc_dewp_009.txt.gz
Dewpoint
71 71 74 73 74 76 75 78 78 78 78 78 78 78 78 77 77 77 77 77 76 76 75 74 74 74 74 73 73 73 73 73 73 72 73 72 71 71 71 71 72 69 72
70 71 74 74 75 76 77 78 78 78 78 78 78 78 78 77 77 77 77 76 76 76 74 74 74 73 73 73 73 72 72 73 73 72 72 72 71 71 71 71 72 70 71
70 72 73 76 76 77 77 78 78 78 78 78 78 78 78 77 77 77 76 76 76 76 74 74 74 74 73 72 72 71 72 72 71 71 71 70 69 72 72 72 73 73 72
70 71 72 76 77 77 77 78 77 77 76 78 78 78 78 77 77 76 75 75 75 75 74 74 73 74 73 72 71 71 71 70 70 70 71 69 68 72 72 73 72 72 71
68 70 73 77 77 77 77 77 77 77 77 77 77 78 77 77 76 75 75 74 74 74 74 74 73 73 74 73 72 72 72 72 71 71 70 69 68 71 72 73 72 72 72
69 72 76 77 77 77 77 77 77 77 77 77 77 78 77 76 75 75 74 74 74 74 74 74 74 73 73 73 73 73 73 73 74 71 71 70 69 72 72 72 72 73 72
69 72 74 77 77 77 77 77 77 76 76 77 77 77 77 76 76 74 74 73 73 73 74 74 72 73 72 72 73 73 74 72 71 73 72 71 71 74 73 73 72 72 73
69 71 73 76 77 77 76 76 77 76 76 77 77 77 77 76 76 76 74 74 73 73 73 73 72 72 72 72 72 73 73 73 68 67 69 72 74 74 72 72 72 72 72
69 70 73 73 75 76 77 77 76 77 77 77 77 77 76 76 76 75 74 74 73 72 73 72 72 72 72 72 73 74 73 71 67 69 67 72 74 74 72 70 73 72 72
69 71 71 73 74 74 75 76 76 76 76 76 76 76 76 75 74 74 76 75 72 71 72 72 72 73 73 74 74 74 74 71 68 67 68 71 74 74 73 73 71 72 71
69 70 71 72 73 74 74 74 76 76 76 76 76 76 75 72 72 72 73 74 72 72 72 72 73 74 74 74 75 74 75 70 70 69 70 74 74 74 73 72 73 72 72
67 69 70 71 72 72 72 74 74 73 72 73 73 73 73 72 72 74 73 70 73 74 73 74 74 74 74 72 72 73 71 64 70 71 72 73 74 74 70 73 72 72 72
67 68 69 71 72 72 70 73 74 72 71 71 71 72 71 74 71 72 71 66 71 73 73 72 73 72 70 67 67 65 64 62 69 71 71 74 73 74 72 71 72 72 73
66 67 68 71 70 73 72 73 72 70 70 70 72 71 72 72 72 72 69 71 72 72 73 71 72 72 68 68 66 65 63 61 62 70 72 74 74 74 74 73 68 72 73
65 67 68 70 72 72 72 71 70 70 70 70 71 71 70 72 71 71 71 71 72 72 72 70 72 70 69 69 66 63 61 61 61 64 71 74 73 73 74 74 73 69 73
67 69 70 72 73 72 73 73 72 70 69 70 72 72 72 73 72 71 71 69 71 71 73 71 70 69 68 67 68 62 61 63 63 63 67 72 74 73 73 74 74 71 70
66 69 70 72 73 72 73 72 72 72 69 68 70 73 72 72 71 72 72 71 72 71 72 70 70 67 65 66 63 62 63 62 62 61 62 64 72 74 72 74 74 73 72
64 69 71 71 71 72 73 73 73 70 71 70 72 72 73 73 73 72 72 71 71 72 71 70 70 68 67 65 61 63 62 63 61 61 64 61 69 69 73 73 74 74 74
66 69 70 70 70 71 72 73 72 70 72 70 71 72 74 74 74 72 72 71 70 71 70 68 67 68 62 61 60 61 62 61 61 58 60 63 63 67 70 72 73 73 72
67 68 67 70 71 71 72 73 73 72 73 73 73 70 72 72 72 72 72 71 71 71 69 68 67 65 63 63 62 58 61 60 62 59 60 59 60 67 69 70 70 71 73
68 68 68 69 72 72 72 72 72 72 72 71 71 73 72 73 74 72 72 72 71 71 69 68 65 62 63 65 59 61 63 61 61 60 56 55 58 62 64 68 69 70 72
66 68 69 68 73 72 73 72 71 71 71 71 71 72 72 74 73 72 72 72 71 71 68 65 64 62 64 63 58 61 60 62 61 59 55 55 57 59 59 64 64 69 70
65 69 69 69 72 73 73 72 74 73 72 71 71 73 73 73 74 72 73 72 70 68 68 65 64 63 60 65 61 60 59 58 61 62 57 56 55 56 58 61 61 60 67
65 67 70 70 72 72 73 72 71 70 68 70 71 70 72 74 74 72 72 73 71 68 67 65 65 63 64 61 65 62 61 59 58 58 61 57 56 54 54 55 59 58 59
63 67 71 71 71 72 72 72 71 70 69 70 71 69 73 74 73 73 73 73 69 65 67 67 64 62 65 63 63 63 63 61 58 57 57 57 59 57 56 53 54 56 56
64 67 70 72 72 73 72 73 72 71 70 68 69 72 72 72 72 73 72 71 69 68 66 65 65 64 65 64 63 63 61 60 58 59 55 56 56 58 58 57 55 54 58

GFSSE_sfc_dewp_012.txt.gz
Dewpoint
70 71 73 73 74 76 77 77 77 78 78 78 78 77 76 76 76 76 76 75 75 74 74 74 74 73 73 73 73 73 73 73 72 72 71 71 71 72 72 72 72 69 71
70 71 73 74 74 77 77 77 77 78 78 77 77 77 76 76 76 76 76 75 75 74 74 74 73 73 73 73 73 72 73 72 72 72 71 71 71 71 71 72 71 69 71
70 71 73 75 76 77 78 77 77 77 77 78 77 76 76 75 76 75 75 75 75 74 74 74 73 73 72 72 72 72 71 71 71 72 71 70 70 72 73 72 72 71 72
70 72 73 76 76 77 77 77 77 77 76 78 77 76 76 75 76 75 75 75 74 74 74 73 73 74 73 72 72 71 71 71 70 70 71 69 67 72 73 73 72 71 72
71 72 73 76 77 77 77 77 77 77 76 77 76 75 75 75 75 74 74 74 74 74 74 73 73 73 73 72 72 72 72 71 72 72 69 68 69 71 73 72 72 72 72
70 72 75 76 76 76 77 77 76 76 76 77 76 75 75 75 74 74 74 74 74 74 73 73 73 72 72 73 73 73 73 74 72 67 71 71 69 72 72 72 72 72 73
71 72 74 76 77 77 77 76 76 75 75 76 77 75 74 75 74 74 73 73 73 73 73 72 72 72 72 72 72 73 74 75 70 70 71 71 71 74 73 73 72 72 71
71 72 73 76 76 77 76 75 76 75 75 76 76 76 75 75 75 74 73 73 73 73 73 72 72 73 73 73 72 74 73 73 69 70 71 72 74 74 73 73 72 73 72
72 73 73 73 73 75 77 75 75 75 75 75 75 76 76 75 74 73 73 72 72 72 73 72 72 73 73 73 72 73 73 71 67 68 70 72 75 73 72 72 73 73 72
71 73 73 73 73 74 74 75 76 76 75 75 75 75 75 74 74 73 75 74 71 71 72 72 72 73 73 73 74 72 73 71 68 66 71 71 75 73 71 73 73 73 73
70 72 73 73 74 74 74 74 76 76 76 75 75 75 76 73 72 73 73 73 72 72 71 72 72 73 74 74 75 74 73 71 69 67 67 71 75 74 73 72 72 73 72
69 70 72 73 73 74 74 73 74 73 74 74 74 73 73 72 72 74 73 68 70 73 72 73 74 73 73 72 70 69 65 69 70 68 70 73 74 73 72 74 73 73 73
69 70 71 72 73 73 72 74 73 73 72 73 73 72 72 73 70 71 70 67 68 72 71 71 71 72 71 67 66 64 62 69 71 72 71 73 74 74 70 73 72 73 73
69 70 70 71 72 72 71 73 73 72 71 71 71 71 71 72 69 70 67 71 70 72 69 72 71 71 70 68 64 63 61 64 70 70 71 73 74 74 73 73 73 73 73
68 69 69 71 71 71 71 72 72 71 70 70 70 71 72 71 70 69 70 71 70 71 71 71 72 70 69 68 67 64 60 62 64 69 70 74 73 75 74 72 70 71 73
67 67 69 71 70 71 71 71 71 70 70 70 70 72 71 71 70 70 69 70 71 71 71 71 70 68 66 66 65 67 61 63 62 64 69 71 73 74 75 73 73 69 72
65 67 68 70 71 71 70 71 71 71 70 69 70 71 72 72 70 71 71 70 71 71 72 69 68 67 65 66 61 61 61 62 62 62 64 69 71 73 74 74 74 71 70
66 67 68 69 71 71 71 73 72 71 69 68 70 72 72 71 71 72 71 71 71 70 70 70 69 67 66 62 60 61 61 62 61 61 63 66 69 69 73 74 75 74 72
67 69 69 69 71 71 72 72 72 70 71 70 71 71 72 73 73 72 71 71 69 71 69 68 67 67 61 60 61 60 61 60 60 60 61 63 64 68 70 72 72 73 72
67 69 70 70 70 71 72 72 72 70 70 72 71 71 73 73 73 71 71 70 70 70 68 67 66 64 62 62 62 58 61 60 60 59 58 60 67 68 69 70 70 70 73
67 69 69 69 69 70 71 71 71 70 71 71 71 70 71 71 72 71 71 71 71 70 68 67 65 61 61 64 58 61 62 61 59 58 55 60 62 66 67 67 69 71 72
67 68 69 69 69 69 70 70 71 71 71 71 71 71 71 71 72 72 71 71 71 70 68 65 63 61 62 62 58 60 58 61 60 55 55 58 58 62 64 66 68 69 69
66 67 67 70 70 70 70 71 71 71 71 71 71 71 72 72 72 72 72 71 70 69 67 64 63 62 59 63 61 60 58 57 60 60 55 55 55 58 60 61 62 65 69
65 67 67 69 71 71 72 71 70 69 69 69 70 71 72 72 72 72 72 71 69 68 66 64 64 62 61 59 64 62 60 60 58 58 60 56 55 53 54 56 59 60 68
63 66 67 67 72 72 72 71 70 69 69 69 70 70 71 73 73 72 71 71 68 67 66 64 64 62 64 60 62 62 61 61 56 57 56 56 58 55 55 53 58 58 61
62 65 67 67 68 72 72 71 71 69 69 68 69 69 71 73 72 72 72 72 68 65 66 65 63 61 65 64 62 62 60 57 57 57 55 55 55 56 57 56 55 54 58

GFSSE_sfc_dewp_015.txt.gz
Dewpoint
70 71 72 72 73 74 76 77 77 77 77 77 77 76 76 75 75 75 75 75 74 74 74 74 74 73 73 73 73 73 73 72 72 71 70 72 72 72 72 73 71 69 72
70 71 73 73 75 76 76 77 77 76 77 76 76 76 75 75 75 75 75 74 74 74 74 73 74 73 73 73 72 73 72 72 72 71 70 71 72 72 72 71 70 69 71
70 71 72 74 75 76 76 76 76 75 76 76 75 75 75 75 75 75 75 74 74 74 74 74 73 72 72 72 72 72 72 71 72 71 71 70 70 72 72 71 71 72 72
70 72 72 75 76 76 76 76 76 76 76 76 75 75 75 75 75 75 74 74 74 74 73 73 74 73 73 72 72 72 71 72 71 70 70 69 69 72 72 72 72 71 72
70 71 73 75 76 76 76 76 77 77 76 75 75 75 75 75 74 74 74 74 74 73 73 73 73 73 73 73 71 71 73 72 71 71 69 69 69 71 72 72 71 72 72
71 72 74 75 75 75 75 76 76 76 75 75 75 75 75 74 74 74 74 74 73 73 73 73 73 73 73 72 72 73 73 72 69 69 70 71 70 72 72 72 72 72 72
71 72 73 76 76 75 75 75 75 75 76 75 75 74 75 74 74 73 73 73 72 72 73 72 72 73 73 73 73 72 71 68 68 69 70 70 70 73 73 73 72 72 72
71 72 73 75 76 76 75 75 75 74 75 75 75 74 75 74 73 73 73 72 72 72 73 72 72 73 72 73 74 73 72 68 67 68 71 72 73 74 73 72 72 72 70
71 72 73 72 73 75 76 75 74 74 75 75 75 74 74 74 74 73 72 72 72 72 72 72 72 72 72 74 72 73 72 71 68 70 70 71 75 73 72 72 72 73 70
72 72 72 72 71 73 74 75 74 74 75 75 75 74 74 74 74 73 74 72 71 71 71 72 71 72 72 73 73 73 73 70 68 67 71 71 75 72 71 72 72 72 71
71 72 73 72 72 74 74 73 75 75 75 75 74 74 75 73 72 73 74 72 73 72 71 72 72 73 72 72 74 74 74 70 67 67 69 72 73 72 71 72 73 72 72
70 72 73 73 73 74 74 73 74 73 74 73 74 73 74 72 71 73 73 71 70 72 72 73 72 73 72 70 68 67 67 69 67 66 66 72 73 73 72 72 72 72 72
70 71 72 73 74 74 73 73 73 73 73 73 73 73 73 72 72 72 70 69 67 71 71 71 70 71 70 68 66 63 67 69 68 69 70 73 73 73 72 74 73 73 73
69 70 72 73 73 73 72 73 73 72 72 72 72 72 71 71 69 69 66 69 69 71 69 70 70 70 69 69 65 62 64 69 70 70 70 74 74 73 71 72 72 73 73
68 69 71 72 72 72 71 73 72 72 71 70 70 71 71 70 70 69 68 70 70 70 70 71 71 71 69 67 66 63 61 65 69 69 69 73 73 74 73 71 72 73 73
69 69 70 71 71 71 71 71 72 72 70 70 70 71 71 71 70 69 68 69 70 70 70 70 70 68 66 65 66 66 61 62 65 68 69 69 73 73 74 72 72 70 73
68 69 69 70 71 71 70 71 71 71 70 69 69 71 71 71 69 69 69 70 70 71 71 70 68 66 64 62 60 61 62 62 63 63 66 69 70 72 73 73 73 70 70
68 68 69 70 70 70 71 71 70 70 71 70 69 71 71 71 70 70 70 70 70 70 70 69 69 67 65 61 60 61 61 62 61 61 63 65 68 69 71 72 73 72 72
67 67 69 70 70 70 71 71 71 71 70 69 70 70 72 72 72 71 71 70 70 70 68 68 67 66 60 60 60 61 61 60 60 60 61 63 65 69 69 70 73 73 72
66 67 68 69 70 70 71 72 72 70 69 70 70 71 72 72 72 72 70 70 69 70 68 67 65 64 61 61 62 58 61 61 59 59 60 65 67 69 69 69 69 70 72
66 67 68 68 69 70 70 70 70 70 69 70 71 71 72 72 73 71 71 70 70 69 68 66 65 61 60 63 57 60 62 60 58 56 59 63 66 67 67 68 69 70 71
65 67 68 68 69 70 70 70 70 70 70 70 71 70 71 72 72 71 70 70 70 69 67 67 62 61 61 62 58 59 58 60 59 54 57 61 62 65 65 67 68 69 68
65 67 69 69 69 69 69 70 70 70 70 70 70 70 71 71 71 71 71 70 70 69 68 65 63 60 59 62 60 59 57 56 59 60 54 56 57 60 61 63 67 68 67
64 67 69 69 69 69 69 69 69 68 67 69 70 70 71 71 71 72 71 71 70 69 67 65 63 61 60 59 63 61 60 60 57 55 58 56 55 54 57 59 60 62 67
63 66 68 69 69 69 69 69 68 67 68 69 70 70 70 72 72 72 71 70 69 68 67 65 63 63 62 59 61 60 60 60 57 58 53 54 56 56 54 54 59 58 65
63 66 67 68 69 69 69 69 69 68 68 68 68 69 69 71 72 72 71 70 69 67 66 64 64 62 64 62 62 62 60 56 56 56 55 55 54 54 56 56 54 57 58

GFSSE_sfc_dewp_021.txt.gz
Dewpoint
71 73 74 74 74 74 74 75 75 76 76 77 76 76 75 75 74 74 74 74 74 74 74 73 73 72 72 72 72 72 72 71 71 71 72 72 72 72 71 72 72 69 73
70 71 74 74 74 75 75 75 75 76 76 76 76 75 74 75 75 74 74 74 74 74 74 73 72 72 72 72 72 72 72 71 70 70 72 72 72 72 71 71 70 71 73
69 69 71 74 75 76 76 76 76 75 75 76 75 75 74 75 75 74 74 74 74 73 73 73 72 72 72 72 72 71 72 72 71 71 71 69 69 71 70 70 71 72 72
67 68 69 75 76 76 77 77 76 75 75 75 75 75 75 75 75 74 74 73 73 73 73 73 72 71 71 71 71 71 71 72 72 70 68 68 67 72 71 72 72 72 72
67 68 70 75 77 76 76 76 76 76 75 75 75 75 75 74 74 74 74 74 74 74 74 73 72 71 70 70 70 70 72 72 72 69 69 70 68 71 72 72 72 72 70
67 67 73 76 75 76 76 76 75 75 75 75 75 74 74 74 74 74 73 74 74 74 73 72 72 72 70 70 69 70 73 73 72 69 69 71 71 72 71 72 72 72 72
66 69 71 76 76 76 76 76 75 75 75 75 75 74 74 74 74 73 74 73 74 73 72 72 72 72 72 72 72 72 72 71 70 70 69 70 69 73 72 72 72 72 72
67 69 71 75 76 76 76 75 75 75 75 74 74 74 74 74 73 73 73 73 73 73 72 72 71 71 72 73 73 72 69 69 69 70 69 70 72 72 72 72 72 73 73
68 69 71 70 74 75 76 75 75 75 75 74 74 74 74 73 72 72 73 72 72 72 72 71 71 71 71 72 73 73 70 69 70 70 68 70 72 72 72 72 71 71 72
69 69 71 70 70 72 72 74 74 74 75 74 74 74 74 73 72 72 72 72 72 72 71 71 70 70 70 71 71 72 72 72 68 70 69 69 73 72 72 71 71 70 71
68 69 70 69 71 73 73 72 74 74 74 74 73 74 73 74 74 72 73 72 72 72 71 71 71 71 71 72 72 71 72 68 65 68 68 71 73 71 71 72 72 71 70
67 68 69 70 70 72 70 73 74 72 70 72 71 73 73 74 74 72 73 72 70 72 72 71 72 71 70 65 64 66 61 69 67 67 67 71 70 71 71 72 72 73 71
66 67 69 71 72 72 71 71 72 71 72 72 75 74 73 74 73 73 73 72 70 69 70 70 70 71 71 67 65 62 65 69 66 65 66 70 71 69 70 72 72 71 72
66 67 68 70 72 72 71 71 70 71 71 71 72 75 74 72 73 74 72 70 71 70 71 72 70 72 72 70 66 64 66 61 63 65 68 70 71 70 69 70 72 72 71
67 67 69 71 72 73 73 71 71 72 71 71 72 73 72 71 73 73 72 71 72 72 71 72 72 74 70 68 68 65 65 66 67 65 67 70 70 70 69 70 71 72 72
68 68 69 70 72 73 73 74 72 72 72 72 71 71 74 71 72 72 72 70 72 72 72 72 73 70 68 68 68 68 64 62 67 67 65 67 70 70 69 70 70 72 72
68 69 70 71 72 73 73 73 72 70 71 70 70 73 73 73 74 74 73 70 71 74 75 75 71 70 65 63 65 65 64 65 63 66 66 66 67 70 70 70 71 71 71
69 70 70 70 71 72 73 73 71 71 70 70 70 70 72 73 75 74 72 70 72 74 76 76 75 72 67 63 64 66 65 64 64 65 65 66 67 65 69 71 70 71 70
69 70 70 71 71 72 73 72 72 72 71 70 70 70 72 73 74 74 72 72 74 72 75 75 73 70 66 64 62 64 64 63 63 61 65 67 68 67 67 70 72 71 70
69 70 71 70 72 73 72 73 71 70 70 69 70 70 74 73 74 74 73 73 74 72 72 71 72 69 66 65 60 62 63 63 63 65 65 65 68 69 68 70 69 68 71
69 70 71 71 73 72 70 69 69 68 69 70 71 73 74 74 75 75 72 74 74 72 72 72 70 68 64 67 63 63 63 62 61 64 65 63 64 64 67 68 69 69 69
68 70 72 72 74 73 71 71 70 70 69 71 71 73 74 74 75 74 74 74 74 71 73 72 71 66 64 66 62 62 58 60 60 59 64 63 64 60 61 66 69 70 69
67 70 72 74 74 74 73 72 72 72 73 72 71 72 73 74 75 75 75 74 74 73 71 72 71 69 63 65 65 61 57 55 60 61 62 63 65 61 61 64 65 68 68
68 69 72 73 74 73 75 73 74 69 69 69 71 71 72 74 74 75 75 75 75 72 73 72 71 69 67 62 65 65 66 65 57 57 59 60 61 59 63 62 61 63 66
67 67 70 73 74 74 75 75 72 72 69 69 70 74 76 75 74 74 75 75 75 73 74 74 72 70 66 63 62 63 65 64 66 60 57 56 58 58 59 61 60 60 64
66 66 68 72 74 74 74 75 75 74 73 70 71 70 70 71 71 74 74 75 75 74 74 73 73 71 69 66 65 64 60 59 59 60 59 60 56 58 58 58 60 59 61

GFSSE_sfc_dewp_024.txt.gz
Dewpoint
69 71 72 74 73 74 73 74 75 76 76 76 75 75 75 74 74 74 74 74 73 74 74 73 73 72 73 72 72 72 71 71 71 72 72 71 71 72 72 71 72 68 74
72 73 74 74 74 74 74 74 75 76 76 75 75 75 74 75 75 74 74 74 73 73 73 73 73 72 72 72 72 72 72 71 71 71 72 72 72 72 71 71 73 71 74
70 71 72 75 75 74 74 75 75 75 75 75 75 74 75 75 74 74 74 74 74 73 73 73 73 72 72 72 71 72 72 71 71 71 70 67 66 70 70 72 73 73 73
68 68 69 75 76 75 75 76 76 75 75 75 75 75 75 74 74 74 73 73 74 73 73 73 72 72 71 71 70 71 71 72 71 70 70 63 63 71 71 71 72 72 73
67 68 71 75 77 76 76 76 76 75 75 75 75 74 75 74 74 73 74 74 74 74 73 72 72 71 70 70 70 71 71 72 70 69 68 70 68 70 72 72 72 73 70
66 66 73 76 76 76 76 76 75 75 75 75 75 74 74 74 74 73 74 72 73 73 73 72 72 72 70 70 70 72 72 72 72 65 67 68 69 72 72 71 72 72 71
65 67 71 77 76 76 76 75 75 75 75 75 74 74 74 74 74 73 74 74 73 73 72 72 72 72 72 72 72 71 72 71 68 67 66 71 70 72 72 72 72 72 72
65 66 69 76 76 77 76 75 75 75 75 74 74 74 74 74 73 73 74 74 73 72 72 72 71 72 72 72 73 69 71 68 68 67 67 68 72 72 72 73 72 72 72
65 64 68 70 73 75 76 75 75 75 74 74 74 74 73 73 73 72 73 73 72 72 71 71 71 71 72 72 73 71 70 67 70 71 65 67 72 72 73 72 72 72 72
65 64 66 68 68 72 72 75 75 75 74 74 74 74 73 72 72 72 72 73 71 71 71 70 70 70 70 71 71 72 72 71 67 69 65 69 72 72 71 72 70 73 71
65 64 64 64 68 71 71 72 74 74 74 74 73 73 73 70 71 71 73 72 71 71 70 70 70 70 71 72 71 71 73 63 63 64 66 73 73 72 71 72 71 71 69
64 64 63 64 66 68 65 71 71 68 67 68 67 71 70 71 73 71 72 72 70 71 71 71 70 71 72 60 61 69 57 63 64 64 65 71 70 70 71 71 72 71 70
64 64 64 66 68 68 67 68 67 67 67 69 72 71 71 72 72 70 69 69 68 71 69 69 69 66 71 64 63 59 59 61 60 60 68 71 70 70 70 72 72 72 71
64 65 65 67 69 68 67 67 66 65 66 66 68 72 72 70 71 72 69 70 70 67 69 68 68 67 69 70 64 61 60 57 58 58 68 71 71 70 70 71 72 71 71
63 65 65 68 71 70 71 66 65 66 65 66 68 70 69 70 74 73 72 70 71 69 68 71 69 67 70 68 67 62 57 60 60 58 62 70 70 68 68 70 72 72 71
64 65 66 68 71 71 71 72 69 68 67 67 66 66 72 71 73 71 71 70 70 70 70 70 71 71 67 66 65 62 60 59 61 62 60 66 70 69 68 71 70 72 72
64 65 66 69 70 72 72 72 71 68 67 66 65 69 71 72 74 76 71 70 70 74 71 71 70 69 65 62 65 62 60 60 59 61 62 62 66 70 69 70 71 71 72
66 68 69 67 69 71 72 72 69 67 67 65 64 66 71 73 75 75 74 70 71 73 71 69 69 67 66 64 62 62 60 59 61 61 59 62 63 63 69 70 70 71 71
68 69 70 71 70 71 73 71 71 71 68 65 65 65 72 73 74 74 74 70 73 71 71 69 70 68 65 63 60 61 61 59 59 58 62 63 63 63 63 70 69 70 70
67 70 71 70 72 73 72 73 70 67 67 66 66 66 71 72 74 74 72 72 71 71 72 73 72 68 65 59 55 59 60 60 59 60 60 58 63 63 64 67 68 68 69
67 69 71 71 73 72 70 69 68 65 66 66 66 70 73 74 75 76 72 72 71 71 73 72 70 69 63 63 59 59 60 61 60 59 58 56 58 60 63 64 65 69 67
67 69 71 72 74 74 71 71 68 67 65 66 67 71 73 74 76 75 78 74 72 73 74 72 73 66 65 61 60 60 56 57 57 58 60 58 58 55 57 62 65 67 66
66 69 71 73 73 74 73 71 70 69 68 67 68 69 72 74 75 76 75 75 76 72 76 74 72 70 63 62 65 60 55 54 56 58 61 59 62 57 59 61 61 64 65
65 68 71 73 74 74 75 72 74 68 67 67 69 68 70 74 74 74 75 75 76 71 73 75 71 71 71 62 61 61 65 64 56 55 58 59 59 58 60 58 59 61 62
65 66 69 73 76 76 75 75 71 72 68 68 67 74 76 75 75 73 75 75 75 75 74 75 73 74 69 65 58 61 63 60 63 57 57 57 59 58 58 59 58 58 62
64 66 68 74 77 76 76 75 76 76 73 69 71 68 69 70 71 74 74 74 75 75 74 74 75 74 72 69 60 62 59 57 57 57 55 59 56 57 58 58 59 58 58

GFSSE_sfc_dewp_027.txt.gz
Dewpoint
69 69 71 73 73 73 74 74 76 75 75 75 75 75 75 74 74 74 73 74 74 74 74 73 72 73 72 73 73 71 71 71 72 73 71 71 72 72 72 72 72 68 74
69 70 72 73 73 73 74 75 76 76 75 75 75 75 75 75 74 74 74 74 73 73 73 73 73 73 72 73 73 72 71 71 71 72 72 73 72 71 72 73 74 72 73
68 69 72 75 74 74 74 75 76 75 75 75 75 74 75 75 74 74 74 74 74 73 73 73 73 72 72 72 72 72 71 72 71 71 71 66 66 70 72 73 74 74 73
66 68 68 75 75 75 75 75 75 75 75 75 75 75 74 75 74 73 73 74 73 73 73 72 72 71 71 71 71 71 72 70 69 70 70 68 62 71 71 72 73 73 73
69 67 70 75 75 75 75 75 75 75 75 75 75 74 74 74 74 74 73 73 74 73 73 72 71 71 70 70 70 71 71 71 70 70 71 71 67 70 72 72 72 71 72
66 65 73 75 75 76 75 75 75 75 75 75 75 75 74 74 73 74 73 73 73 73 73 72 72 71 71 70 71 71 71 72 70 66 68 70 69 72 71 71 72 71 71
66 66 71 77 77 76 75 75 75 75 75 74 74 74 74 74 73 73 74 73 73 72 72 72 73 72 73 72 71 71 71 71 66 66 69 67 68 73 72 72 72 72 72
66 64 70 75 77 76 75 75 75 75 75 74 74 74 74 74 74 74 74 73 72 72 72 72 72 72 72 73 70 71 70 70 69 64 70 71 73 73 72 72 73 73 72
64 63 67 69 73 76 76 75 75 74 74 74 74 73 73 73 73 73 73 73 72 72 71 71 71 71 72 72 71 70 71 68 70 65 66 68 73 73 72 73 73 73 72
64 62 65 67 68 72 71 74 74 74 74 74 74 73 73 73 73 72 73 73 71 71 71 70 70 71 71 72 72 72 71 71 69 69 68 69 73 72 72 70 73 72 73
63 61 62 64 68 71 70 72 74 74 74 74 73 73 73 73 73 73 73 72 70 71 70 69 70 69 71 72 73 73 73 68 68 67 67 74 73 71 72 72 71 71 72
63 60 61 63 65 67 64 71 71 69 67 69 69 70 75 72 73 71 72 73 72 71 71 69 70 70 73 70 65 72 66 63 65 66 66 73 72 72 71 72 72 71 70
63 60 60 64 67 65 68 66 65 64 65 66 69 70 74 70 71 72 71 70 68 72 71 70 69 70 64 65 59 59 58 61 57 64 69 73 70 70 71 72 72 71 70
61 61 60 64 67 66 65 64 63 62 63 64 66 71 72 70 69 71 72 69 69 71 71 71 69 69 71 67 65 58 56 57 56 65 69 73 71 70 70 72 71 71 72
61 61 61 65 70 71 70 65 63 63 62 62 66 69 68 72 71 72 71 73 72 70 72 67 70 68 68 69 69 60 58 57 59 63 65 73 71 69 70 71 72 71 71
62 62 62 66 70 70 70 72 67 64 64 63 63 66 71 71 71 74 72 72 73 73 73 69 69 72 66 66 63 60 59 59 59 62 64 68 73 71 69 71 72 73 72
62 63 64 66 68 70 71 71 68 65 64 64 64 68 70 72 73 75 74 71 73 72 72 72 70 72 67 60 61 61 65 59 58 59 64 65 67 72 71 72 71 73 72
63 65 66 64 67 69 71 71 68 66 65 64 63 65 70 72 74 74 72 70 74 71 69 71 72 62 64 60 59 59 57 58 59 58 58 63 67 64 70 71 71 72 71
64 66 67 68 67 70 74 71 70 72 67 64 63 63 72 73 73 74 70 74 73 73 68 68 68 66 61 58 57 57 59 57 64 58 59 61 62 67 66 72 72 71 71
64 67 69 68 73 75 72 74 69 67 66 65 64 63 74 72 73 74 73 72 71 72 71 69 72 66 62 57 53 57 58 57 59 59 59 57 60 62 66 68 68 68 70
65 68 71 72 76 73 70 69 68 66 66 65 65 69 71 71 74 75 72 73 71 74 71 71 69 68 60 62 58 58 59 59 59 57 56 55 57 58 60 64 69 67 68
64 68 73 74 76 75 71 72 69 69 64 65 65 71 71 72 74 76 76 72 72 72 72 72 71 70 60 60 62 58 59 57 55 55 56 56 57 55 57 61 65 69 70
64 69 73 75 76 76 76 73 73 70 69 65 66 66 70 73 73 75 74 73 73 74 75 73 71 71 67 59 66 61 56 62 57 59 60 58 60 56 58 60 61 63 64
64 67 73 75 76 76 77 73 74 67 65 64 66 66 69 74 73 73 75 73 77 71 77 75 71 72 71 62 59 60 66 66 64 62 61 58 60 58 60 58 59 61 62
62 64 70 76 77 77 77 76 71 71 65 65 65 73 74 77 74 72 75 76 76 73 76 74 74 74 69 67 59 59 63 57 62 62 58 64 60 57 59 59 58 59 62
61 63 68 75 77 77 77 77 77 74 71 66 68 67 67 67 72 76 74 77 77 76 75 74 75 74 73 70 63 62 60 59 58 58 56 61 58 62 57 57 59 57 59

GFSSE_sfc_dewp_030.txt.gz
Dewpoint
69 70 74 73 75 76 76 77 76 77 76 76 76 76 76 76 76 75 75 75 75 75 74 73 74 73 73 73 72 72 71 72 73 72 71 72 73 73 73 71 73 71 75
69 70 73 74 74 75 76 77 77 76 76 77 76 76 76 76 76 75 75 74 75 75 73 73 73 73 73 73 73 72 71 71 72 72 73 72 71 73 73 73 73 73 74
68 69 72 75 75 75 76 77 76 76 77 76 75 76 75 75 74 75 75 75 75 74 73 73 73 73 72 72 72 72 71 71 71 71 71 69 68 73 72 74 74 74 74
66 66 68 75 75 75 76 77 76 75 75 75 75 75 75 75 75 75 75 74 74 73 73 72 72 72 72 72 71 71 71 70 71 70 72 70 63 71 73 73 73 74 74
66 65 71 76 76 76 77 76 76 76 75 75 75 75 74 74 75 74 74 74 74 73 73 72 72 71 71 71 71 70 71 70 70 70 71 70 68 71 73 72 72 72 73
65 66 74 75 75 76 76 76 76 75 75 75 75 75 74 74 74 73 73 73 73 73 73 73 73 72 71 71 71 70 70 71 71 70 70 70 70 72 72 72 72 71 72
65 69 70 76 76 77 76 76 76 75 75 75 75 75 74 74 74 74 74 73 73 73 73 73 73 73 73 72 71 70 71 71 71 70 68 70 72 74 73 73 73 73 71
66 66 71 76 76 76 76 76 75 75 74 75 75 74 74 74 75 74 74 73 73 73 73 73 72 72 73 71 72 71 71 71 70 70 70 71 74 74 73 73 73 73 73
64 66 71 72 74 76 76 76 75 75 74 74 74 74 74 73 73 73 74 74 73 72 72 71 71 71 71 72 71 72 70 70 70 71 69 72 75 73 73 73 73 72 72
61 66 70 71 70 72 72 75 74 74 74 73 73 73 73 73 72 72 75 75 72 72 71 70 70 70 71 73 72 71 71 72 71 71 69 72 75 73 71 73 73 73 73
62 64 65 66 71 73 73 73 74 74 73 73 73 73 73 76 73 73 74 74 72 71 70 69 69 70 73 73 75 74 72 72 68 68 69 74 74 73 72 72 72 73 73
62 61 63 66 68 70 66 73 74 71 71 72 71 65 68 74 75 73 72 75 72 70 71 71 72 73 71 71 69 75 71 69 69 67 70 75 74 72 72 72 72 70 73
61 60 63 67 70 68 70 71 70 70 70 71 72 66 70 74 74 73 72 71 73 70 70 71 71 70 70 70 67 67 66 67 66 66 71 74 74 73 72 72 72 71 70
62 61 62 66 70 69 70 67 68 67 69 69 71 74 75 73 73 74 73 74 71 72 73 73 72 73 72 71 67 68 59 62 66 67 71 74 73 72 72 72 73 72 71
63 61 63 67 71 74 73 68 66 70 67 70 72 74 73 72 76 75 75 70 71 72 72 72 73 73 73 68 69 67 61 63 66 66 69 74 74 73 72 72 72 72 72
64 61 65 68 71 75 75 77 73 73 69 70 69 71 75 75 76 77 76 71 74 72 72 72 70 70 70 69 71 66 62 63 65 68 67 72 74 73 73 72 73 72 72
61 63 66 68 70 73 75 76 75 73 66 68 70 75 74 76 77 74 75 75 76 77 75 75 73 71 69 66 66 66 63 65 63 64 65 66 71 73 73 74 74 74 72
62 65 67 64 68 71 73 75 73 70 70 71 71 72 74 76 78 78 74 73 73 75 74 73 73 70 70 66 66 64 66 63 63 64 66 67 68 67 72 74 73 74 72
65 68 69 68 69 71 74 73 72 73 73 72 73 71 75 76 77 78 76 75 76 73 75 72 73 73 67 65 64 64 66 64 61 60 63 67 68 67 68 74 74 73 71
66 69 70 68 72 72 73 75 71 71 72 72 73 72 75 76 76 78 76 77 75 72 75 74 74 71 70 66 57 63 64 64 66 65 63 64 69 68 67 70 72 71 73
66 69 70 71 75 73 72 71 71 69 71 71 73 75 76 76 77 79 78 73 76 75 75 74 73 72 68 67 66 66 66 64 63 64 61 61 63 64 66 69 70 69 70
66 70 71 72 75 74 73 73 72 72 71 71 72 75 75 75 77 77 77 76 76 75 76 76 75 73 68 67 68 64 62 64 62 61 64 60 63 62 62 69 69 71 71
66 70 72 73 75 74 75 74 75 75 75 70 71 73 73 75 76 77 77 77 76 76 75 76 75 74 71 67 70 69 62 61 64 64 63 64 63 64 64 65 68 70 71
65 69 73 74 75 75 76 74 74 70 68 70 70 71 72 74 76 76 77 77 78 77 75 75 76 75 74 68 67 66 70 69 65 61 65 65 65 61 65 65 65 64 67
64 68 72 75 75 76 75 76 73 71 70 69 70 74 74 75 75 75 76 77 78 77 76 76 77 76 76 71 68 67 68 68 68 65 63 65 65 66 65 64 64 65 66
64 67 71 75 75 76 76 75 76 73 72 69 70 70 72 73 74 76 77 77 78 76 77 77 77 77 76 75 72 71 67 66 65 65 63 63 63 65 65 65 63 66 66

GFSSE_sfc_dewp_033.txt.gz
Dewpoint
69 71 75 75 75 76 76 76 77 76 76 76 77 77 76 75 75 75 76 75 74 75 74 73 73 74 73 73 72 71 72 73 72 71 73 73 74 74 74 74 74 72 74
70 71 75 75 75 75 77 77 76 76 76 76 77 77 76 75 75 75 75 75 74 74 74 73 73 73 73 73 72 72 72 73 73 73 71 73 74 73 75 74 74 73 75
69 71 73 75 76 75 77 77 76 76 75 76 77 76 75 74 75 76 75 74 74 74 73 73 73 73 72 72 72 72 72 72 72 73 71 69 71 73 74 74 75 74 74
68 70 72 76 76 75 77 77 77 75 75 76 76 76 76 75 76 75 74 74 74 74 73 73 73 72 72 72 72 73 71 72 71 70 71 68 69 73 73 74 74 74 74
67 69 72 76 76 75 76 76 76 76 75 76 76 75 75 76 75 74 75 74 73 73 73 73 72 72 71 71 72 71 71 71 70 69 70 68 69 72 72 73 73 73 73
65 71 75 76 75 76 76 76 76 75 76 76 76 75 75 74 74 74 73 74 73 73 73 73 72 72 71 72 71 72 71 71 72 71 69 71 70 73 73 73 73 73 74
68 72 73 77 76 76 76 75 76 75 75 76 76 75 74 75 75 74 73 74 73 73 74 73 73 73 72 72 72 72 72 71 70 71 72 71 72 74 73 72 72 72 73
70 71 73 76 76 77 75 75 75 75 75 77 76 75 75 75 76 75 73 73 73 73 73 73 73 73 72 71 71 71 72 73 69 70 71 72 74 74 73 73 73 73 73
67 71 73 74 74 75 77 75 75 75 75 75 75 75 75 74 74 74 75 74 73 72 72 72 73 73 73 71 70 71 72 73 70 70 71 73 75 74 73 73 73 73 73
69 71 73 73 73 73 74 75 75 74 74 74 74 74 73 72 73 73 75 75 73 72 72 71 73 74 74 74 71 71 71 73 71 70 71 73 75 73 73 73 73 73 73
68 69 70 71 72 72 73 73 74 74 74 74 74 74 73 73 72 72 74 75 72 72 72 74 74 75 73 71 73 72 71 70 69 69 71 75 75 72 73 72 73 73 73
65 67 68 69 70 71 70 72 72 72 72 72 70 66 68 70 72 73 73 75 73 74 74 75 74 74 74 70 69 73 72 70 69 69 71 75 75 73 72 72 71 73 73
63 65 65 68 70 68 70 72 72 71 71 71 65 69 70 73 73 73 72 72 71 69 68 70 70 70 69 69 67 68 72 69 67 68 72 75 75 73 73 73 70 71 73
61 62 64 67 68 68 69 70 70 69 70 71 68 70 70 71 72 73 72 72 70 71 71 72 72 71 69 68 66 64 69 66 66 69 73 75 75 74 73 73 72 70 70
60 61 63 66 68 69 68 68 67 67 68 70 69 69 72 69 71 72 73 71 71 72 67 66 71 67 69 67 65 62 65 65 66 68 71 74 74 74 73 73 73 72 72
60 60 63 66 69 67 67 66 66 69 66 69 70 71 71 73 72 73 72 71 70 71 69 70 69 66 65 68 66 61 61 65 66 67 70 73 74 74 74 73 73 72 72
62 61 64 64 68 68 68 70 69 69 65 66 69 71 72 71 72 70 71 72 73 72 70 72 70 68 65 66 66 61 60 64 66 66 68 70 72 73 75 74 75 74 73
62 63 65 64 68 70 69 70 70 67 68 68 69 71 71 71 72 72 72 71 71 73 73 71 70 69 68 67 62 63 60 58 65 65 66 67 69 68 73 74 74 75 73
62 65 65 65 67 70 70 71 69 69 69 69 70 70 70 71 72 73 72 72 72 71 71 70 69 70 66 64 62 62 61 60 59 64 65 66 67 68 70 74 74 74 72
64 64 65 66 66 69 70 71 69 69 71 69 69 69 71 72 73 73 73 72 71 70 71 71 68 65 61 60 59 60 60 61 61 61 66 66 67 67 69 71 72 72 73
65 65 66 67 68 68 70 70 69 68 70 68 68 71 72 73 73 74 74 72 73 70 71 69 68 67 60 63 60 60 60 58 60 62 64 67 66 65 68 69 69 69 70
65 66 66 69 69 68 69 68 70 70 70 68 68 73 73 73 74 74 73 72 73 72 71 70 69 68 64 61 64 61 57 58 60 60 58 60 64 65 67 68 68 69 70
65 65 68 68 70 69 70 70 71 71 70 69 68 71 73 73 75 73 73 73 73 73 72 71 71 69 65 63 65 64 57 56 59 60 60 57 61 61 66 68 69 68 69
65 66 67 69 72 70 71 70 69 67 67 68 67 69 71 73 73 74 73 73 73 72 70 71 72 70 68 60 61 63 65 65 59 57 61 59 61 59 61 66 67 68 63
65 67 67 69 72 71 71 70 70 69 69 68 68 68 70 71 73 74 74 74 73 74 71 70 71 71 71 67 60 61 62 63 63 61 57 60 61 61 62 61 62 64 62
64 68 69 70 72 71 71 72 71 70 68 68 68 67 71 71 72 73 74 74 74 73 73 72 72 72 70 71 67 65 59 59 60 60 60 61 58 60 60 60 61 62 62

GFSSE_sfc_dewp_036.txt.gz
Dewpoint
69 72 75 75 76 75 75 75 76 76 76 77 76 76 75 75 75 76 76 74 74 74 73 73 74 73 73 72 71 73 72 72 73 73 74 74 74 74 74 75 74 71 74
70 72 75 76 76 75 76 76 76 76 76 75 76 75 75 75 75 75 75 74 74 74 73 74 73 73 73 73 72 73 73 73 73 72 73 74 74 74 74 74 74 73 74
71 73 74 76 76 76 76 76 75 75 75 75 75 75 75 75 75 75 75 74 74 74 74 73 73 72 73 72 73 72 73 73 73 72 74 71 71 73 74 74 74 74 74
71 72 73 76 76 76 76 76 76 74 75 76 75 75 75 75 75 74 74 74 74 74 73 73 73 73 73 72 72 72 72 71 71 71 70 69 69 74 74 74 74 74 74
71 72 73 76 77 76 76 75 76 75 75 75 75 75 75 75 75 74 74 73 73 73 73 72 72 72 72 72 71 71 71 71 71 71 68 70 70 72 73 74 73 73 73
70 72 75 76 76 76 75 76 75 75 75 75 75 75 74 74 74 74 74 73 73 73 73 72 72 71 71 71 71 71 71 72 72 70 70 72 70 73 73 73 73 73 73
70 73 73 76 77 76 75 75 75 75 75 75 75 75 75 74 74 74 74 74 74 74 73 73 73 72 72 72 71 72 72 72 70 71 71 71 72 74 72 72 73 73 73
71 73 74 76 77 76 75 75 75 75 75 75 75 75 75 75 74 74 74 73 73 73 73 72 73 73 71 72 71 72 72 72 71 71 71 72 74 74 73 72 73 73 73
72 73 73 73 74 75 76 75 75 75 75 75 75 75 75 74 74 74 74 74 73 72 72 72 72 72 72 71 71 71 73 73 70 71 72 72 75 73 73 73 73 73 73
71 73 73 73 73 74 73 75 75 75 75 75 74 74 74 73 73 73 75 75 72 71 71 71 72 73 73 72 72 71 73 73 71 71 72 73 75 74 73 73 73 73 73
71 73 73 72 73 73 73 73 74 75 75 74 74 74 74 72 71 72 73 74 72 70 70 72 74 74 73 72 73 71 72 70 70 71 72 75 74 73 73 73 73 73 73
70 71 72 72 72 72 72 72 72 72 72 72 72 70 70 70 70 72 73 73 72 71 72 74 73 72 72 69 68 72 71 70 71 70 72 75 74 73 72 73 73 73 73
69 70 70 70 71 71 71 72 72 72 72 72 69 66 68 71 71 72 72 72 70 69 69 69 69 70 70 69 69 69 71 70 71 69 73 75 74 73 72 70 73 73 73
67 68 68 70 70 68 71 71 71 71 71 71 65 69 70 70 71 71 71 70 70 70 70 70 71 71 70 66 64 66 70 68 67 70 73 75 74 73 73 72 70 72 72
65 66 67 69 69 68 69 69 70 70 70 71 67 68 71 70 70 71 72 71 71 71 69 65 70 68 68 66 65 69 66 66 67 70 72 75 75 74 73 73 72 70 70
63 64 66 68 68 68 68 67 68 68 68 70 69 69 71 69 71 72 72 71 71 71 69 67 69 66 64 66 66 66 65 66 67 69 71 72 75 75 74 72 73 72 72
61 63 64 67 68 68 66 66 66 67 67 69 70 71 70 71 71 71 71 70 70 70 69 70 69 67 65 65 64 61 64 66 66 68 70 70 73 75 74 74 73 73 72
61 62 64 66 68 67 66 68 69 67 66 69 70 71 71 70 72 72 70 71 72 71 71 70 69 68 67 67 63 62 63 66 66 67 68 70 70 69 74 75 74 74 73
62 62 63 64 68 66 69 69 68 68 68 68 69 70 71 71 73 72 72 71 70 71 70 69 69 70 66 66 65 62 61 62 65 65 65 67 68 69 72 74 74 73 72
63 63 63 63 67 67 70 69 68 68 68 70 70 70 70 71 73 72 71 72 71 69 70 70 67 63 58 60 60 60 59 61 64 65 65 66 67 68 70 71 71 71 73
64 63 63 63 67 68 69 68 66 65 67 68 69 69 70 71 72 73 72 71 71 69 70 68 67 65 58 62 59 58 58 60 60 63 66 66 66 67 69 70 70 70 71
64 64 64 64 65 68 67 68 67 67 68 68 68 70 71 72 73 73 72 71 71 70 70 68 69 67 62 61 62 58 55 55 59 60 64 66 65 66 67 68 68 68 70
63 64 65 65 65 66 68 68 70 70 68 68 67 71 71 72 73 73 72 72 72 71 70 70 69 66 60 63 63 59 56 53 57 60 58 62 64 64 66 67 67 68 69
63 64 66 66 66 66 69 67 67 67 67 68 67 69 71 73 73 73 72 72 72 72 71 71 71 69 64 58 61 64 63 62 55 54 59 59 61 61 65 68 68 68 68
63 64 66 68 67 67 70 67 67 66 67 69 67 67 70 71 73 72 72 72 71 72 70 70 71 70 68 65 57 61 61 62 62 58 55 57 61 60 63 67 67 68 65
63 64 66 69 68 68 70 69 68 67 68 67 67 66 69 70 71 73 73 72 72 73 71 70 70 71 70 67 63 61 59 58 59 59 59 59 57 58 61 62 63 66 63

GFSSE_sfc_dewp_039.txt.gz
Dewpoint
69 71 75 75 75 75 75 75 75 75 75 75 75 75 75 75 75 75 75 74 74 73 74 74 73 73 71 72 72 72 72 72 73 72 74 74 75 75 74 75 74 72 74
70 72 75 75 75 75 76 75 76 75 75 75 75 75 75 75 75 74 74 74 74 73 74 73 73 73 72 71 72 73 72 72 73 73 74 74 74 74 74 74 74 72 73
71 72 73 76 76 75 75 76 75 75 75 75 75 75 75 75 75 74 74 74 74 73 73 73 73 72 72 72 73 73 73 72 72 73 73 71 72 74 74 74 74 74 73
72 73 73 76 76 75 75 76 75 75 75 74 75 75 75 75 75 74 74 74 74 73 73 73 73 72 72 72 72 72 72 72 71 73 70 70 70 74 74 74 73 73 73
72 73 74 76 76 75 75 75 75 75 74 75 75 75 75 75 74 74 74 73 73 73 72 72 72 72 71 71 71 71 72 72 72 70 69 70 71 72 74 73 73 73 73
72 72 75 75 75 74 75 75 75 75 75 75 75 75 75 75 74 74 74 73 73 73 73 72 72 72 72 71 71 71 72 73 72 69 71 72 70 73 73 73 73 73 73
71 73 73 76 76 75 75 75 75 75 75 75 75 74 74 74 74 74 74 74 74 73 73 73 73 72 71 71 71 72 73 72 71 71 71 71 72 74 73 73 73 73 73
72 73 74 75 75 75 74 75 75 75 75 75 75 75 75 74 74 74 74 74 73 73 72 73 72 72 72 71 72 71 73 72 71 71 72 72 73 73 71 73 73 73 73
72 73 73 74 73 75 75 75 75 75 75 75 75 75 75 74 74 74 74 74 73 72 72 72 72 72 72 72 72 73 73 73 71 71 72 72 74 73 71 72 73 73 73
72 73 73 73 72 73 73 74 75 75 75 75 74 74 74 74 74 73 74 75 73 72 72 71 72 72 73 72 72 73 73 73 71 72 72 73 74 73 73 73 73 73 73
72 73 72 72 73 73 73 73 74 75 74 74 74 73 73 72 71 72 72 72 72 72 71 72 72 71 72 72 72 73 73 71 71 71 72 74 74 73 72 72 73 73 72
70 72 72 72 72 72 73 72 72 73 72 73 72 71 70 70 69 72 73 72 71 72 72 73 72 72 71 68 68 73 70 71 71 71 72 74 74 72 72 72 73 72 72
70 72 72 71 71 72 72 72 72 72 72 72 70 68 69 70 70 72 72 72 69 69 69 69 70 70 69 69 69 70 70 69 70 71 73 75 73 71 72 73 73 73 72
69 71 71 71 71 71 71 71 71 71 71 71 68 67 68 70 70 71 71 70 70 69 69 70 70 70 69 66 66 69 70 70 69 70 73 75 74 73 70 71 73 73 73
68 69 69 70 70 70 70 70 70 70 71 71 66 67 70 70 70 71 71 69 70 70 69 65 69 67 66 66 66 69 69 67 68 71 72 74 75 73 73 71 69 71 72
68 68 68 69 70 69 69 68 69 69 70 70 69 66 69 68 69 70 70 70 70 70 69 67 69 64 64 65 66 68 66 66 68 70 71 72 75 74 73 73 71 70 70
66 66 67 68 69 68 68 67 68 68 68 69 70 68 70 69 71 71 71 70 69 70 68 69 69 68 64 65 64 65 66 66 67 69 70 71 72 74 73 72 73 72 72
64 65 66 67 68 67 68 66 66 67 68 68 70 70 70 70 70 70 70 69 70 70 70 69 68 67 66 65 62 62 65 65 66 68 69 70 71 71 73 73 73 73 72
63 63 64 66 68 67 67 67 67 67 67 68 70 70 70 71 72 71 71 71 71 70 70 70 69 69 66 66 66 61 63 65 65 66 67 68 68 69 72 73 74 74 72
62 62 64 65 67 67 67 68 68 68 68 69 69 70 71 72 72 71 71 70 71 69 69 69 66 64 59 62 61 59 60 62 65 65 65 66 67 68 70 71 71 71 72
63 61 63 64 66 67 68 67 66 66 67 68 69 69 70 71 72 71 70 71 70 68 69 67 66 61 60 60 57 56 59 60 62 64 65 65 66 67 69 70 70 70 70
62 62 62 63 65 68 66 67 66 66 66 67 68 69 69 71 72 72 71 71 71 69 69 68 67 65 59 62 58 56 54 55 59 60 65 65 65 66 67 69 69 69 69
62 63 63 63 64 67 67 68 69 68 67 67 67 69 69 71 72 73 72 71 70 70 69 68 68 63 58 63 63 58 54 52 56 59 59 63 65 65 65 67 68 68 68
61 64 64 63 63 66 67 67 66 64 63 64 66 69 70 71 72 73 71 71 71 71 70 69 70 68 60 60 60 65 62 59 54 53 58 60 63 63 64 66 67 67 68
62 63 64 64 64 65 67 66 66 64 64 68 67 67 70 71 72 73 72 71 71 71 70 70 70 68 66 59 57 62 61 62 60 56 53 57 60 60 61 66 67 67 67
62 63 64 65 64 64 67 66 66 65 67 68 67 66 69 70 71 72 72 71 71 71 70 69 70 69 69 66 60 60 59 59 59 59 57 57 57 58 60 63 66 67 67

GFSSE_sfc_dewp_042.txt.gz
Dewpoint
69 71 74 74 74 75 74 75 75 75 75 75 74 74 74 75 75 75 75 74 73 73 73 72 71 71 71 71 72 72 72 73 73 73 75 75 74 75 74 74 74 71 74
70 72 75 75 74 75 74 75 75 75 75 75 75 75 75 75 75 74 74 74 74 74 74 73 72 71 71 72 71 72 73 73 73 74 74 74 74 74 74 74 74 72 73
70 72 73 75 75 74 75 75 75 75 75 75 75 75 75 74 74 74 74 74 74 74 73 73 72 72 72 72 73 72 72 73 73 74 75 73 72 74 74 74 74 74 74
71 72 73 75 75 75 75 75 75 75 75 75 75 75 74 74 74 74 74 74 74 73 72 73 72 72 72 72 72 73 73 72 73 72 71 71 71 74 74 74 74 73 73
72 73 73 76 76 75 75 75 75 74 74 75 74 74 74 74 74 74 74 74 73 73 73 73 72 72 72 71 71 71 72 72 72 71 71 72 73 73 74 74 73 73 74
73 73 75 75 74 75 75 75 74 74 75 75 74 74 74 74 74 74 74 73 73 73 73 72 72 72 71 71 71 72 73 72 71 71 72 72 73 74 74 73 73 73 73
72 73 73 76 75 75 75 75 74 75 75 75 74 74 74 74 74 74 74 74 73 73 73 73 72 71 72 71 71 73 73 72 71 72 72 72 73 74 73 73 73 73 73
72 73 73 75 74 75 75 75 74 74 75 75 75 74 74 74 74 74 74 73 73 73 73 72 72 72 72 72 72 73 73 72 71 72 72 72 74 73 73 73 73 73 73
73 73 74 73 74 75 75 75 75 74 75 75 75 75 74 74 74 74 74 73 72 72 72 72 72 72 72 72 73 73 73 73 72 72 71 72 74 72 73 73 73 73 73
73 73 73 72 72 73 74 75 75 75 75 75 75 74 74 74 74 74 74 74 72 72 72 71 71 72 72 73 73 73 73 74 72 72 72 73 73 72 72 73 72 73 73
72 72 72 72 73 73 73 74 74 75 74 74 74 74 74 73 72 73 73 73 72 71 72 72 72 72 72 72 73 73 73 72 72 72 72 73 73 72 72 73 73 73 72
69 72 72 72 72 73 73 73 73 73 73 73 73 72 72 72 71 72 72 72 71 72 73 73 72 72 71 69 71 73 71 72 72 71 73 74 74 72 72 72 72 72 72
68 70 72 72 72 72 72 72 72 72 72 72 71 70 71 71 71 73 72 73 70 70 70 70 72 71 70 69 69 70 70 71 72 71 73 74 74 71 72 72 72 72 72
69 69 72 72 71 72 72 72 71 72 72 71 70 68 70 70 71 72 72 71 71 71 70 70 71 70 69 67 69 70 69 70 70 71 73 74 73 71 72 73 73 73 72
69 69 71 71 71 71 71 71 71 71 71 71 69 68 70 71 71 72 72 71 71 72 70 68 71 67 68 67 67 70 70 69 69 71 72 73 73 72 70 70 72 72 72
68 70 71 70 71 70 70 70 70 70 71 71 69 66 70 70 71 71 72 72 71 71 71 70 70 67 67 67 70 70 69 68 70 71 72 74 73 72 72 71 70 69 70
67 69 69 70 70 69 69 69 69 70 70 70 71 69 69 70 70 71 71 72 71 72 70 72 71 69 67 66 68 68 68 68 69 71 71 72 74 73 72 72 72 71 70
67 68 68 69 69 69 68 68 68 69 69 69 70 71 70 71 71 72 71 71 72 72 72 72 70 69 68 66 66 67 67 67 68 69 70 71 72 71 72 72 72 73 72
67 67 67 68 69 68 68 68 67 68 68 69 70 71 71 71 72 72 71 71 72 72 72 72 71 70 68 67 65 64 67 67 67 67 69 70 70 70 72 73 73 73 72
66 66 66 67 68 68 68 68 68 68 68 69 70 71 71 72 73 72 71 71 72 71 72 71 69 65 64 65 61 61 63 65 67 66 67 67 68 69 71 72 72 71 73
64 64 66 66 67 68 68 67 68 67 69 70 70 71 71 72 74 72 72 71 72 70 71 70 68 65 64 63 62 61 62 62 65 66 67 67 67 68 70 71 71 70 70
63 63 65 66 67 68 68 68 68 67 68 69 70 71 71 72 73 73 72 72 71 71 72 70 69 67 63 65 61 60 59 61 62 61 66 67 67 67 69 70 70 70 70
63 63 64 65 66 68 68 68 68 68 68 68 69 70 70 72 72 74 73 72 72 71 71 70 70 66 63 65 65 61 58 58 59 61 63 65 67 67 67 68 69 69 70
63 64 64 65 66 67 68 68 68 66 65 66 68 70 70 71 72 73 73 72 72 72 72 71 70 69 65 65 64 65 64 62 59 59 61 62 63 65 67 67 67 69 69
63 64 64 65 65 67 68 68 67 67 66 67 68 69 70 71 72 73 73 73 72 72 72 72 72 70 67 64 63 65 65 64 62 59 58 60 63 64 65 66 67 68 69
63 63 65 65 65 66 68 68 68 67 66 67 67 67 69 70 71 73 73 73 73 72 72 72 72 71 70 68 64 65 64 64 63 62 60 60 60 63 63 63 65 68 69

GFSSE_sfc_dewp_045.txt.gz
Dewpoint
69 71 74 74 74 74 74 74 74 74 74 75 75 74 74 74 74 75 74 73 73 72 73 71 71 71 72 72 73 73 73 73 74 74 75 74 75 74 74 74 74 70 74
68 72 75 75 75 74 76 75 75 75 74 75 74 74 75 75 75 74 74 73 74 74 73 73 71 72 72 71 72 73 73 73 74 74 74 74 74 74 74 74 74 72 74
67 71 72 75 75 75 75 75 75 75 75 75 75 75 75 74 74 74 74 74 74 73 73 73 73 72 72 73 72 72 74 74 74 74 73 71 71 74 74 74 74 74 73
67 70 70 75 76 75 75 76 75 75 74 74 75 75 74 74 74 74 74 73 73 73 73 72 72 73 73 73 73 72 72 74 73 73 70 69 70 74 74 74 74 74 73
68 71 72 75 75 75 74 75 75 75 75 75 75 74 74 74 74 74 74 73 73 72 73 72 72 71 71 71 71 72 72 73 73 71 71 72 71 73 74 73 73 73 73
69 69 73 74 75 75 75 75 74 75 75 75 74 74 74 74 74 74 74 73 73 73 73 72 72 71 71 71 72 72 72 72 71 70 70 72 72 73 74 73 73 73 73
67 70 70 76 76 75 75 74 75 75 74 74 74 74 74 74 74 74 74 73 73 73 73 72 71 71 71 71 73 74 73 72 69 71 71 71 72 73 73 73 73 73 73
67 69 71 74 75 75 75 75 75 75 74 74 75 75 74 74 74 74 74 73 73 73 73 72 72 72 71 72 73 73 72 70 69 71 71 72 73 74 73 73 73 73 72
68 69 72 70 74 75 75 75 74 74 75 75 75 75 75 74 74 74 73 73 72 72 72 71 72 72 72 72 74 73 73 73 70 70 68 67 73 73 73 73 73 73 73
68 70 71 71 72 73 73 75 74 75 75 75 75 74 74 74 74 74 74 74 72 71 71 71 71 71 73 73 73 73 73 73 68 69 69 70 74 72 73 73 73 73 73
68 70 69 71 72 74 74 74 75 75 75 75 74 75 74 73 73 71 73 72 72 72 72 72 71 71 72 73 73 74 72 68 67 67 68 73 74 73 73 73 73 73 72
67 69 69 70 71 72 71 74 74 72 71 72 73 74 74 73 72 70 71 72 72 73 72 73 73 72 69 68 70 72 67 69 67 67 69 73 73 72 73 73 73 72 73
67 69 71 71 73 71 72 72 72 72 72 73 74 73 74 72 72 71 70 71 70 70 69 70 71 69 70 68 69 68 69 69 67 67 70 72 72 72 72 72 72 72 72
67 69 71 71 73 72 72 71 72 71 71 71 71 73 73 71 72 72 70 71 71 71 71 71 70 70 69 70 69 69 69 68 66 67 69 72 71 71 73 73 72 72 71
67 69 70 72 73 73 74 72 71 72 70 70 70 70 71 71 73 72 72 71 72 72 71 71 70 68 69 68 69 69 69 69 67 67 69 71 71 70 69 72 72 72 71
67 67 70 71 72 73 72 74 72 71 71 70 70 68 71 72 74 74 76 72 72 73 72 71 69 68 68 69 70 69 69 69 68 68 67 71 72 71 71 69 69 70 71
66 68 70 71 71 72 72 72 71 69 69 70 71 71 71 73 73 74 74 76 72 73 72 73 71 69 66 67 70 69 69 69 67 68 68 69 70 72 71 71 71 70 69
67 68 70 68 70 71 71 71 69 68 69 70 71 72 73 72 73 75 74 72 73 73 72 72 70 67 69 66 67 67 68 68 68 67 68 68 69 67 71 71 71 72 72
68 69 69 70 69 70 71 70 69 70 69 69 70 71 73 73 73 74 73 73 74 73 73 71 71 71 68 65 64 66 68 67 67 64 68 69 69 69 69 72 72 72 71
68 69 69 69 71 71 70 71 68 67 68 69 70 70 73 73 73 74 74 74 74 75 71 71 69 66 69 67 59 63 66 67 68 66 67 67 68 69 69 71 70 69 71
68 68 69 69 71 70 69 67 67 65 67 68 70 73 73 73 74 75 73 74 74 72 73 72 68 68 65 66 63 62 63 65 67 67 67 67 67 68 69 70 69 69 68
67 68 69 69 71 71 69 70 67 68 68 69 72 73 73 73 75 75 75 74 74 72 74 73 71 65 65 65 62 62 58 61 63 64 66 66 67 68 68 69 70 71 70
66 68 69 70 71 71 71 70 70 71 71 69 70 71 72 73 74 76 75 74 74 76 77 74 71 68 63 67 66 62 57 56 61 63 65 65 68 67 67 68 68 69 70
65 67 69 70 71 71 72 71 72 67 66 67 69 70 72 74 73 74 76 75 76 73 76 73 72 70 67 64 66 66 66 64 58 57 61 64 66 66 67 67 66 67 69
65 65 67 70 72 72 73 73 70 70 67 69 68 72 74 74 74 73 75 75 76 75 76 74 74 73 67 65 65 66 68 64 65 60 58 60 62 62 64 66 65 65 68
64 65 66 70 71 72 72 72 73 73 71 68 69 68 68 70 71 74 74 75 75 74 75 74 76 74 73 69 65 66 65 64 62 61 60 63 61 63 63 64 65 65 66

GFSSE_sfc_dewp_048.txt.gz
Dewpoint
70 71 73 74 74 74 74 75 75 75 75 76 75 74 74 74 75 75 73 73 73 73 72 72 72 72 72 73 73 74 74 74 74 75 75 75 75 74 74 73 74 68 74
69 70 73 75 74 74 74 75 74 75 75 75 74 74 75 75 75 74 74 74 74 73 73 71 72 72 71 72 72 72 72 73 74 74 75 75 75 74 74 73 74 71 73
66 67 71 76 75 76 75 75 75 74 75 74 75 75 75 74 74 73 73 74 73 73 73 73 72 72 73 71 73 73 73 74 74 73 72 71 71 74 74 74 73 74 74
62 64 68 75 75 75 75 75 75 75 75 75 75 74 75 74 73 74 74 73 73 73 73 73 73 73 73 73 72 73 74 74 73 72 71 69 68 74 74 74 73 73 74
63 63 71 75 75 75 75 75 75 74 74 74 75 74 74 74 74 74 74 73 73 73 73 72 72 71 71 71 72 73 73 73 71 70 70 71 70 73 74 73 73 73 74
63 63 73 75 75 74 75 75 75 75 75 75 74 74 74 74 74 74 73 74 73 73 72 72 72 71 71 72 72 72 72 71 71 69 69 71 72 73 73 73 73 73 73
61 64 70 75 76 75 75 75 75 75 75 75 74 74 74 74 74 74 73 73 73 73 72 72 72 71 72 73 73 73 71 69 68 69 70 71 72 74 73 73 73 73 73
61 63 69 74 75 75 74 75 75 75 74 75 75 75 75 75 74 74 73 73 73 73 72 72 72 71 72 73 73 73 71 69 67 68 70 69 73 74 73 73 73 73 73
61 63 67 70 74 75 75 75 75 75 75 75 75 75 75 75 74 73 73 73 73 72 71 71 71 72 72 74 73 73 72 70 66 66 63 65 73 73 73 73 73 72 73
62 64 66 68 69 71 71 75 75 75 75 75 75 75 75 74 74 73 74 74 72 71 71 71 71 72 73 73 73 73 72 71 64 65 66 68 73 73 73 73 73 73 71
61 64 63 65 69 73 72 73 75 75 75 75 75 75 74 67 68 70 73 72 72 72 71 71 71 72 73 73 73 73 73 62 62 63 64 73 73 73 73 73 73 72 72
61 63 63 68 68 72 68 73 73 71 69 69 70 72 69 69 69 67 71 72 72 72 73 73 72 71 73 67 68 72 63 65 63 64 66 72 72 72 73 73 72 72 72
61 61 63 67 69 70 73 70 69 67 68 70 72 71 71 68 66 66 68 68 68 71 66 69 70 67 67 66 65 64 65 64 63 62 70 72 72 72 72 72 72 72 72
61 63 63 66 69 69 69 66 66 66 67 67 69 73 71 68 68 68 67 68 69 68 68 70 65 68 68 69 66 66 64 61 62 63 70 72 71 73 72 72 72 72 72
61 63 64 67 71 71 72 67 67 67 66 66 69 71 68 68 70 69 70 69 69 68 68 68 67 67 68 67 66 66 65 64 62 63 68 72 71 69 71 73 72 72 71
63 64 65 67 70 71 71 72 71 69 68 67 66 68 72 70 75 68 69 70 71 70 68 68 67 64 62 64 68 66 65 65 66 65 64 70 71 71 69 69 70 70 71
62 65 66 67 68 71 71 72 70 68 66 67 67 72 72 73 75 72 69 70 70 71 71 69 67 66 61 61 66 66 65 66 65 66 65 65 69 72 71 71 69 69 69
62 65 67 64 65 69 70 70 67 67 67 68 69 70 72 73 74 75 70 69 71 69 67 64 62 65 66 59 63 63 64 64 66 66 65 65 65 66 71 71 71 71 71
63 65 67 67 66 68 70 68 68 70 68 68 68 69 73 73 73 73 70 73 73 70 69 64 64 65 63 58 59 61 62 62 64 61 66 66 66 65 65 72 71 71 71
63 66 68 67 68 69 68 69 66 67 68 69 69 69 73 72 73 73 71 73 71 68 69 67 68 66 64 61 57 58 60 61 64 63 62 62 63 65 64 69 69 70 71
64 66 67 68 70 69 66 64 65 65 67 67 68 71 74 73 74 75 73 70 71 68 69 71 67 69 62 64 60 57 58 62 64 64 63 62 63 63 64 65 65 66 68
64 66 68 69 71 71 66 67 65 66 65 66 69 73 73 73 74 73 73 71 72 71 70 70 71 63 62 63 59 57 55 58 60 61 63 63 64 63 63 65 66 68 66
64 66 68 70 71 71 70 66 68 68 68 68 70 69 72 73 74 75 73 72 71 71 67 71 71 69 61 63 66 63 57 61 59 60 63 61 65 62 64 65 66 65 67
64 66 68 70 71 71 72 69 73 66 65 64 67 67 70 73 73 74 75 73 73 75 72 70 69 67 68 62 62 62 65 64 57 59 59 61 62 62 63 63 62 64 66
63 65 68 71 73 73 73 73 68 69 62 64 65 71 74 75 74 72 75 73 73 70 73 74 74 72 65 63 61 61 65 62 64 58 56 58 60 60 61 63 62 62 65
63 64 67 71 73 73 71 71 73 72 69 64 68 66 66 67 71 74 74 75 73 72 73 72 73 74 71 68 64 64 61 61 60 61 59 61 60 62 62 61 62 62 62

GFSSE_sfc_dewp_051.txt.gz
Dewpoint
70 69 73 74 74 75 75 75 75 75 76 76 75 74 73 73 75 74 73 73 73 72 72 72 73 72 73 74 74 74 74 74 75 75 75 75 74 74 73 73 75 69 74
69 69 74 74 75 75 75 75 75 75 75 75 74 74 74 75 74 74 74 74 74 73 72 72 72 72 72 72 72 73 74 74 74 75 74 74 74 74 74 74 75 72 74
68 69 71 75 75 74 75 74 74 75 75 75 75 75 75 74 74 74 74 74 74 73 73 72 73 72 71 73 73 73 73 74 74 73 72 71 71 74 74 74 74 74 74
66 66 68 76 76 75 75 75 75 74 75 75 75 74 74 74 74 74 74 74 73 73 73 73 73 73 72 72 73 74 74 73 72 71 70 70 68 74 74 74 74 74 74
61 63 72 76 76 75 75 75 75 75 75 75 74 74 74 73 74 73 73 73 73 73 73 72 72 72 72 72 73 73 73 72 72 72 70 73 68 72 73 73 73 73 74
59 65 74 76 75 75 75 75 75 75 75 74 74 74 74 74 74 74 74 73 73 72 73 72 72 72 72 72 72 71 71 70 71 70 70 70 73 73 73 74 74 74 73
60 65 70 76 75 75 75 75 75 75 75 75 75 74 74 74 74 74 73 74 72 72 72 72 72 72 72 72 73 71 69 69 70 70 69 71 71 74 73 73 73 73 73
60 63 70 75 75 75 75 75 75 75 75 75 74 74 74 74 74 74 74 73 73 72 72 72 72 72 73 73 73 70 70 71 68 69 70 69 73 74 73 73 74 73 73
58 63 67 70 73 74 75 75 75 75 74 74 74 75 74 74 74 73 73 73 72 71 71 72 72 72 73 73 72 71 72 71 69 67 64 68 74 73 73 73 72 73 72
59 60 65 67 69 70 72 75 75 74 74 74 75 75 74 74 73 73 74 73 71 72 72 71 72 73 74 74 72 72 72 71 61 67 65 70 74 73 73 73 72 72 73
59 59 61 62 67 73 72 74 75 75 74 75 74 75 74 67 69 71 74 72 71 70 71 71 72 73 73 74 73 73 73 63 63 62 67 74 74 73 73 73 73 72 72
59 57 58 62 67 69 65 72 72 70 69 69 68 72 73 70 69 67 71 72 71 72 72 72 71 72 72 70 68 72 67 61 64 64 67 74 73 73 73 73 73 72 71
58 56 60 67 69 69 69 69 68 69 68 71 70 72 70 66 66 69 67 67 68 72 70 70 71 73 72 72 70 64 62 61 62 64 71 74 73 72 72 72 72 72 72
59 57 61 63 70 70 67 69 69 67 63 64 67 70 70 74 72 72 71 66 70 71 65 70 63 66 68 70 67 69 62 65 63 64 70 72 73 73 73 72 72 72 72
57 57 61 64 70 73 74 69 63 64 62 64 68 69 72 72 71 72 68 71 70 70 66 67 64 68 64 63 68 68 62 62 67 68 68 72 71 72 73 72 72 71 70
58 59 61 65 69 71 74 70 69 69 70 64 65 67 70 74 74 69 69 72 74 70 68 69 70 65 65 61 63 66 67 62 65 69 67 70 73 71 69 70 70 70 70
59 60 63 65 68 70 74 70 73 71 63 68 66 71 72 73 72 73 73 68 73 70 69 67 65 68 61 65 66 65 62 67 63 64 69 68 70 73 73 71 70 69 69
60 62 64 62 66 69 70 70 67 65 68 71 72 70 72 72 72 73 69 66 70 72 71 64 68 65 64 63 66 67 64 63 64 64 65 69 70 68 71 72 72 71 70
61 64 65 65 66 69 71 69 68 70 71 72 72 73 73 73 72 75 73 70 71 71 71 68 65 63 65 61 63 64 64 61 66 61 63 63 63 68 69 73 72 72 71
60 63 66 65 70 72 70 70 67 67 68 71 71 72 73 71 72 73 71 71 73 65 70 72 69 66 67 65 54 57 61 61 60 61 61 60 61 63 69 71 70 69 73
61 63 66 68 73 69 67 66 66 64 67 68 72 71 73 71 72 74 70 71 71 69 74 69 66 67 61 62 59 56 57 58 61 59 59 58 60 60 61 63 67 69 69
61 64 69 70 74 71 67 69 68 68 65 65 66 72 72 72 73 70 74 74 73 70 72 70 71 65 59 67 69 56 60 63 58 59 59 59 60 60 61 63 63 65 66
61 64 69 72 74 73 72 69 69 69 67 65 70 69 71 72 73 73 72 75 72 75 69 71 70 72 63 61 67 69 65 62 60 58 62 60 63 61 61 63 63 64 65
61 64 70 72 74 73 74 69 72 66 64 63 66 66 69 72 72 72 73 73 73 70 75 72 70 71 71 63 60 60 70 66 67 61 58 60 61 61 63 62 62 63 66
61 63 66 73 74 74 74 73 68 70 64 63 62 75 75 76 73 71 73 74 74 70 73 73 73 73 65 72 66 59 65 60 67 62 61 58 60 59 60 63 60 61 65
61 63 66 73 75 75 75 74 74 72 70 62 65 67 66 68 70 73 73 74 74 73 74 73 74 73 74 69 66 65 66 66 64 58 58 62 58 60 60 60 61 61 61

GFSSE_sfc_dewp_054.txt.gz
Dewpoint
70 69 72 73 74 75 75 75 76 77 76 76 75 74 74 75 74 74 74 74 73 73 73 73 73 73 74 74 74 74 75 76 76 75 75 75 74 75 75 75 74 70 75
68 68 73 75 75 75 75 76 76 76 76 75 75 74 75 74 74 74 74 74 74 73 73 72 72 73 73 73 73 74 75 75 76 75 74 75 74 74 74 74 75 73 74
67 68 72 75 76 75 75 75 75 75 75 74 75 75 74 74 74 74 74 74 74 73 73 73 72 72 74 74 74 74 74 74 74 73 73 72 72 74 75 74 74 74 74
66 68 70 75 75 75 75 75 75 75 75 75 75 75 75 74 74 74 74 73 74 74 73 74 73 73 72 74 74 74 74 73 72 72 71 70 69 74 74 74 74 74 72
66 68 72 76 76 75 76 75 76 75 75 75 75 74 74 74 74 73 73 73 73 73 73 73 72 72 73 73 73 73 73 72 73 71 71 72 70 72 72 73 73 73 73
65 69 75 77 76 76 76 76 75 75 75 75 75 75 74 74 74 74 73 73 73 73 73 73 73 72 72 72 71 71 72 72 72 71 70 72 72 73 73 73 73 73 73
66 68 72 77 76 76 75 75 75 75 75 75 75 74 74 74 74 74 74 72 73 73 72 72 72 72 72 72 71 70 71 74 70 71 71 72 72 74 73 74 73 73 73
64 66 71 75 76 76 75 75 75 75 75 75 75 74 75 75 75 75 73 73 73 72 72 72 73 73 73 73 70 70 70 73 70 70 71 71 74 74 74 73 74 73 73
62 67 70 71 74 75 75 75 75 75 75 75 75 75 76 75 75 74 74 73 72 71 72 72 73 74 73 71 71 72 72 73 70 69 68 71 74 74 73 72 72 72 72
63 65 68 70 70 72 73 75 74 75 76 75 75 75 76 75 73 73 75 74 72 72 72 72 73 74 73 72 72 73 72 73 66 68 70 72 74 74 73 73 73 73 73
60 62 64 66 70 74 74 74 74 75 75 75 75 76 75 71 71 71 74 73 71 72 73 73 73 72 72 72 72 73 71 70 66 68 71 75 74 73 73 73 71 72 73
57 59 61 65 69 71 67 74 74 73 72 72 71 73 76 72 73 68 72 73 71 71 73 75 74 71 70 72 71 73 71 67 66 68 72 75 75 73 73 73 72 71 71
57 57 60 69 70 69 71 72 71 71 71 72 73 72 75 72 71 70 71 71 70 73 71 73 72 70 69 71 72 67 66 64 66 68 73 75 74 73 72 73 72 72 72
57 61 65 67 73 73 70 71 71 72 71 70 71 73 76 74 72 71 72 72 72 71 72 72 71 69 73 72 70 65 64 65 66 68 74 75 75 73 72 72 72 72 71
56 60 66 71 72 72 75 74 71 70 66 70 70 72 72 74 74 74 71 70 73 71 70 69 72 71 72 71 68 66 64 67 68 68 70 75 75 74 73 73 71 71 71
58 62 65 70 73 73 73 74 70 72 68 69 69 72 73 76 75 75 75 71 73 71 72 67 72 71 66 69 68 66 65 69 70 69 70 72 73 74 74 73 71 71 71
59 62 64 70 71 73 73 75 74 68 69 71 71 74 76 76 77 75 75 71 71 74 75 74 72 65 70 67 68 68 69 68 70 69 68 70 72 73 73 72 71 71 70
60 65 65 61 68 72 73 75 74 71 72 73 72 74 76 76 77 75 75 73 74 73 69 64 67 70 67 69 69 67 67 68 68 70 70 70 70 70 74 74 73 72 71
64 67 66 68 68 71 73 73 71 70 71 69 75 73 77 75 75 74 73 75 69 71 72 72 71 69 71 67 64 67 68 66 64 63 68 70 71 70 70 74 74 74 72
64 67 67 68 72 73 73 76 75 71 73 73 73 75 77 76 74 74 75 75 75 71 70 73 69 67 70 67 58 64 66 66 68 68 65 63 68 71 70 71 73 71 73
62 66 70 71 74 72 71 70 70 70 70 71 73 73 76 76 75 72 74 75 74 74 71 76 71 70 69 65 66 64 66 65 64 67 66 64 64 68 70 72 71 72 71
63 66 70 71 73 72 71 73 73 69 71 71 70 76 75 74 76 76 75 76 71 73 75 74 73 73 68 71 68 69 63 66 64 61 67 64 64 65 66 66 71 72 72
63 66 69 72 73 72 74 72 75 76 73 70 74 73 75 74 75 76 76 77 78 76 74 75 75 71 70 68 68 70 62 62 64 66 65 66 66 66 68 67 68 68 68
63 66 69 72 74 72 74 71 74 71 70 68 72 72 74 76 75 76 76 76 76 74 74 76 75 73 69 70 68 69 70 69 63 64 67 67 66 64 66 69 67 68 70
63 64 68 71 74 73 73 73 71 72 70 73 71 74 75 78 77 75 77 78 77 77 77 76 76 75 75 72 68 69 69 69 71 66 62 66 67 67 69 68 67 68 69
62 64 67 70 72 74 73 73 73 71 73 71 71 71 72 73 75 77 75 78 79 77 76 76 77 77 76 75 71 72 64 68 68 67 66 67 66 66 67 68 67 67 70

GFSSE_sfc_dewp_060.txt.gz
Dewpoint
69 70 74 74 75 75 76 76 75 75 74 75 75 74 75 75 75 74 73 73 74 73 73 74 74 74 74 75 76 76 75 76 76 75 74 73 74 75 75 73 73 71 73
69 71 75 75 75 75 76 76 75 75 74 75 75 75 75 75 75 75 73 74 73 72 73 73 73 73 74 75 75 75 75 77 76 74 74 74 74 74 73 73 74 72 73
68 72 74 76 75 75 76 75 75 74 75 75 75 75 75 75 74 74 74 73 74 72 73 74 73 73 74 74 75 74 75 75 75 74 74 72 72 74 73 73 73 73 73
70 72 73 76 76 76 75 76 75 75 76 75 75 75 74 74 74 74 74 74 74 74 73 73 74 73 74 74 74 73 73 74 75 73 70 71 70 74 73 72 73 73 73
71 72 73 76 76 76 76 75 75 75 75 75 75 75 74 74 74 74 74 73 73 73 73 73 73 73 73 73 73 73 74 75 74 71 70 70 71 72 73 73 73 73 73
70 72 75 75 75 74 74 75 76 75 75 75 75 74 74 74 74 73 74 73 73 73 73 73 72 73 73 74 73 73 73 74 73 71 71 73 72 73 73 73 71 73 73
71 73 74 77 77 76 76 75 75 75 75 75 75 74 75 74 74 73 73 73 73 73 73 73 72 72 73 73 73 73 74 74 71 71 71 72 72 74 73 73 73 73 72
73 74 74 76 76 76 75 75 75 75 75 75 75 75 74 74 73 74 73 73 73 73 73 72 72 72 73 72 72 74 74 73 71 71 71 72 74 74 73 73 73 71 71
73 73 74 73 75 75 75 75 75 75 75 75 75 75 75 74 74 73 73 72 72 72 73 73 72 72 71 72 72 74 74 73 71 71 71 72 75 74 73 72 70 73 72
72 73 73 73 73 74 74 75 75 75 75 75 74 74 74 73 73 73 74 74 72 72 72 73 73 73 72 73 74 73 74 72 70 71 72 73 73 72 72 73 73 71 71
70 72 72 73 73 73 73 73 75 75 75 75 74 74 74 71 71 71 73 73 72 73 73 73 73 74 73 73 72 71 72 70 71 71 72 74 74 73 73 73 73 72 72
69 70 71 72 72 72 72 73 73 73 73 73 73 73 72 71 71 71 72 73 72 72 73 73 69 72 71 70 71 72 72 69 71 71 72 75 74 73 71 72 73 72 72
68 69 69 71 71 71 72 73 73 73 73 73 72 71 71 71 71 71 71 71 71 72 72 71 67 67 68 70 71 70 68 69 71 71 74 75 74 73 73 71 71 72 71
67 67 68 70 70 70 72 72 72 72 72 71 71 71 71 70 68 71 70 68 70 69 68 70 67 67 70 71 70 69 67 70 70 72 74 75 74 73 72 72 72 72 71
65 66 67 70 70 71 72 72 71 71 72 69 68 71 71 71 69 70 71 70 69 71 69 70 67 67 69 69 68 66 67 70 71 72 73 74 74 73 73 72 72 71 71
63 65 68 69 70 71 71 70 69 70 71 70 70 69 70 72 71 70 71 70 70 70 71 69 70 68 68 69 66 66 67 68 70 71 72 73 75 75 73 71 71 71 72
64 66 67 65 68 69 71 70 67 67 69 70 68 65 70 72 71 70 70 70 70 70 69 67 70 69 68 68 65 67 67 67 68 70 71 72 74 74 74 73 71 72 72
65 66 65 65 66 70 68 69 70 69 69 69 70 70 71 72 72 71 70 70 68 69 66 65 67 68 67 65 64 66 68 68 68 69 70 70 71 72 74 74 73 73 71
65 65 64 63 68 69 69 68 68 69 70 69 70 72 72 71 71 71 71 71 70 69 69 66 66 65 65 64 63 64 66 67 68 68 69 69 70 70 70 73 74 74 71
65 66 66 66 68 69 70 66 68 68 69 71 71 72 71 71 70 70 71 70 70 68 66 68 66 64 66 63 61 63 64 64 66 68 68 68 69 70 70 70 72 72 74
65 65 66 66 68 68 69 68 69 67 68 68 72 72 72 72 69 69 71 71 68 66 64 68 65 63 65 64 60 60 60 63 63 64 67 68 69 69 69 70 71 72 71
63 64 66 66 67 68 68 69 68 68 67 68 71 73 72 72 71 70 70 71 69 68 66 69 67 66 64 63 61 62 55 56 62 62 64 66 66 69 69 68 69 70 69
61 65 66 67 68 68 68 69 70 69 68 68 70 71 72 71 71 71 71 71 69 70 69 68 68 67 61 63 63 61 55 55 60 62 61 62 62 68 69 69 69 69 69
60 65 67 67 68 68 67 68 68 67 67 66 68 70 72 72 72 72 72 72 70 70 69 69 70 67 65 62 61 64 62 62 57 56 61 63 61 64 65 66 69 69 69
61 64 68 67 68 68 66 65 67 67 67 67 68 69 71 72 72 72 71 71 71 71 70 69 70 70 69 67 62 63 61 62 64 61 58 60 61 62 63 64 64 66 65
62 63 68 68 67 68 67 66 66 67 67 68 67 69 70 72 72 72 71 72 71 71 70 70 70 68 69 70 67 67 62 61 63 63 61 60 59 59 63 63 63 65 65

GFSSE_sfc_dewp_063.txt.gz
Dewpoint
68 70 74 75 75 75 75 74 74 74 75 74 74 75 75 74 73 73 73 73 73 73 74 75 74 75 75 75 75 74 74 74 74 74 74 74 74 73 74 73 73 70 73
69 71 75 75 75 75 75 75 74 74 75 74 75 75 75 75 74 73 74 72 73 73 73 73 74 74 75 75 75 75 75 75 75 74 74 74 74 73 73 73 73 71 72
69 72 74 76 75 76 76 75 74 75 75 74 75 75 75 74 74 73 74 73 72 74 73 73 73 74 74 75 75 75 75 75 75 74 74 72 71 74 73 73 73 71 70
70 73 74 76 76 76 75 75 74 75 75 74 75 74 74 74 73 74 73 74 73 72 73 73 73 73 74 74 74 74 74 74 73 74 71 71 71 73 72 72 73 72 72
72 73 74 76 76 75 75 75 75 75 75 75 75 74 74 74 74 74 73 73 73 72 72 73 72 73 73 73 73 73 74 74 73 71 70 71 71 70 74 73 72 73 72
72 72 75 75 75 75 75 75 74 75 75 75 74 74 74 73 73 73 73 73 73 72 72 72 73 73 73 73 73 74 74 74 73 72 72 73 72 72 72 71 73 72 70
71 73 73 76 75 74 74 75 75 75 74 74 74 74 74 73 73 73 73 73 73 73 72 72 72 73 73 73 73 74 74 74 71 71 71 72 72 73 73 73 73 70 70
72 73 73 75 75 75 75 75 75 75 75 74 74 74 74 73 73 73 73 73 73 72 72 72 73 73 72 73 74 74 74 73 72 71 71 72 74 74 73 73 71 71 70
73 73 74 74 75 75 75 75 75 75 74 74 74 74 73 73 73 73 73 73 73 72 72 72 72 72 72 73 73 74 73 73 71 71 72 73 74 73 73 70 72 73 72
73 73 73 73 73 73 74 75 75 75 74 74 74 74 73 73 73 72 74 74 73 72 72 72 71 72 73 74 73 74 73 73 70 71 72 72 74 71 72 72 71 70 71
72 72 72 73 73 73 73 74 75 75 74 74 73 73 73 71 71 71 72 73 73 73 73 72 72 73 73 72 73 74 73 71 71 71 72 74 74 73 73 73 72 72 71
71 71 72 72 72 73 73 73 73 73 73 73 73 71 71 70 71 71 72 72 72 73 73 72 72 72 71 70 71 72 71 70 71 71 72 74 73 71 71 73 73 71 72
70 71 71 71 72 72 72 72 72 72 72 72 72 71 71 71 71 71 71 71 71 73 72 68 67 67 69 70 70 70 69 70 71 71 73 74 74 72 71 71 71 72 71
69 70 70 71 71 71 72 72 72 72 72 71 71 70 70 70 70 70 70 69 70 68 68 69 66 68 70 70 69 68 69 70 70 72 73 75 74 73 72 71 72 71 70
68 68 69 71 70 70 71 71 71 71 72 70 70 70 71 69 68 69 69 68 69 70 68 68 66 67 68 69 67 67 68 70 71 72 72 73 74 73 72 71 71 71 71
66 67 68 70 70 70 71 70 71 71 71 70 69 70 70 70 69 70 70 69 70 69 69 68 68 67 67 68 67 67 68 70 71 72 72 72 73 73 72 71 71 71 71
65 66 68 69 70 70 70 70 69 69 71 70 68 68 70 71 70 69 69 70 69 68 69 69 69 68 67 67 65 66 67 68 70 71 72 72 73 73 73 71 71 71 72
64 66 68 68 69 70 70 70 68 68 69 69 69 68 70 71 71 69 69 69 68 70 68 66 67 68 66 65 64 66 67 67 68 70 71 71 72 73 73 74 73 72 71
64 67 66 67 67 69 69 69 69 68 69 69 69 70 70 71 71 70 69 70 68 68 65 64 66 66 65 64 64 65 67 68 68 68 69 69 70 71 70 73 75 74 72
65 66 66 66 67 69 68 68 68 69 70 70 70 71 72 71 71 70 70 69 69 66 66 66 65 64 65 63 62 63 64 65 68 68 68 68 69 69 69 69 70 72 73
65 65 64 64 68 69 67 66 68 67 68 69 71 72 71 70 69 69 70 70 68 66 64 66 63 63 65 63 60 60 60 63 64 66 68 68 68 69 70 69 70 71 71
64 64 64 64 68 69 67 67 68 67 68 69 71 72 71 71 69 69 70 70 67 65 66 68 66 66 64 62 59 60 54 55 61 62 64 66 67 69 69 69 69 70 70
64 64 65 64 67 68 68 68 68 68 67 68 70 71 71 72 71 69 70 70 69 68 68 68 67 64 59 62 63 59 54 54 59 61 61 63 64 66 68 69 68 68 68
63 64 65 65 67 67 67 68 68 66 65 66 68 70 71 72 71 71 71 71 69 70 68 68 69 66 62 61 61 64 61 61 56 55 60 62 61 62 66 68 68 69 69
62 64 65 66 66 67 67 67 67 66 66 66 67 69 70 71 71 72 71 71 69 70 69 69 70 68 66 66 59 62 60 62 62 59 57 59 61 62 64 65 66 66 68
61 63 65 66 66 67 66 66 67 67 67 67 66 68 69 71 71 71 71 71 71 70 70 69 70 68 68 68 66 64 61 61 62 62 60 60 59 60 62 63 63 64 65

GFSSE_sfc_dewp_066.txt.gz
Dewpoint
67 70 74 74 74 74 73 73 74 75 74 74 74 74 74 73 73 73 73 73 74 75 75 74 75 75 75 74 75 74 74 74 75 74 74 74 74 74 73 72 73 69 72
69 71 74 75 75 74 74 73 74 75 74 74 75 74 73 73 73 74 73 72 73 73 74 74 74 74 75 75 75 75 75 75 74 74 74 73 73 73 73 73 72 71 73
69 72 73 76 75 74 74 73 74 74 74 75 74 74 74 74 73 73 72 72 74 73 73 73 74 74 74 75 75 75 75 75 74 74 74 72 72 73 73 72 70 70 72
70 73 73 76 76 75 74 74 75 74 74 75 75 74 74 74 74 73 74 72 73 73 73 73 73 74 74 74 75 75 74 74 74 74 72 73 70 72 73 73 73 70 69
72 73 73 76 75 75 75 74 75 74 74 74 74 74 74 74 74 74 73 73 72 73 73 73 73 73 73 73 74 74 74 74 74 72 72 72 71 73 73 73 73 71 71
72 73 75 75 75 75 75 75 75 75 75 74 74 74 73 73 73 73 73 73 73 72 73 73 73 73 73 73 73 73 74 73 73 73 73 73 72 71 73 73 71 70 72
71 73 74 76 75 75 75 74 74 74 74 74 74 74 73 72 73 73 72 73 72 72 72 73 72 72 72 73 73 74 74 74 72 73 72 73 73 74 73 73 70 69 71
72 73 73 75 74 74 75 75 74 74 74 74 74 73 73 73 73 73 73 73 72 72 73 72 72 73 73 73 74 74 74 73 72 72 73 73 74 74 73 71 71 71 71
73 73 74 73 74 75 75 75 74 74 74 74 73 74 73 73 72 72 73 73 72 72 73 72 72 73 73 74 74 74 74 73 71 72 72 73 73 73 70 72 73 72 71
73 73 73 73 73 73 74 75 74 74 74 74 74 73 73 73 73 73 73 74 72 72 73 72 72 73 74 74 74 73 73 73 71 72 73 73 74 71 71 71 70 72 71
73 72 72 73 73 73 73 74 74 74 73 73 73 73 73 72 72 72 73 73 72 71 71 71 72 73 73 74 74 73 73 71 71 72 71 73 74 73 73 73 72 71 72
68 72 72 72 73 73 73 73 73 73 73 73 73 72 72 71 72 72 72 73 73 72 71 71 71 73 71 71 74 73 72 71 71 72 72 74 73 72 72 72 72 72 71
68 71 71 72 72 72 72 73 73 73 73 73 72 72 72 72 71 72 72 72 73 73 71 68 67 70 70 71 72 71 70 71 71 72 73 74 73 71 72 71 71 71 71
68 70 71 71 72 72 72 72 72 72 72 71 71 72 71 71 71 71 71 71 71 70 70 69 68 70 70 70 70 70 70 71 71 72 73 74 74 73 70 71 72 70 70
69 70 71 71 71 71 72 72 72 72 72 71 71 71 71 71 70 70 70 70 70 70 70 68 68 69 69 70 69 69 70 70 71 72 73 73 73 72 71 71 71 70 70
69 69 70 70 70 71 71 71 71 71 72 71 70 71 71 71 71 71 71 70 71 70 70 69 69 70 68 69 68 69 70 70 71 72 73 72 72 72 71 70 71 70 70
67 68 68 70 70 70 71 71 71 71 72 71 71 70 70 71 71 71 71 71 71 70 71 70 70 70 68 68 68 68 69 70 70 72 72 72 73 73 72 71 71 71 71
66 67 69 70 70 70 70 71 70 70 71 71 70 70 69 71 71 70 70 71 70 71 70 68 69 69 68 67 67 68 68 68 70 71 71 72 72 72 73 74 74 72 71
66 67 68 69 69 70 70 70 70 69 69 70 70 71 70 71 72 71 71 71 70 70 68 67 68 69 67 66 66 67 68 69 68 67 70 70 71 72 72 73 74 74 72
65 67 68 69 69 69 69 70 70 69 70 70 70 71 71 72 72 71 72 71 70 69 69 68 68 67 67 66 63 65 68 68 69 69 69 68 69 69 69 70 70 70 73
65 67 67 67 68 69 68 67 68 68 69 70 71 72 72 72 71 71 71 71 71 68 68 68 66 68 67 66 65 64 64 64 66 67 69 69 69 69 70 70 70 70 70
65 66 66 67 68 69 68 68 69 68 70 71 71 72 72 72 70 70 71 71 70 67 70 70 69 68 66 65 64 63 59 61 62 64 66 67 68 69 69 70 70 71 71
65 65 65 66 68 69 68 69 69 68 69 69 71 72 72 72 71 71 71 71 70 69 70 70 69 68 64 65 66 64 60 59 61 64 64 64 66 67 68 70 70 70 71
64 65 66 66 68 69 68 68 68 67 66 68 70 71 72 73 72 71 71 71 71 71 71 71 71 69 66 65 65 65 64 64 61 61 63 64 65 63 65 67 68 70 71
64 65 65 66 67 69 68 68 68 67 67 68 70 71 72 73 72 71 72 73 71 71 71 71 71 70 69 68 65 66 65 65 65 62 61 63 64 65 65 67 67 68 69
64 64 65 66 67 68 68 68 68 67 67 67 68 69 70 72 73 72 73 72 72 72 72 71 72 71 71 71 68 66 65 66 65 64 63 63 62 65 65 66 66 67 67

GFSSE_sfc_dewp_069.txt.gz
Dewpoint
67 70 74 74 74 74 73 75 75 74 74 74 74 73 73 73 73 74 74 74 75 75 74 75 75 75 75 74 75 75 75 74 74 74 74 73 73 73 73 72 73 69 73
68 71 75 75 74 74 74 75 75 74 75 75 74 74 73 73 74 73 72 73 74 74 74 75 74 74 75 75 74 74 74 74 74 74 73 73 73 73 73 73 73 71 72
67 71 72 76 74 74 74 74 74 74 75 75 75 75 74 73 73 72 73 73 73 73 74 74 74 74 74 74 74 74 74 74 74 74 73 69 70 73 70 71 72 71 70
67 70 70 76 75 74 74 74 74 74 75 75 75 75 74 73 74 73 73 73 73 73 73 73 74 74 74 74 74 74 75 74 75 73 69 66 68 73 73 72 69 70 71
69 70 72 75 76 74 74 75 75 74 75 74 74 74 74 74 73 73 73 73 73 73 73 73 73 74 74 74 74 74 74 74 74 71 68 72 69 71 73 72 71 72 73
69 69 74 75 75 75 74 75 75 75 75 74 74 73 74 73 73 73 73 73 73 73 73 74 74 73 73 73 73 74 74 73 72 70 70 71 69 73 73 70 72 73 72
68 70 71 76 75 75 75 75 75 75 74 74 74 74 73 73 73 73 72 72 72 73 74 73 73 72 73 73 74 74 73 73 71 71 71 70 71 73 72 70 70 71 71
68 69 71 75 75 75 75 74 74 74 74 74 74 74 73 73 73 72 72 72 72 73 73 73 73 73 74 75 75 74 74 73 70 71 70 71 73 74 71 71 71 71 72
68 70 72 71 73 74 75 75 74 74 74 74 74 73 73 73 73 73 73 72 72 73 73 73 74 74 75 74 74 74 74 73 70 70 69 70 74 71 73 73 72 71 71
69 70 70 70 73 73 73 74 74 74 75 74 73 73 73 73 73 73 74 73 73 73 73 73 73 73 74 74 74 74 73 71 69 71 70 70 73 72 71 71 72 71 72
69 70 71 71 73 74 74 74 74 74 74 74 73 75 73 71 71 71 74 73 72 72 72 72 73 73 74 75 74 73 70 68 68 68 66 73 73 72 73 73 71 72 71
68 70 70 72 72 73 72 75 73 72 71 72 73 74 72 72 72 72 73 73 72 71 72 72 73 72 71 71 71 71 67 69 68 68 68 74 73 72 72 73 72 71 71
67 69 71 73 73 72 74 72 71 71 71 72 74 73 73 71 72 72 72 71 72 70 68 69 68 68 71 70 70 69 68 68 67 68 70 73 72 71 72 71 72 71 72
67 70 71 72 73 73 73 71 72 70 71 70 72 74 73 69 70 71 70 71 71 69 69 68 68 71 71 71 70 70 69 67 67 68 70 72 73 71 70 71 71 71 71
67 69 71 72 74 74 74 73 72 71 70 71 71 73 72 70 71 71 71 70 71 70 69 68 70 70 70 70 70 70 68 68 68 68 68 72 72 71 71 71 71 71 70
68 68 70 71 73 73 73 74 73 71 71 71 71 72 73 72 73 71 70 71 71 71 70 70 70 70 69 68 69 69 68 67 69 70 68 70 72 72 72 71 71 70 71
67 68 70 70 72 73 74 73 71 70 70 70 72 73 73 74 74 73 73 71 71 72 73 73 71 71 68 67 69 68 68 69 68 70 70 70 70 72 72 72 71 70 71
66 69 70 68 70 72 72 73 70 70 71 71 72 71 72 73 74 74 72 75 71 72 70 70 69 68 68 67 68 68 69 69 69 70 70 70 70 68 71 73 74 73 71
67 69 70 70 70 71 73 71 71 72 71 72 72 72 73 72 74 73 72 71 72 70 69 68 69 69 67 66 66 68 69 69 70 66 69 70 70 69 69 70 73 74 73
66 68 69 69 71 72 71 72 70 70 71 71 71 72 72 73 74 73 72 72 72 69 68 68 71 69 68 67 62 65 68 69 70 69 68 68 69 69 68 70 70 69 71
65 67 69 70 72 71 70 69 69 69 70 70 71 73 73 74 74 74 75 72 72 69 70 71 69 70 67 68 66 64 65 66 66 66 67 67 68 68 69 69 70 70 69
65 67 69 70 72 72 70 70 70 70 70 71 72 73 73 74 74 73 74 72 72 68 72 71 71 68 68 67 64 65 59 60 63 64 66 66 67 67 67 69 70 71 71
65 67 69 71 72 72 71 71 71 71 72 71 71 71 72 74 72 73 74 73 72 71 70 72 70 70 65 67 68 64 59 57 62 65 66 65 68 66 67 68 68 70 71
65 67 69 70 71 72 73 71 71 69 68 68 70 70 72 74 73 72 73 73 73 70 73 72 72 71 68 65 67 67 68 66 60 59 63 65 66 65 67 66 66 67 70
64 66 68 70 71 72 73 73 70 71 68 70 70 73 74 75 74 73 73 74 74 72 73 73 73 71 69 67 65 66 68 66 69 64 60 62 65 65 66 66 66 66 68
64 65 67 69 71 72 72 72 72 71 71 69 70 70 70 71 77 74 73 75 75 73 74 73 74 74 73 72 70 69 65 65 65 64 63 66 64 65 66 66 67 66 67

GFSSE_sfc_dewp_072.txt.gz
Dewpoint
67 69 74 73 74 74 75 74 74 74 74 74 74 73 73 74 74 74 74 75 74 75 75 75 75 75 75 75 75 74 74 75 75 74 74 73 74 73 73 73 74 69 73
66 68 75 75 74 74 76 74 74 74 74 74 74 73 73 74 73 73 73 74 74 74 75 75 74 74 75 75 74 74 74 75 75 73 74 74 73 73 74 74 74 69 71
65 68 71 76 74 74 75 75 75 75 75 75 75 74 74 73 73 73 73 73 73 74 74 74 74 75 75 74 74 74 74 74 74 73 74 67 65 71 73 72 70 70 71
64 65 68 76 75 74 75 74 74 75 75 75 75 74 74 74 73 73 74 73 73 73 74 74 74 74 74 75 75 75 75 74 73 72 63 65 67 73 70 70 71 71 71
64 66 72 76 75 74 75 74 74 75 75 74 74 74 74 74 73 73 73 74 73 74 74 74 74 74 74 74 75 74 74 74 73 70 68 66 67 72 71 72 73 72 72
64 65 74 76 75 75 75 75 74 75 75 74 74 74 73 73 73 73 73 73 73 73 74 74 74 73 73 74 74 74 73 72 73 66 65 70 71 71 70 73 73 71 73
63 66 71 76 75 75 75 75 75 75 74 74 74 74 73 73 73 73 73 73 73 73 73 73 73 73 73 74 74 73 73 71 66 69 68 69 72 72 70 71 70 73 73
63 65 70 75 75 75 74 75 75 74 74 74 74 73 73 73 72 73 73 73 73 73 73 73 73 74 74 74 74 74 73 71 67 68 70 69 73 72 72 71 72 73 73
63 66 68 71 74 75 75 74 75 74 74 74 73 74 73 73 73 73 72 73 73 73 73 73 73 74 75 74 74 74 73 70 66 68 67 67 73 73 73 73 71 72 72
64 66 67 66 67 70 71 74 74 74 74 73 74 73 74 73 73 73 75 74 73 73 74 74 73 74 74 74 74 73 72 72 66 66 64 67 73 71 71 72 72 73 71
65 66 63 66 70 74 73 74 74 74 74 74 73 73 72 66 68 69 73 73 73 73 73 73 73 74 75 74 73 72 73 63 62 62 66 73 73 72 73 72 72 71 71
64 64 63 67 68 70 70 73 70 68 66 68 69 70 68 69 71 68 72 72 72 73 73 74 72 71 72 68 68 70 62 64 63 63 68 73 72 72 72 72 72 72 71
64 62 65 68 70 69 72 66 65 66 68 70 71 70 70 68 67 65 68 68 68 70 67 69 68 67 69 66 64 61 63 62 62 62 70 72 72 72 71 72 71 71 72
64 64 65 68 70 70 68 65 66 66 67 66 69 71 70 66 67 67 66 68 68 66 67 68 68 70 71 69 66 64 63 61 61 61 68 73 73 71 71 73 71 70 71
63 65 65 69 71 72 70 66 66 67 65 67 68 70 68 67 69 68 69 67 68 67 67 68 68 69 69 68 67 67 64 66 64 63 64 72 72 71 71 71 70 70 70
64 66 66 68 72 72 70 71 69 67 68 67 67 70 72 69 71 69 69 68 68 67 67 68 69 68 66 66 68 67 66 66 68 68 65 68 72 72 72 70 70 70 71
63 65 67 68 70 71 71 71 68 67 66 67 68 72 72 72 73 73 69 69 68 70 71 70 70 69 64 65 68 67 66 67 67 68 66 66 70 72 73 72 71 70 70
62 66 68 65 68 70 70 70 68 68 67 68 68 69 72 73 72 72 68 68 69 69 68 67 67 64 64 64 65 64 65 65 67 68 66 66 66 65 71 72 73 73 72
64 66 68 68 68 70 72 69 69 71 69 68 68 69 73 72 71 70 69 69 72 68 67 65 66 67 64 63 62 64 65 64 66 63 67 68 67 66 65 72 72 73 73
65 66 68 67 70 71 71 71 68 68 69 69 69 70 72 72 73 73 69 71 69 66 66 66 68 67 65 64 59 61 64 63 65 65 64 63 66 68 66 69 68 68 72
65 65 67 68 71 70 69 67 67 67 68 68 69 72 72 72 73 75 70 71 70 67 69 71 67 68 62 66 61 59 60 63 62 63 63 63 64 65 66 67 67 65 67
64 64 67 69 72 71 67 68 68 68 68 68 69 72 71 72 73 72 72 70 70 66 71 71 70 62 62 65 60 60 57 58 59 59 62 62 63 63 64 65 68 70 69
63 64 67 70 72 71 70 70 72 71 73 75 71 70 71 73 73 73 74 70 72 69 65 70 69 69 60 65 68 60 57 55 58 59 62 60 65 63 64 64 66 68 70
63 65 67 70 72 72 73 71 72 67 65 65 68 68 71 73 72 72 73 73 74 68 71 70 69 69 69 60 62 64 69 67 59 56 57 60 61 59 63 62 61 63 68
63 64 66 71 72 72 73 72 70 71 66 68 67 75 73 75 73 72 73 74 74 70 72 72 73 73 66 62 61 63 67 65 68 60 54 56 58 59 61 62 62 63 67
63 64 66 70 73 73 73 74 73 72 71 66 68 76 68 72 71 73 72 74 74 73 72 71 73 73 71 68 64 66 63 63 61 61 58 61 59 61 61 63 64 66 66

GFSSE_sfc_dewp_075.txt.gz
Dewpoint
69 69 74 73 74 74 74 74 74 74 74 74 73 73 74 74 74 74 75 75 75 76 75 75 75 75 75 74 74 74 75 74 75 74 74 74 74 73 73 72 73 69 73
67 69 75 75 74 75 74 74 74 74 74 74 73 73 74 73 72 73 74 74 75 75 75 75 75 75 75 74 74 74 74 74 75 74 73 74 73 73 73 72 72 71 73
65 68 71 75 74 76 74 74 74 75 74 74 74 74 73 73 74 73 73 74 74 75 74 75 75 75 75 74 74 74 74 73 74 74 71 61 67 72 70 70 71 72 73
62 64 66 75 75 75 74 74 74 74 74 74 74 74 74 74 74 74 73 74 74 74 74 74 74 74 75 74 75 74 73 72 71 73 67 64 62 70 72 73 72 73 73
61 64 71 76 74 75 74 75 74 74 74 74 74 74 74 73 73 74 74 73 74 74 74 74 74 74 74 74 74 74 73 71 71 68 66 67 64 71 73 72 71 73 73
64 66 73 75 74 75 75 74 75 74 74 74 74 74 74 73 73 73 74 73 74 74 74 74 73 74 74 74 74 73 72 71 72 64 67 68 66 72 73 71 73 73 72
65 67 71 76 75 75 74 74 74 74 74 74 74 74 73 73 73 73 73 74 74 74 74 74 73 74 74 74 73 73 71 72 69 71 67 67 68 72 71 73 73 73 72
61 65 70 75 75 75 74 74 74 74 74 74 73 73 73 73 73 73 73 74 74 74 74 74 74 74 74 74 73 72 72 72 69 69 67 66 73 72 71 72 73 72 72
64 64 68 70 74 74 74 74 74 74 74 74 74 73 73 73 73 73 74 73 73 73 73 73 73 74 74 74 73 72 71 74 68 71 64 68 73 73 72 71 73 73 72
64 63 66 67 66 70 71 74 74 74 74 74 73 73 74 73 73 74 75 73 73 73 73 74 74 74 74 73 72 71 72 72 65 65 66 70 73 71 71 73 72 71 72
64 61 60 62 68 73 72 73 73 74 74 74 72 73 73 69 69 70 74 73 74 73 73 74 75 74 74 73 72 72 73 63 60 64 67 73 74 73 72 71 71 71 71
62 57 60 65 66 69 66 73 70 69 69 69 69 73 73 71 68 68 72 73 73 73 73 73 74 74 73 66 65 71 63 60 61 64 69 74 73 72 73 72 72 73 71
58 57 64 67 71 70 68 64 64 65 64 66 73 72 71 66 67 65 69 69 70 73 68 70 72 71 70 63 59 58 60 60 60 64 70 73 72 71 72 71 71 71 71
58 59 62 65 72 71 64 63 69 65 67 68 70 73 68 64 66 71 69 67 72 70 67 70 67 72 66 65 61 60 59 58 58 62 71 73 72 71 73 71 70 70 71
58 60 63 66 74 74 67 65 71 64 67 64 70 73 72 70 71 71 71 69 70 69 66 68 70 71 68 67 64 63 62 62 61 62 64 73 72 71 70 70 70 70 70
59 61 64 67 72 70 69 71 74 71 64 70 69 69 72 68 73 67 67 70 70 71 72 71 72 71 70 64 67 67 68 65 66 68 65 68 73 72 71 70 70 69 70
60 63 64 66 68 70 70 69 72 70 67 68 70 71 70 73 72 71 67 71 71 70 71 69 68 69 66 65 68 67 64 69 64 69 65 68 69 73 72 71 70 70 70
59 64 65 62 66 67 69 68 72 70 70 72 72 71 71 71 72 73 67 70 67 69 70 72 71 69 69 67 70 69 63 63 65 64 63 66 69 67 72 73 73 73 71
60 65 65 65 66 67 70 68 72 72 72 72 74 72 72 71 71 71 70 68 74 74 72 68 69 69 69 65 62 67 64 64 66 60 64 64 64 64 67 74 73 73 73
63 65 66 65 69 70 69 70 69 66 72 74 74 74 71 73 71 71 68 70 74 70 70 69 72 68 69 67 60 60 64 60 61 61 62 61 64 65 63 67 70 69 74
63 64 66 67 71 69 67 65 65 70 73 73 74 71 72 74 72 73 68 70 73 70 71 69 67 68 63 64 68 60 59 60 60 59 60 60 62 62 63 64 66 65 70
63 64 67 68 72 70 68 70 66 71 71 73 73 71 71 71 73 71 74 70 73 67 71 69 73 71 64 64 67 64 57 57 56 57 59 58 61 60 60 64 64 68 68
63 63 66 69 71 72 72 69 69 69 72 71 72 68 70 72 71 72 73 76 71 73 66 70 68 72 69 61 70 63 62 60 58 59 61 59 63 60 60 62 63 66 68
62 61 66 69 71 71 72 72 74 68 68 65 70 73 69 72 71 71 72 72 73 71 73 69 65 73 69 62 59 60 68 67 68 54 56 58 59 59 61 60 61 62 67
61 62 66 70 73 73 73 75 70 72 68 67 72 73 74 74 72 71 73 73 73 71 73 73 72 73 64 63 62 61 66 61 65 62 54 56 57 58 59 61 60 61 65
60 61 65 71 73 73 72 73 74 73 73 72 71 69 68 67 69 72 72 73 74 75 73 70 73 72 73 71 67 65 67 66 64 58 56 61 58 60 59 61 63 63 64

GFSSE_sfc_dewp_078.txt.gz
Dewpoint
68 70 75 75 75 75 75 75 75 75 74 73 73 74 73 74 75 76 76 77 77 77 76 76 76 75 75 75 75 75 74 75 75 75 74 74 73 73 73 74 74 70 73
68 70 76 76 75 75 75 75 74 74 74 73 74 75 73 73 74 75 75 75 76 76 75 75 75 75 75 75 74 74 74 75 75 75 74 74 73 71 73 73 73 72 71
67 70 72 76 75 74 75 75 75 75 74 74 75 74 73 74 73 74 75 75 75 75 75 75 75 75 75 75 74 74 74 74 75 74 71 67 66 71 71 73 73 73 72
66 68 69 76 76 74 75 75 75 74 74 74 74 74 75 75 74 74 74 74 75 75 75 75 75 75 75 75 74 73 73 73 72 73 66 61 68 73 73 73 73 73 72
63 65 71 76 76 74 75 74 75 74 74 74 74 74 74 75 74 73 74 74 75 75 75 74 75 75 74 74 73 73 73 74 74 70 66 67 70 72 72 73 73 73 73
64 66 74 76 75 75 75 75 75 74 75 75 74 74 74 73 74 74 74 74 74 74 74 74 74 75 74 73 73 73 74 74 73 67 66 69 71 72 73 73 72 73 72
65 67 71 76 76 76 75 74 74 74 75 74 74 74 74 73 73 74 74 74 74 74 74 74 74 74 74 73 73 74 74 75 70 68 67 68 70 73 73 73 73 73 72
64 66 70 75 75 75 74 75 75 74 74 74 75 73 73 73 74 74 74 74 74 74 74 74 74 74 74 73 73 73 73 74 68 68 70 70 73 72 73 73 72 72 71
65 68 70 71 74 75 75 75 74 75 74 74 74 73 74 74 74 74 74 74 73 73 73 73 74 74 74 73 72 72 73 75 70 68 68 71 74 73 72 73 73 73 72
66 66 68 69 69 71 72 74 74 74 74 74 73 73 75 75 74 73 74 75 73 73 73 74 74 74 73 72 72 71 72 74 65 68 69 71 73 72 73 71 71 71 73
66 66 63 67 71 74 73 73 74 74 74 74 73 72 74 72 70 71 74 75 74 74 74 74 74 73 73 73 73 72 72 71 66 68 71 74 74 72 71 71 71 71 70
62 61 64 69 70 70 65 73 72 71 70 72 72 74 74 72 71 71 73 75 73 74 74 75 74 73 72 68 70 73 71 64 67 68 71 75 74 72 72 72 73 72 70
60 65 67 71 71 70 71 72 70 71 71 72 74 74 73 70 71 70 72 71 72 73 71 73 73 73 71 71 67 65 63 64 65 67 73 75 73 71 71 71 71 71 71
64 65 67 70 70 71 70 68 68 69 68 71 72 74 75 73 70 72 72 72 73 72 71 72 72 71 70 68 64 63 61 63 66 69 73 74 73 72 73 70 70 70 70
61 64 69 71 74 75 70 73 69 69 68 69 72 74 74 68 73 72 71 73 69 71 71 72 72 72 68 67 67 68 64 66 64 67 71 75 74 72 71 70 70 70 70
58 64 70 70 73 73 72 69 72 70 71 71 73 74 74 71 76 72 70 73 72 70 73 71 74 69 70 69 68 68 68 67 70 66 68 73 74 74 72 71 70 69 70
58 66 68 70 71 73 74 73 70 73 70 69 73 73 73 74 74 73 74 70 71 75 75 73 73 74 69 68 70 71 68 69 68 69 68 68 72 75 74 73 72 70 70
61 67 67 65 68 71 73 75 74 72 71 72 74 73 72 74 74 70 74 71 72 75 74 69 73 68 70 67 71 71 69 69 68 69 69 69 69 68 74 74 74 73 72
64 68 67 68 68 70 74 74 72 73 73 74 73 74 76 75 75 73 72 71 73 74 73 68 71 71 70 70 67 69 68 68 68 64 67 69 69 70 70 75 75 75 73
65 68 68 69 72 74 72 76 72 72 72 72 73 72 75 75 75 77 72 75 76 75 71 71 73 71 68 66 62 63 68 68 69 68 67 66 68 68 69 71 73 72 75
64 67 69 72 74 72 71 70 70 71 73 73 77 74 74 73 76 77 75 75 75 71 67 76 74 71 71 69 72 68 68 65 64 67 66 66 67 68 68 69 73 72 71
64 67 70 73 74 73 71 74 69 74 74 73 75 75 74 74 76 75 75 74 73 74 75 74 73 70 72 68 69 69 63 66 64 62 66 64 66 66 66 68 69 70 72
65 67 70 73 74 73 75 75 73 71 72 70 72 75 74 75 75 76 76 77 69 76 74 74 73 70 72 68 70 70 64 63 67 66 65 66 66 68 67 67 69 71 71
66 67 70 72 74 73 75 74 76 72 71 73 73 74 74 75 75 73 76 77 75 72 71 75 72 72 72 71 69 67 69 70 68 64 66 65 68 62 66 69 67 70 71
64 64 69 71 74 73 75 77 74 75 74 73 73 73 75 77 75 73 75 77 74 73 70 75 75 75 75 70 65 71 70 71 70 70 63 64 67 66 67 68 68 68 70
64 62 68 71 74 75 74 75 76 74 71 70 74 71 75 73 74 74 74 77 76 72 74 71 75 75 76 76 74 73 72 69 69 68 66 65 66 67 67 67 68 70 70

GFSSE_sfc_dewp_081.txt.gz
Dewpoint
69 72 75 75 75 75 75 75 74 74 74 74 74 74 74 75 76 77 77 76 76 76 76 76 76 76 75 75 75 75 75 76 76 74 73 72 74 75 74 73 71 69 74
70 72 76 76 75 74 74 74 74 74 74 75 75 73 73 75 75 75 76 75 75 76 75 75 75 74 74 74 75 75 74 76 76 75 72 71 71 73 74 73 72 72 73
70 72 73 76 75 74 75 76 75 75 74 75 74 74 74 73 74 75 75 75 75 75 75 75 75 75 74 74 74 73 74 75 75 72 70 68 69 73 73 73 72 73 73
70 72 74 76 76 76 76 76 75 74 74 74 74 75 75 74 75 74 75 75 75 75 75 75 75 74 74 74 74 73 73 74 74 70 68 69 69 73 73 73 73 72 72
69 71 74 77 76 75 75 75 74 74 74 74 74 74 74 74 74 74 75 75 75 75 74 75 75 74 74 74 73 74 73 74 73 70 69 69 70 72 73 72 73 72 73
68 72 76 76 75 75 75 75 75 74 75 74 74 74 73 74 74 74 74 75 75 74 75 75 74 74 74 74 74 75 75 74 70 67 70 72 69 73 72 73 73 71 72
70 72 74 77 76 75 75 75 75 75 74 74 74 74 74 74 74 75 75 74 74 74 74 75 74 74 74 74 74 75 75 72 67 67 68 69 72 74 73 72 73 71 71
69 72 72 75 76 75 75 75 75 74 74 74 74 73 74 74 74 74 74 74 74 74 74 74 73 73 74 74 74 74 74 72 70 70 70 71 73 74 72 72 71 72 71
69 71 73 73 73 75 75 75 75 74 74 74 74 74 74 74 74 74 74 74 74 75 75 74 74 73 74 74 74 75 74 72 69 70 70 72 74 74 72 73 73 72 71
69 70 70 72 72 72 73 74 75 74 74 74 74 73 74 74 74 74 76 75 74 74 74 74 74 73 73 73 73 74 74 72 67 68 70 72 74 74 71 72 71 73 71
68 69 69 70 71 72 72 73 74 74 74 74 73 72 74 71 70 72 75 75 74 74 74 73 72 72 71 71 74 75 73 69 69 70 72 74 74 71 71 71 70 70 70
66 68 68 69 71 71 71 72 73 72 72 72 70 71 71 71 70 72 73 75 74 74 74 73 72 71 72 69 70 74 71 68 69 71 72 75 74 72 72 73 72 70 70
66 68 69 68 69 68 70 71 71 71 72 72 69 70 71 72 72 72 72 72 72 73 72 73 72 73 71 70 69 69 67 67 67 69 73 75 74 72 71 71 71 71 71
65 68 69 69 68 69 72 72 70 70 70 69 70 72 71 71 70 70 72 72 72 70 69 70 71 72 72 70 69 62 63 66 69 70 73 74 74 73 71 70 71 71 70
65 68 67 66 68 70 68 69 69 69 68 69 69 72 71 71 70 70 70 70 72 69 68 69 70 70 66 65 65 64 63 66 69 71 72 73 74 74 71 71 71 70 70
67 67 69 70 70 69 68 68 67 70 68 69 72 71 71 71 71 65 69 71 69 71 70 70 69 68 67 64 64 64 64 65 65 69 72 73 74 74 72 71 70 70 71
67 68 69 69 70 69 69 65 68 69 69 70 70 65 70 70 70 71 69 70 70 70 68 70 70 70 67 67 66 65 65 65 64 66 69 71 73 74 73 72 72 71 70
67 67 68 67 69 68 69 68 70 70 71 71 73 70 71 69 67 67 71 68 70 71 67 69 69 67 67 65 65 67 65 66 64 66 67 68 70 70 74 74 74 73 72
66 66 66 66 68 67 69 71 69 71 72 71 72 72 72 72 71 70 72 67 71 72 70 68 68 68 67 66 66 67 66 66 63 66 67 68 68 69 70 74 75 75 73
65 63 66 66 69 67 69 69 70 71 70 71 71 70 71 72 72 71 70 70 72 70 68 67 67 68 66 65 63 62 64 66 66 66 64 67 69 69 69 70 73 73 75
65 64 68 67 71 67 69 70 69 68 69 71 72 71 72 69 72 72 71 70 70 69 68 65 69 65 68 64 66 64 66 64 65 65 65 65 65 69 69 69 71 70 70
64 65 69 70 70 68 68 70 69 69 71 71 72 72 72 71 72 72 71 70 69 70 71 69 68 68 68 66 63 65 61 60 61 61 64 64 63 65 66 66 70 70 69
64 67 69 69 70 70 69 71 70 71 70 68 69 71 73 72 72 72 69 72 69 71 70 68 67 65 68 63 62 65 62 61 61 61 61 61 60 64 65 66 65 66 67
64 67 69 71 71 69 71 70 68 68 69 69 69 71 73 73 71 72 72 72 69 68 68 71 71 69 69 65 65 66 65 65 63 57 62 60 61 63 61 63 67 66 67
65 66 68 72 71 67 70 71 70 68 71 70 71 72 72 72 72 72 71 72 70 69 69 69 69 70 70 69 66 67 65 68 67 65 56 57 62 63 61 64 65 65 66
64 65 67 71 70 70 70 71 70 69 65 65 68 69 71 72 72 71 72 72 72 70 70 69 69 69 69 71 71 68 68 63 65 65 61 59 59 61 62 63 63 65 68

GFSSE_sfc_dewp_084.txt.gz
Dewpoint
70 72 76 75 75 75 75 74 74 74 74 74 73 75 75 76 76 76 76 76 76 76 75 75 75 75 72 72 74 75 74 74 74 73 73 74 74 74 72 72 74 71 73
71 73 76 75 75 74 74 74 74 75 75 73 74 74 75 75 75 75 75 75 75 76 75 74 74 74 74 74 74 74 74 75 75 72 72 73 74 73 72 74 74 72 72
71 73 74 76 74 75 75 75 74 75 74 74 75 74 74 75 75 75 75 75 75 75 75 74 74 74 74 73 74 73 74 74 72 71 72 70 70 73 72 73 74 73 73
72 73 74 76 76 76 75 75 74 75 75 75 75 75 74 75 75 75 75 75 75 75 75 74 74 74 73 72 73 73 74 74 72 72 70 70 70 73 73 72 72 73 74
72 74 73 76 77 75 75 74 74 75 75 74 74 75 74 74 75 75 75 75 75 75 76 75 74 74 73 73 72 73 75 74 73 71 69 70 71 72 73 72 72 72 73
73 74 75 75 75 75 75 74 75 75 74 74 74 74 74 74 75 75 75 75 75 75 75 74 74 74 74 73 75 75 73 74 73 70 70 72 71 72 73 72 71 72 71
73 74 73 76 75 75 75 75 75 74 74 74 74 74 74 74 75 75 74 74 74 75 75 74 74 74 73 75 75 74 72 71 68 68 70 71 72 73 73 72 71 71 71
72 74 73 75 75 75 75 75 75 74 74 74 74 74 74 74 75 74 74 74 74 75 74 74 74 74 73 74 75 75 72 70 69 70 70 71 74 72 72 72 73 71 71
72 72 73 73 74 75 75 74 74 74 74 74 74 74 74 74 74 74 75 75 74 75 74 73 73 73 74 74 76 75 73 72 70 70 70 71 75 72 73 72 71 71 71
71 73 73 72 73 73 73 74 74 74 74 74 73 74 74 74 74 74 75 75 74 74 74 73 73 73 73 74 75 75 73 72 68 71 72 72 74 71 72 72 72 71 71
70 71 72 72 72 72 72 73 74 74 74 73 73 74 73 71 71 72 75 74 73 73 73 73 73 73 72 72 74 75 72 70 70 70 70 74 72 70 71 70 69 70 70
69 70 70 70 71 72 72 72 72 71 72 72 71 72 71 70 70 72 74 74 73 73 72 72 72 72 72 68 70 73 69 69 70 71 73 74 73 72 72 71 70 69 69
68 68 69 70 71 71 72 72 72 71 71 68 69 69 70 72 72 72 72 72 72 72 71 72 71 71 70 70 68 69 70 69 70 71 73 74 74 71 72 72 72 71 71
66 67 69 69 70 68 71 71 70 70 70 69 68 70 70 70 70 70 71 71 71 70 70 70 70 71 71 71 70 67 66 66 68 71 73 74 74 71 70 70 71 70 70
66 68 68 69 69 70 71 70 69 69 69 69 71 72 71 68 68 70 70 70 72 68 67 69 70 70 66 65 65 64 65 67 69 71 71 72 74 73 70 70 70 70 70
67 68 66 66 68 70 70 68 68 69 67 69 70 71 70 70 69 68 68 70 70 69 68 69 69 68 66 64 63 64 65 67 69 70 71 71 74 74 72 71 71 71 72
67 67 68 69 68 67 66 67 68 68 69 70 70 69 71 71 70 68 68 69 69 68 69 69 69 68 66 66 65 64 65 66 68 70 72 72 72 73 72 72 71 71 70
67 67 68 67 67 66 65 68 68 70 71 71 71 70 70 71 70 69 69 68 70 71 68 69 67 67 66 64 65 66 65 65 66 66 69 69 70 71 73 73 74 73 71
66 67 67 68 67 68 68 69 69 71 71 71 71 71 71 71 66 69 70 68 71 70 67 67 66 67 67 65 65 66 66 65 64 65 66 67 68 69 70 72 75 75 73
67 66 66 67 67 68 70 69 70 69 70 71 70 70 71 72 72 70 69 69 72 70 68 66 68 68 65 64 63 62 65 65 65 66 67 67 67 68 68 69 71 73 75
65 66 65 67 67 67 69 69 69 68 67 70 71 69 70 70 72 70 71 70 69 68 67 68 66 65 66 65 65 63 65 65 64 65 65 67 68 68 68 69 69 71 70
63 66 67 68 67 66 67 69 68 69 70 70 71 70 71 71 71 72 71 69 69 69 68 69 67 67 67 66 62 63 59 59 61 61 65 64 65 68 69 68 69 69 69
63 67 67 69 66 66 68 70 70 70 68 68 69 70 72 71 72 70 70 70 69 70 69 68 66 65 66 63 62 63 61 59 60 60 61 64 63 64 66 66 67 70 69
63 68 68 69 68 67 70 68 68 68 67 67 68 70 72 72 71 72 71 70 69 68 68 70 70 69 67 65 64 65 65 64 59 54 59 61 60 62 63 64 65 65 66
64 67 67 68 69 69 70 69 67 67 70 69 70 69 71 71 71 71 72 70 68 68 68 68 69 68 70 68 66 67 66 67 66 61 55 56 60 62 62 62 63 65 65
64 66 69 69 68 67 69 70 69 68 68 67 68 69 71 71 71 72 71 71 71 70 69 67 68 68 68 69 69 67 66 63 65 65 60 57 58 58 62 62 63 65 66

GFSSE_sfc_dewp_087.txt.gz
Dewpoint
69 73 75 75 75 75 74 73 73 74 74 74 75 75 76 76 75 75 75 75 75 75 75 74 72 72 72 73 73 73 73 73 73 73 73 73 71 72 73 73 73 69 73
71 73 75 75 75 73 73 73 73 75 73 73 75 75 75 75 75 75 75 75 75 75 74 74 74 72 74 74 74 74 74 73 73 72 73 73 72 73 73 73 71 70 73
72 73 74 75 73 74 75 74 74 73 73 73 74 75 75 75 75 75 75 75 75 75 74 74 74 73 74 73 73 73 73 72 71 72 73 71 69 72 73 73 73 72 73
72 73 74 75 76 75 75 74 74 74 74 74 73 74 74 75 75 75 75 75 75 75 74 74 73 73 73 73 72 72 71 72 72 72 70 71 71 72 71 73 73 73 73
73 73 73 75 75 75 75 74 74 74 74 74 74 74 74 74 74 75 75 75 75 75 74 74 73 72 72 71 71 71 72 73 72 71 70 71 70 71 72 73 72 73 73
73 73 75 75 75 75 74 74 74 74 74 74 74 73 74 74 75 75 75 75 75 74 74 74 74 73 72 72 72 73 73 73 72 70 71 71 70 72 71 72 71 71 72
73 73 74 75 75 75 74 74 74 74 74 74 74 74 74 74 74 75 74 75 75 74 74 74 73 73 73 74 73 73 73 72 69 70 71 71 71 73 71 70 70 70 72
73 73 73 75 75 74 74 75 74 74 74 74 74 74 74 74 75 74 74 75 75 74 73 74 73 73 74 73 73 71 71 71 70 70 71 72 73 72 72 71 70 70 70
73 73 73 73 73 75 75 74 74 74 73 73 74 74 74 74 74 74 74 74 74 73 73 74 73 73 74 74 73 72 70 71 70 70 70 71 74 72 72 71 70 71 71
72 73 72 72 73 73 72 74 74 73 73 73 73 74 74 74 74 74 74 75 74 73 73 73 73 72 73 74 73 73 72 72 70 71 71 72 73 73 72 71 70 70 70
72 71 71 72 72 72 72 73 73 73 73 73 73 74 73 71 72 73 74 73 73 73 72 73 72 72 73 74 73 73 71 70 70 70 71 73 72 70 70 69 70 70 70
69 70 71 71 71 71 72 72 71 72 71 71 72 71 70 70 71 73 73 73 73 73 72 72 71 71 70 69 71 71 69 70 70 70 71 73 72 71 70 69 69 69 69
69 70 70 70 71 71 71 72 71 70 70 69 70 70 69 71 72 72 72 72 72 72 71 71 71 71 70 68 67 70 69 70 70 71 73 75 72 71 73 72 70 70 70
68 68 69 70 70 69 71 71 70 70 69 67 68 69 70 70 70 70 71 71 71 70 69 69 69 70 71 70 70 68 68 68 69 71 72 73 73 70 70 70 70 69 69
67 68 69 69 70 69 71 70 70 70 69 69 70 70 70 68 68 69 70 70 71 68 67 68 69 69 66 67 70 67 66 67 68 71 71 72 73 72 70 69 70 70 70
66 68 68 69 69 69 70 69 69 69 68 69 70 71 70 67 68 68 68 69 69 69 68 68 69 68 65 64 66 65 66 67 68 70 70 70 72 74 72 71 71 71 71
67 68 67 68 68 69 69 69 68 68 68 70 69 70 70 70 68 66 67 68 68 68 69 69 69 67 65 65 64 64 66 67 68 69 70 71 71 73 72 71 71 71 71
67 67 67 68 68 66 67 68 68 69 70 70 68 69 70 71 70 69 68 68 70 70 68 68 67 66 66 64 65 65 65 66 66 68 70 70 70 71 72 73 73 73 72
67 66 68 67 66 65 67 68 68 70 70 71 69 70 69 71 69 69 69 68 70 70 66 67 66 67 67 64 64 65 65 65 64 65 66 67 67 69 69 71 74 75 73
67 67 68 66 67 66 68 69 69 69 70 70 70 70 71 72 68 70 70 67 71 69 68 66 67 67 65 64 63 63 62 66 65 65 66 66 66 66 68 68 68 71 74
66 66 67 66 67 68 68 68 68 67 67 70 70 69 70 70 71 70 69 70 69 68 67 68 68 65 65 64 64 62 63 65 64 65 65 66 68 68 68 68 69 69 70
66 66 66 66 67 68 68 69 68 68 68 70 70 70 70 70 71 71 70 68 68 68 67 68 67 66 66 65 62 63 59 57 61 61 63 64 66 67 68 68 69 68 68
65 65 65 67 66 66 68 70 69 69 68 68 69 70 71 71 71 71 70 70 68 70 68 67 66 64 63 64 62 62 60 57 60 58 61 64 64 64 65 67 67 68 69
64 66 66 67 65 66 69 68 68 67 66 67 68 70 70 71 71 71 70 70 69 68 68 69 71 68 66 64 64 65 65 63 57 53 58 61 61 60 63 64 65 65 66
64 66 67 67 66 67 68 68 67 67 67 69 69 67 70 71 71 71 70 69 68 67 68 68 68 68 69 67 66 67 65 65 65 58 55 57 58 61 63 62 62 63 64
64 67 68 67 66 68 69 68 67 67 68 68 68 68 70 70 71 71 71 69 69 67 68 67 69 68 68 69 67 68 66 63 65 64 61 57 56 58 61 62 62 63 64

GFSSE_sfc_dewp_090.txt.gz
Dewpoint
69 72 75 75 74 75 74 73 74 74 74 75 75 75 75 75 75 75 75 75 75 75 73 73 73 73 72 72 73 73 73 73 74 73 72 72 74 73 73 72 73 71 73
71 73 74 75 74 73 73 73 73 73 73 75 75 75 75 75 74 75 75 75 75 76 73 72 73 74 74 74 73 73 74 73 74 74 72 73 73 73 72 72 73 72 73
73 73 73 75 73 73 73 74 73 72 73 74 74 75 75 75 75 75 75 74 75 75 74 73 73 73 73 74 74 73 72 71 73 73 72 70 71 73 73 73 72 73 73
73 73 73 75 75 74 74 74 74 74 74 73 74 74 75 75 75 75 74 74 75 74 73 73 73 73 73 72 71 71 71 72 73 73 71 71 68 72 73 74 73 73 73
73 73 73 75 75 74 73 74 74 74 74 73 74 74 75 75 75 74 74 73 73 74 74 73 73 72 72 72 72 72 72 73 73 72 71 71 71 72 72 73 73 73 73
72 72 75 75 75 74 74 74 74 74 74 73 74 74 74 74 75 74 74 74 74 74 73 73 73 73 72 72 71 72 73 73 73 72 72 72 71 71 71 71 72 72 72
72 73 74 75 74 74 74 73 74 73 74 73 74 74 74 74 74 74 74 74 74 74 74 73 73 73 73 74 73 73 73 73 71 72 72 72 72 72 70 70 71 72 72
73 73 73 74 74 74 74 73 73 73 74 73 73 74 74 74 74 74 75 75 74 73 73 73 73 73 73 73 72 72 72 72 71 72 72 71 73 73 70 70 70 71 71
73 73 73 73 73 74 74 73 73 73 73 74 74 74 74 74 74 74 75 74 73 73 73 72 72 73 73 73 72 70 71 72 70 71 71 72 73 72 71 70 71 71 71
73 73 72 73 73 72 72 74 73 73 73 73 73 74 74 74 74 73 75 75 73 73 73 72 72 74 74 73 73 72 71 71 70 71 72 71 74 72 72 70 71 70 70
72 71 71 72 72 72 73 73 73 73 73 74 73 74 73 73 73 73 75 74 73 73 72 72 72 72 73 73 74 72 72 71 71 70 72 73 72 70 69 69 70 70 70
70 71 71 71 71 72 73 72 72 72 72 72 71 71 71 72 74 74 73 73 73 73 72 72 71 72 70 72 73 71 69 70 70 71 71 73 71 70 69 69 69 69 69
69 71 71 71 71 71 72 71 70 70 70 71 70 70 71 72 73 73 73 73 72 72 72 71 71 71 70 69 70 70 70 70 71 71 72 74 71 72 72 71 70 70 70
69 70 70 70 71 71 72 71 70 70 68 68 70 70 70 71 71 71 71 72 72 70 70 70 71 71 71 72 70 69 69 70 70 71 72 72 73 69 69 69 70 70 70
68 68 69 70 70 70 71 70 70 70 68 68 70 71 71 70 69 70 71 71 72 69 70 70 71 70 68 68 71 69 68 68 69 70 72 72 72 72 70 70 70 70 70
67 68 69 70 70 69 70 70 70 70 70 70 71 71 70 69 70 70 69 71 70 71 70 70 70 69 68 67 69 68 68 68 69 70 71 70 72 73 74 71 71 71 71
67 68 68 69 69 69 70 70 69 70 69 70 71 71 70 70 70 69 69 70 70 70 70 71 70 69 68 66 67 67 67 68 68 69 70 70 70 72 72 72 72 72 71
68 68 68 68 68 69 69 69 69 69 71 70 70 71 71 71 71 70 70 70 71 72 70 70 69 69 67 67 67 67 67 67 68 69 69 70 70 69 71 72 73 73 72
68 68 68 69 68 68 68 69 69 70 71 70 70 71 71 71 70 71 71 70 71 71 69 69 69 69 69 67 66 68 68 67 68 66 68 68 68 69 69 70 72 74 73
67 68 68 68 67 67 69 69 70 70 71 71 71 72 72 72 69 72 72 71 73 71 70 70 70 70 68 67 64 64 66 67 68 67 66 67 68 68 68 70 70 69 71
67 68 68 67 67 68 68 68 68 69 69 71 71 70 71 72 72 71 70 72 71 71 69 71 71 68 68 68 67 67 65 66 66 67 67 67 68 69 69 70 70 70 70
66 67 67 67 68 68 68 69 68 69 69 71 71 71 71 71 72 71 71 70 70 70 70 71 70 68 68 68 66 65 63 63 64 63 64 66 67 67 68 69 70 71 71
66 67 67 67 68 68 69 70 70 70 69 70 71 71 71 72 71 73 71 71 71 71 70 70 69 69 67 67 66 66 64 62 62 63 65 65 67 67 67 67 68 70 70
66 67 67 67 67 68 69 69 69 68 68 68 70 71 72 73 72 72 71 71 71 70 71 71 72 70 69 68 68 67 67 66 63 60 63 64 64 64 65 67 67 67 69
65 66 66 68 66 67 69 69 68 68 68 69 70 70 71 73 72 72 71 72 71 70 70 71 71 71 71 70 69 69 69 67 67 62 62 62 64 64 65 66 66 66 67
65 66 66 67 66 67 69 68 68 68 68 69 70 69 70 72 72 72 72 71 71 70 70 70 72 71 70 71 70 70 70 67 69 66 65 64 61 64 65 66 66 66 67

GFSSE_sfc_dewp_093.txt.gz
Dewpoint
69 72 75 74 74 74 74 74 74 74 75 74 75 75 75 75 75 75 75 74 73 75 74 74 74 74 73 73 73 74 74 74 73 72 74 74 74 72 74 73 74 69 73
69 71 76 74 74 73 73 73 73 74 75 75 75 75 75 75 75 74 74 74 74 74 73 73 74 74 74 74 74 74 73 74 74 73 74 74 73 72 73 74 74 72 73
69 70 72 75 73 73 74 74 73 73 75 74 75 75 75 75 74 74 74 74 74 74 74 74 74 74 74 74 73 72 72 73 73 72 71 70 71 73 72 74 74 74 73
69 70 68 75 75 75 74 74 74 73 74 74 74 75 75 74 75 74 74 74 74 74 74 74 73 73 72 70 71 72 73 74 74 73 69 65 68 73 74 73 73 74 74
70 68 72 75 75 74 74 74 74 74 73 74 74 74 74 74 74 74 74 74 74 75 74 73 73 73 73 73 73 73 73 73 73 70 69 68 68 71 73 73 73 73 73
68 68 74 75 74 74 74 74 74 74 74 74 74 74 74 74 74 74 74 74 74 74 73 73 73 73 72 71 73 73 73 73 70 70 71 69 69 71 72 72 72 72 73
66 72 72 75 74 74 74 74 74 74 74 74 74 74 74 74 74 74 74 74 74 74 73 73 74 74 74 74 74 73 73 73 70 69 71 68 69 72 71 71 72 72 73
70 69 71 74 74 74 74 74 74 74 74 74 74 74 74 74 74 74 74 74 74 73 73 74 74 74 73 73 73 72 72 72 70 69 70 68 73 71 71 71 71 72 73
69 70 71 70 73 74 73 73 74 74 74 74 74 74 74 74 74 74 74 74 74 73 73 73 73 73 73 72 71 71 72 73 70 70 68 70 74 72 71 70 71 71 71
70 70 72 72 72 72 71 74 73 74 74 74 74 74 75 74 74 74 74 75 73 73 72 73 73 73 73 73 71 71 71 70 68 70 67 71 74 73 71 71 71 71 71
69 70 70 70 72 74 73 72 73 73 74 74 74 74 74 72 72 73 74 74 73 72 72 73 73 73 73 74 73 72 70 66 66 68 66 72 72 69 69 70 70 70 70
68 70 71 70 71 72 72 73 74 73 73 72 73 74 73 74 74 71 73 74 73 72 73 73 73 72 70 73 70 70 67 67 66 67 66 72 71 71 70 69 69 69 69
68 69 70 71 73 74 74 71 70 70 71 71 73 73 74 73 73 72 72 70 70 71 68 68 69 69 69 69 71 69 69 68 66 66 69 72 71 72 72 72 70 70 70
68 69 70 70 72 73 71 69 70 69 70 69 70 73 73 70 71 72 71 71 70 69 71 71 70 72 71 71 70 69 70 67 65 66 68 72 73 70 69 69 70 71 71
66 68 68 70 72 73 72 70 70 69 68 69 70 72 71 69 71 72 72 71 71 70 70 71 71 69 69 68 71 71 69 68 66 65 67 72 71 72 72 70 70 70 71
65 67 68 69 72 72 72 73 72 70 70 69 70 70 72 69 72 70 71 71 70 70 71 72 71 69 68 68 70 70 69 67 67 68 66 67 71 72 73 72 71 71 71
66 67 68 68 70 71 72 72 71 71 70 70 70 73 71 72 72 72 70 70 70 73 72 73 70 70 67 66 68 68 68 68 67 68 68 68 68 70 72 72 72 72 72
66 68 69 66 69 70 71 72 70 71 71 70 71 71 72 73 73 73 70 70 73 72 71 70 69 68 67 67 68 68 68 68 69 69 69 70 70 67 69 70 72 73 73
68 69 69 69 70 70 72 71 71 72 72 71 71 72 73 73 72 72 71 71 74 69 70 69 69 70 69 68 67 68 68 68 69 65 69 69 70 69 69 72 71 71 71
68 69 69 69 71 72 71 72 71 70 72 72 71 72 72 72 72 73 72 72 74 72 70 70 72 71 70 68 63 65 67 67 69 69 67 67 69 70 69 71 71 70 72
68 69 70 70 72 70 70 70 70 69 71 72 71 73 73 74 73 75 71 73 73 72 71 73 71 71 67 69 66 65 66 66 68 68 68 67 67 68 69 70 70 69 69
68 69 71 71 72 71 70 71 70 71 70 71 72 73 73 73 74 73 73 72 73 71 73 73 72 68 67 68 65 66 61 61 63 62 65 66 68 67 66 68 69 71 71
67 69 70 71 72 72 72 71 72 72 71 71 72 71 71 73 73 74 73 72 73 73 70 72 72 72 66 69 70 66 63 59 63 63 65 65 69 67 67 67 68 69 70
66 68 70 71 71 71 73 71 73 72 73 69 70 71 72 73 72 73 74 73 74 73 73 73 73 72 71 68 70 68 70 70 63 59 63 64 65 64 66 65 65 66 69
66 67 69 71 71 71 72 73 70 74 70 70 70 73 74 74 74 73 73 74 73 71 74 74 74 74 71 69 68 70 71 69 71 67 60 61 63 64 65 66 65 65 67
66 67 68 71 71 72 72 72 73 72 73 70 71 70 70 71 72 74 73 74 74 72 73 73 74 73 73 72 70 70 68 67 67 67 66 67 63 64 65 66 67 66 68

GFSSE_sfc_dewp_096.txt.gz
Dewpoint
66 69 73 73 72 73 74 74 74 75 75 75 76 75 75 75 75 75 75 75 75 75 75 74 74 73 73 74 74 74 73 72 74 74 74 73 73 74 73 73 74 69 73
66 68 74 73 73 72 73 73 74 75 75 75 75 75 75 75 74 74 75 73 74 74 73 74 74 74 74 74 74 74 74 73 73 73 74 74 73 74 74 74 74 71 73
64 67 71 74 73 73 74 73 74 75 75 75 75 75 75 74 74 74 74 73 74 74 74 74 74 74 73 72 72 74 74 73 72 70 71 68 71 73 74 74 74 74 73
66 66 65 75 74 74 74 73 73 74 74 74 75 75 75 75 75 75 75 74 74 74 74 73 73 71 72 72 73 73 74 73 73 72 64 65 68 74 73 74 73 73 74
67 64 71 74 74 74 74 74 74 74 74 74 74 75 75 74 75 75 74 74 74 74 73 74 74 74 73 73 73 74 74 72 68 68 65 68 68 72 73 73 73 74 74
64 66 73 74 73 74 74 74 74 74 74 74 74 74 74 74 74 74 74 74 74 73 73 73 73 73 72 73 73 73 73 70 70 67 64 67 68 71 72 72 74 74 73
62 66 70 74 74 74 74 74 74 74 74 74 74 74 74 74 74 74 74 74 74 74 74 74 74 74 75 74 73 73 73 71 67 67 64 66 69 72 71 71 73 73 73
62 64 68 74 74 74 74 74 74 74 74 74 74 74 74 74 74 74 75 74 73 74 74 74 74 73 73 73 73 72 72 71 66 66 68 71 72 72 70 71 72 73 73
62 65 67 68 73 74 74 74 74 74 74 74 74 74 74 74 74 74 75 74 73 73 73 73 73 74 72 71 71 72 73 71 65 66 68 66 73 71 71 71 71 71 71
64 66 67 68 68 69 69 73 74 74 74 74 75 74 75 74 74 74 75 75 73 73 73 73 73 74 73 71 71 70 70 70 63 63 64 69 74 71 71 71 71 70 70
64 64 63 64 69 72 71 72 73 74 75 75 74 74 73 70 71 71 74 73 72 72 73 73 73 73 74 73 72 70 72 61 61 61 61 73 72 70 70 70 70 70 69
63 63 62 65 65 67 64 71 71 69 69 69 70 72 71 72 72 68 72 73 72 72 73 73 73 72 72 68 68 70 59 62 61 61 64 72 72 72 71 70 70 70 70
64 63 63 67 70 67 67 65 67 67 67 70 73 71 70 68 67 65 67 67 68 71 66 69 68 67 69 67 66 66 65 62 61 61 69 72 71 71 70 70 70 70 70
64 63 64 67 72 69 67 64 65 65 66 66 68 71 69 66 67 67 66 68 68 66 69 69 67 70 70 70 67 67 65 62 61 61 68 72 72 70 69 69 69 70 70
62 62 64 68 71 72 70 66 66 67 64 64 67 70 67 67 70 68 70 68 68 67 68 68 67 67 68 67 67 67 66 65 62 60 60 71 71 71 71 70 70 70 70
62 62 65 68 71 71 71 71 69 66 66 65 67 70 71 68 70 68 69 68 67 67 67 68 68 66 65 64 67 66 65 63 66 64 60 65 71 71 71 71 71 71 71
61 63 66 68 69 71 71 71 68 66 65 66 67 71 71 70 73 71 69 68 68 70 71 69 68 66 63 62 66 66 64 66 65 67 64 63 67 70 71 71 71 71 72
62 65 66 64 67 69 70 70 68 68 67 67 67 68 71 73 73 72 67 67 70 70 68 66 65 63 63 62 65 64 64 64 67 67 66 67 67 65 70 70 70 71 72
65 66 67 67 67 69 72 69 69 72 69 68 68 68 73 72 72 70 68 70 72 69 67 66 65 66 65 64 62 63 64 64 65 62 66 68 67 68 67 72 71 71 71
65 68 68 68 70 72 72 72 69 68 69 69 69 69 72 71 73 71 69 71 71 69 67 66 70 67 67 65 59 60 62 64 65 64 63 64 66 67 66 71 70 69 73
65 67 69 70 73 73 72 67 67 66 68 68 69 73 73 72 72 74 68 71 71 70 71 72 68 69 63 65 62 59 60 62 63 63 63 64 64 64 66 67 69 68 69
66 67 69 71 73 73 70 71 68 68 68 68 69 72 72 72 73 72 72 70 72 68 73 73 72 65 64 67 62 62 57 57 58 59 62 62 64 62 63 66 69 70 70
66 68 69 71 73 73 71 71 74 73 72 73 70 70 70 72 72 73 73 71 72 71 67 72 71 71 62 66 70 64 58 56 57 58 62 61 65 62 64 66 67 68 70
64 68 70 72 73 73 73 71 72 75 73 73 68 69 70 72 71 71 73 73 73 70 72 71 70 70 71 65 66 67 71 70 59 55 57 59 62 61 65 64 64 65 69
64 66 69 72 73 72 73 73 69 69 74 66 68 75 73 73 72 71 73 73 74 69 73 73 73 73 69 67 65 68 70 68 70 61 55 55 59 61 63 63 64 65 68
64 65 68 71 73 73 73 73 73 71 70 75 73 70 68 69 71 72 72 73 74 72 72 71 74 73 72 71 68 68 65 64 64 63 61 62 59 61 63 64 66 66 67

GFSSE_sfc_dewp_099.txt.gz
Dewpoint
63 68 73 73 73 72 73 74 74 74 74 75 75 75 75 75 74 75 75 75 75 75 74 74 73 73 74 74 74 73 74 74 74 73 73 74 74 73 73 73 74 69 74
63 66 74 73 73 73 73 73 75 75 75 75 75 75 75 75 74 74 75 75 75 75 74 74 74 74 73 74 74 73 73 74 73 73 73 74 74 74 74 74 75 72 74
63 67 71 73 72 74 73 74 75 75 75 75 75 75 74 74 75 75 75 75 74 74 74 74 74 71 71 73 74 74 73 73 72 72 74 66 71 74 74 74 74 74 74
63 65 64 74 74 73 73 74 74 74 75 75 75 75 75 75 75 74 74 74 75 75 73 72 72 73 73 73 73 73 72 72 72 74 69 67 68 74 73 74 73 74 74
68 63 72 74 74 74 74 74 74 74 74 75 75 75 75 74 75 74 74 74 73 73 73 73 73 73 73 73 73 73 72 71 71 68 66 70 70 72 73 73 74 74 74
64 65 72 74 74 74 74 74 73 74 74 75 75 74 74 75 74 74 74 74 73 73 73 74 74 73 73 73 73 72 72 71 74 63 64 67 69 72 73 73 74 74 74
62 64 68 74 74 74 74 74 74 74 75 74 75 74 74 75 75 74 74 74 74 74 74 74 75 74 73 73 72 72 72 72 63 67 64 66 69 72 72 74 73 73 73
65 64 68 74 74 74 74 74 74 74 74 75 74 74 74 74 75 75 74 74 74 74 74 74 73 72 72 72 72 72 73 73 66 68 66 66 72 71 71 72 73 73 72
64 64 65 68 73 74 74 74 74 74 75 74 74 74 74 75 75 75 74 74 73 73 73 74 74 72 71 71 72 70 71 72 67 70 64 66 73 71 71 71 71 71 71
62 61 64 69 71 68 69 74 74 74 74 74 74 74 75 74 75 75 75 74 73 73 73 73 74 73 72 71 70 69 70 71 60 61 63 69 73 70 70 70 70 70 70
63 59 62 63 67 69 69 72 74 74 75 74 73 74 74 69 69 71 75 73 73 73 73 73 73 74 73 73 72 71 72 60 57 59 63 72 71 69 70 70 70 70 70
57 57 61 66 67 68 63 72 70 70 70 70 71 73 76 71 72 66 71 72 72 73 73 73 73 75 75 69 67 71 59 59 59 59 66 73 72 71 70 70 70 70 70
58 57 63 69 64 62 67 65 68 68 65 71 73 76 74 65 66 65 68 68 69 72 70 71 71 68 66 67 61 59 60 59 59 61 68 71 70 70 70 70 70 70 70
59 59 63 67 68 64 62 62 67 63 64 70 69 70 68 64 67 71 68 65 70 68 68 68 66 68 66 66 62 61 59 58 58 59 68 73 70 69 69 69 69 69 70
58 59 64 69 71 69 66 63 65 64 62 65 67 67 65 67 69 69 71 69 69 70 72 66 65 66 66 64 62 62 60 61 58 56 57 71 71 71 71 70 70 69 70
58 60 65 67 70 73 68 70 66 64 63 64 65 67 70 70 73 69 70 70 65 71 71 65 67 64 65 61 64 63 61 61 63 59 57 65 71 70 70 71 70 70 71
59 62 65 66 67 72 72 69 67 63 62 69 67 71 70 70 72 72 69 70 69 68 70 68 66 64 60 59 64 63 62 63 64 65 61 63 67 71 71 70 71 71 71
60 64 64 62 65 68 72 73 73 67 67 68 68 68 71 72 71 73 67 71 67 71 64 66 62 60 60 60 62 61 62 62 65 66 65 65 66 65 70 71 71 71 72
63 65 64 65 66 70 70 72 73 71 71 71 71 72 72 71 71 73 74 69 73 68 66 68 61 68 62 60 60 61 62 61 64 61 67 67 67 66 66 73 73 73 72
64 65 65 64 71 73 68 70 72 70 71 72 71 72 71 70 71 74 68 69 73 70 65 66 73 64 65 62 58 59 60 61 63 62 64 64 66 67 64 69 71 70 75
64 66 66 72 71 71 70 67 71 70 71 70 73 71 71 71 71 73 71 70 70 73 72 69 67 69 60 63 64 58 59 61 62 61 62 62 64 61 64 68 67 68 71
63 66 68 71 73 73 70 73 73 71 72 72 73 71 71 71 72 71 74 71 73 68 71 71 72 67 60 62 62 61 56 57 57 57 60 61 63 60 62 65 67 70 70
63 65 67 70 73 72 73 74 72 72 74 69 72 70 70 71 71 73 73 75 71 75 69 71 69 71 66 62 70 68 60 61 56 59 61 61 64 60 62 65 64 67 70
63 66 68 70 72 72 71 74 71 75 74 69 73 73 72 71 70 71 72 72 74 72 77 73 68 73 72 62 61 63 70 70 65 57 56 60 61 60 63 62 62 65 68
62 64 67 71 72 72 73 75 69 70 73 69 73 73 74 73 71 69 71 72 73 70 72 77 72 74 66 69 65 62 68 62 66 61 59 57 59 59 60 62 61 62 66
62 66 66 71 73 72 72 72 71 70 70 73 72 73 69 71 69 71 71 73 73 73 73 71 73 73 76 73 70 69 69 67 66 66 59 61 58 60 59 60 62 63 64

GFSSE_sfc_dewp_102.txt.gz
Dewpoint
66 70 75 74 72 73 73 73 74 74 75 75 76 75 75 75 75 75 76 75 75 75 75 74 75 75 74 73 74 74 74 75 73 74 74 74 73 73 74 73 74 70 74
65 69 75 74 73 73 73 74 75 75 75 75 75 75 75 75 75 76 76 75 75 74 74 74 74 74 74 73 72 73 73 73 74 74 74 74 74 74 74 74 74 72 74
65 69 71 74 73 73 73 74 74 75 75 75 75 75 75 75 75 73 74 74 74 74 74 72 72 73 74 74 73 73 73 73 72 73 75 71 72 74 74 74 74 74 74
64 65 66 75 74 73 74 74 74 74 75 75 75 75 75 75 75 75 74 74 75 74 73 73 73 73 74 73 73 73 73 73 73 72 68 68 69 73 74 74 74 74 74
65 67 72 74 74 74 74 74 74 74 75 75 75 75 75 74 75 74 74 74 74 74 74 74 73 73 73 73 73 73 74 75 74 70 70 72 72 73 74 74 74 74 73
66 69 74 74 74 74 74 74 74 74 75 75 75 75 75 74 74 74 73 73 74 74 74 74 74 73 72 72 72 72 73 76 73 66 67 71 71 74 74 74 74 74 73
64 68 70 75 74 74 74 74 74 75 75 75 75 75 75 75 74 74 74 74 74 74 75 75 73 73 72 71 71 73 74 74 66 67 67 69 71 74 74 74 73 73 73
64 67 70 74 74 74 74 74 74 75 75 75 76 75 75 75 76 75 75 75 74 74 73 72 72 72 71 70 71 71 73 74 67 67 68 69 73 72 72 72 72 72 72
63 65 68 70 73 74 75 74 74 75 74 74 75 75 76 75 75 75 76 75 74 74 74 73 72 71 71 70 70 70 71 75 68 69 65 68 73 71 71 71 71 71 70
65 67 68 69 69 71 71 74 75 74 74 75 75 75 76 75 74 74 76 76 73 73 74 74 73 72 71 71 69 69 70 71 63 65 68 70 73 70 70 70 70 70 70
64 65 67 67 69 72 73 73 74 75 75 75 74 75 76 71 72 72 75 75 74 73 74 74 74 73 71 71 72 72 72 69 61 63 67 73 72 70 70 70 70 70 71
62 64 64 66 65 67 66 73 74 71 71 72 72 74 75 74 73 68 72 74 73 73 74 75 75 75 74 72 70 72 67 63 62 66 71 74 72 70 70 70 70 70 70
60 64 65 68 70 66 71 72 71 72 72 74 74 76 75 70 69 68 71 72 73 73 72 72 73 72 72 72 70 64 63 64 62 64 71 73 73 70 70 69 70 70 70
61 65 62 67 72 68 69 70 70 70 70 72 73 74 76 70 73 70 71 69 73 72 73 73 71 72 69 68 62 63 61 61 61 64 71 73 71 69 69 69 69 69 70
58 65 64 69 73 75 69 69 69 68 70 71 71 71 71 70 75 71 70 71 71 70 72 72 71 71 71 68 66 65 63 64 60 61 68 73 73 71 70 69 69 69 70
61 68 66 67 71 73 74 75 68 67 68 69 72 72 73 70 73 71 71 72 73 71 73 70 71 70 71 66 68 67 65 66 67 61 64 70 73 72 70 70 70 70 71
59 66 68 68 70 72 74 74 73 68 68 70 70 73 72 74 72 71 72 72 73 74 73 74 73 70 68 66 69 68 67 68 68 66 63 65 70 73 73 72 72 72 72
62 67 68 65 68 70 73 75 70 70 67 71 71 73 75 75 74 73 73 73 75 76 75 71 72 71 68 69 67 69 68 68 69 69 69 67 67 65 73 74 74 74 73
65 66 65 68 69 70 75 71 74 71 72 72 73 73 75 75 73 76 71 73 75 75 69 69 70 71 69 66 66 68 68 68 70 66 70 70 70 69 69 74 74 75 75
65 66 68 70 73 74 70 72 73 73 71 71 73 75 76 74 74 75 75 75 72 75 70 74 72 69 73 65 63 63 68 68 69 69 69 67 70 70 69 72 73 72 75
64 68 70 70 74 72 72 70 72 71 71 73 71 75 76 75 75 77 76 75 74 73 74 74 73 73 72 71 73 69 67 67 67 68 68 67 69 69 69 71 74 73 72
64 68 73 73 75 74 74 76 75 71 75 74 74 75 75 73 76 75 75 75 70 73 76 75 76 75 70 70 70 70 66 67 65 63 68 66 67 65 68 71 71 72 74
65 68 71 72 75 75 76 73 75 72 76 72 76 74 74 73 75 75 76 74 75 74 73 75 76 75 72 70 73 71 67 64 66 66 66 68 67 69 69 69 70 72 72
64 66 72 73 75 74 73 73 74 73 69 74 75 72 73 75 74 75 75 75 75 73 72 75 75 76 76 72 70 68 73 69 68 66 67 67 69 66 68 71 68 71 73
63 64 69 73 75 76 76 76 75 74 73 74 74 72 73 75 75 73 75 75 75 75 73 71 75 77 76 75 72 71 71 72 72 64 65 65 68 68 66 69 67 70 71
63 66 69 73 75 76 75 75 75 75 73 73 70 73 73 75 75 76 74 77 77 73 74 75 76 76 77 77 75 73 67 66 64 67 68 66 66 67 68 68 66 69 71

GFSSE_sfc_dewp_105.txt.gz
Dewpoint
68 71 75 73 73 73 73 73 73 74 75 75 75 76 75 75 75 76 76 75 75 76 75 75 74 74 74 75 75 74 74 76 76 75 74 73 73 73 74 74 73 70 74
70 72 75 74 74 74 74 74 74 75 75 75 76 76 75 75 75 75 75 74 74 74 74 75 74 74 73 74 74 73 74 74 75 76 74 74 74 74 74 74 74 72 73
70 72 72 75 73 73 75 75 75 75 75 75 75 76 75 74 74 74 75 74 74 74 72 73 73 74 73 73 74 72 72 72 74 74 74 72 72 74 74 74 74 74 74
70 70 71 75 75 74 74 75 75 75 75 75 75 75 74 75 75 75 74 73 74 73 73 73 74 73 73 73 74 73 74 73 75 73 70 70 71 74 74 74 74 74 74
67 71 73 75 75 74 74 74 74 75 75 75 75 75 75 74 75 75 74 74 74 74 74 74 73 73 73 73 73 74 73 74 73 71 71 72 72 73 74 74 74 73 73
70 73 75 75 74 74 74 74 74 75 75 75 75 75 74 75 73 73 74 74 74 74 74 73 73 72 72 73 73 74 75 75 71 69 69 72 72 74 74 74 74 73 73
70 72 73 76 75 74 74 74 75 75 75 75 75 75 74 75 74 74 74 74 75 75 74 73 72 71 71 72 73 74 74 73 67 67 68 70 72 74 73 73 73 73 74
69 71 72 75 75 74 75 75 75 75 75 75 75 75 75 75 75 75 75 75 73 73 72 72 71 71 71 71 71 73 75 72 67 68 69 70 73 73 72 71 72 72 71
69 71 71 72 73 75 75 75 75 75 75 75 75 75 75 75 75 75 75 74 74 73 71 71 70 70 70 69 69 71 74 71 66 68 68 70 73 72 71 71 71 71 71
67 69 70 71 72 72 73 75 75 74 74 75 75 75 75 75 74 74 76 75 74 74 73 71 69 69 69 69 69 70 71 73 67 68 69 71 72 70 70 70 70 70 71
66 67 69 69 71 72 73 73 74 75 75 75 75 75 75 73 72 72 75 75 73 73 73 72 71 71 71 71 72 72 70 68 63 66 69 72 72 70 70 70 70 71 71
66 67 67 68 69 70 70 73 73 73 73 73 72 72 73 71 71 71 73 73 73 72 72 74 73 73 71 71 71 72 70 63 66 69 70 73 72 70 70 70 70 70 70
65 66 65 66 67 67 70 72 72 72 72 72 71 72 71 72 70 71 69 67 68 63 64 66 74 71 67 69 70 69 65 62 65 69 73 75 73 71 70 70 70 70 70
62 63 65 67 66 68 70 71 70 71 66 66 71 72 72 69 69 71 65 65 66 69 65 66 72 71 71 70 69 67 61 62 64 68 71 73 73 70 69 69 69 69 70
62 63 66 68 69 67 69 69 69 70 68 66 71 72 70 71 70 69 66 68 69 70 70 69 69 67 68 64 61 59 60 61 63 68 71 72 73 72 71 70 70 70 70
64 65 66 68 68 70 67 68 68 68 69 70 71 70 69 71 70 70 67 68 70 70 69 68 64 65 66 63 63 61 61 61 59 65 69 71 74 74 73 71 71 71 71
65 66 66 67 67 68 68 68 68 67 69 70 69 64 70 69 68 67 69 69 71 71 69 67 65 67 67 65 62 63 62 63 59 61 64 68 71 74 74 73 74 74 73
66 66 65 63 67 67 67 69 68 67 69 68 70 70 72 71 68 70 69 69 70 72 72 70 69 67 66 67 64 63 65 65 64 61 63 64 67 66 73 75 75 75 75
65 65 66 66 67 69 70 71 70 69 71 70 70 70 70 72 72 72 71 69 73 71 68 68 66 66 65 65 65 65 65 65 65 65 64 65 66 66 68 72 74 74 75
65 64 67 68 66 69 69 70 71 70 69 71 71 71 71 71 72 71 73 70 67 71 71 70 67 70 68 63 64 62 64 66 66 67 66 66 67 67 67 68 71 72 74
63 65 69 69 70 68 68 69 69 67 68 70 70 72 70 71 71 71 73 69 63 71 70 69 70 70 69 68 66 65 62 63 65 67 67 67 66 67 68 69 70 70 71
65 65 69 70 69 70 71 72 71 69 71 71 71 71 71 69 70 71 72 71 70 71 71 70 69 71 68 66 65 67 60 61 63 64 66 66 65 67 67 69 72 71 69
66 69 70 71 71 71 71 71 71 71 71 69 71 71 71 72 71 71 71 71 70 69 64 68 72 71 70 68 67 67 63 61 62 61 61 64 62 65 66 68 68 69 71
64 67 69 71 71 71 72 69 69 69 67 70 70 71 70 72 71 72 69 69 68 64 60 67 72 72 71 70 69 67 67 67 63 58 64 63 62 64 64 69 68 69 71
66 66 69 70 71 71 70 71 70 68 69 71 71 70 67 71 72 71 72 72 70 69 70 71 69 72 73 71 71 69 67 67 65 67 62 63 67 68 70 69 70 69 71
64 68 69 70 70 71 71 70 69 69 70 69 68 70 71 71 71 72 71 72 71 66 63 68 72 72 72 72 71 67 65 63 63 66 65 63 63 67 69 70 69 69 70

GFSSE_sfc_dewp_108.txt.gz
Dewpoint
68 70 73 72 72 73 73 73 74 75 75 75 75 75 74 74 74 75 75 75 75 75 74 73 74 74 74 74 73 74 75 75 74 74 73 73 73 74 74 73 73 70 72
69 72 75 73 73 73 73 74 75 75 75 75 75 75 75 74 75 75 74 74 74 74 74 74 73 74 74 73 73 73 74 75 76 74 74 74 74 74 74 73 73 70 71
71 72 73 75 73 74 74 75 75 75 74 75 75 75 75 74 74 74 75 75 73 73 74 74 74 74 73 72 72 72 72 75 74 74 74 72 72 74 74 74 74 74 73
71 72 72 75 74 74 75 75 74 74 75 75 74 74 74 74 75 75 74 72 72 72 73 73 73 73 73 72 73 74 73 74 74 73 71 71 71 74 74 74 73 73 73
70 71 72 75 75 74 74 75 75 75 75 75 74 74 74 74 74 74 73 74 74 73 74 73 73 73 73 73 72 73 74 74 74 72 71 72 72 73 74 73 73 73 73
71 72 74 74 74 74 74 75 75 75 75 75 75 74 74 74 74 74 74 74 74 73 73 72 72 73 73 73 75 73 74 73 72 70 71 73 72 74 73 74 73 73 73
72 73 73 75 75 74 74 74 75 75 75 75 74 74 74 74 74 74 74 74 74 73 73 72 71 72 72 73 75 75 72 71 68 69 70 72 72 74 74 73 73 73 73
72 73 73 75 74 74 74 75 75 75 75 75 75 74 74 74 74 74 74 73 74 74 71 71 71 70 71 72 74 75 72 71 69 69 70 71 73 72 70 70 71 71 71
71 72 72 72 73 75 75 75 75 75 75 75 75 74 74 74 74 74 74 73 71 71 70 70 69 69 70 71 72 75 72 71 68 69 69 70 73 71 71 71 70 71 71
71 71 71 72 72 72 73 75 75 75 75 75 75 75 75 75 74 73 75 75 72 71 70 69 69 69 69 70 70 73 72 71 67 68 70 71 73 70 70 70 70 70 70
69 70 71 71 71 72 73 73 74 75 75 75 75 75 74 72 72 73 74 73 73 72 71 70 69 69 70 71 71 71 71 65 66 68 69 72 72 70 70 70 70 71 71
67 69 69 70 71 72 72 72 72 73 73 74 73 73 72 71 71 73 73 73 73 71 71 72 72 72 72 70 71 72 71 66 66 68 69 73 71 70 70 70 70 70 70
67 68 68 69 70 69 72 72 72 72 71 72 71 71 71 72 71 68 67 67 66 66 63 65 67 73 68 67 68 69 64 65 68 70 71 73 71 70 70 70 70 70 70
65 66 66 67 68 69 71 71 71 71 68 70 71 71 69 69 70 64 63 63 63 67 66 66 67 70 71 71 70 68 61 63 66 70 73 74 74 70 70 70 70 70 70
63 64 66 66 67 70 71 70 71 70 63 68 71 71 72 67 69 66 64 66 67 68 69 69 68 69 69 68 67 65 61 63 65 68 70 72 73 71 70 70 70 71 71
63 66 68 68 68 68 69 69 70 70 67 70 70 70 70 70 69 66 65 67 68 70 69 69 69 64 65 66 61 61 61 62 64 67 69 70 73 73 72 71 71 71 72
64 66 66 66 69 69 67 69 68 69 69 70 68 70 70 69 69 68 67 68 70 71 70 69 68 66 66 66 62 62 62 59 61 64 67 69 70 73 72 72 74 74 73
65 65 65 66 66 67 67 69 67 68 70 69 66 70 71 69 67 67 68 70 71 68 72 71 70 68 67 66 63 63 64 61 59 60 63 65 67 67 71 74 75 75 74
64 64 63 65 67 69 70 69 70 70 68 69 70 71 70 71 71 71 71 70 71 72 69 68 67 66 65 64 64 64 67 65 64 60 61 62 63 66 65 70 74 74 74
64 64 65 66 69 68 70 70 69 70 70 70 70 70 71 69 71 72 71 69 66 70 70 70 68 69 66 64 65 64 64 64 66 67 63 64 64 65 65 67 68 72 74
64 65 66 66 68 66 68 69 66 67 69 70 71 71 70 70 72 71 72 68 68 70 70 70 69 69 68 67 65 64 62 64 65 69 67 67 66 67 66 67 68 69 70
64 66 67 67 68 68 69 70 70 69 70 70 71 71 71 70 71 72 71 70 70 69 66 68 71 70 68 66 66 65 60 64 65 66 68 67 66 67 68 67 70 70 72
64 67 67 68 68 70 70 70 69 70 70 69 70 70 70 73 71 71 70 70 69 67 60 66 71 71 69 69 68 66 63 59 62 61 62 68 66 68 69 71 72 72 72
65 67 68 69 70 70 70 69 67 67 67 69 69 70 70 67 71 72 68 69 68 62 65 68 71 71 70 69 69 68 66 66 63 59 65 67 67 67 69 70 70 72 71
66 67 69 69 70 70 70 69 69 67 67 70 69 68 67 69 71 72 67 70 68 68 69 70 71 71 72 70 68 66 65 65 66 64 60 60 66 68 69 69 70 71 70
65 67 69 69 69 70 70 70 69 68 68 68 68 69 70 70 70 70 71 71 70 68 66 66 71 71 71 71 68 66 64 63 63 65 61 61 61 66 69 69 69 69 71

GFSSE_sfc_dewp_111.txt.gz
Dewpoint
65 68 73 73 73 73 74 74 75 75 75 75 74 73 73 74 74 75 75 75 74 73 74 74 74 73 73 74 74 74 74 74 74 74 74 74 74 74 73 73 73 71 73
67 70 73 73 73 74 74 75 75 74 74 74 74 74 73 74 74 74 74 74 75 73 73 74 74 74 74 74 74 74 74 74 74 74 74 74 74 74 73 73 71 70 72
68 72 73 74 73 74 75 75 74 74 74 74 74 74 74 74 74 74 74 74 74 74 74 74 74 73 73 73 73 73 74 74 74 74 74 72 72 74 73 72 73 72 71
71 72 72 75 74 74 74 74 74 74 73 74 74 74 74 74 74 74 72 71 72 73 73 73 73 73 72 73 73 73 74 74 74 74 71 71 71 74 74 73 73 73 73
71 71 72 73 74 74 75 74 74 75 74 74 74 74 74 73 72 72 73 73 73 74 73 73 73 73 73 73 73 74 74 74 74 72 71 72 72 73 73 73 73 73 73
70 71 73 73 74 74 74 74 74 74 74 74 74 74 74 74 74 74 74 73 73 73 73 73 73 73 73 73 73 74 74 74 73 71 72 73 72 73 73 73 73 73 73
71 72 71 74 74 74 74 74 74 75 74 74 74 74 73 73 73 73 74 73 73 73 72 72 72 73 73 74 73 73 72 73 70 70 71 72 73 74 73 73 73 72 72
72 73 72 74 74 74 74 75 75 75 75 74 74 74 74 73 74 73 74 74 73 72 71 71 71 72 73 74 74 72 71 71 70 70 70 71 73 72 71 71 71 71 72
72 72 72 72 72 74 75 75 75 75 75 74 74 74 74 74 74 73 72 71 71 70 70 70 70 71 71 72 73 72 71 71 69 69 70 71 73 71 71 70 70 70 70
71 72 72 72 72 72 73 75 75 75 75 75 74 74 74 74 73 73 74 73 71 71 70 69 70 70 71 71 73 72 71 71 67 69 69 71 72 70 70 70 69 69 70
70 71 71 71 71 72 73 73 74 75 75 74 74 74 74 72 72 72 73 72 72 72 71 71 70 70 71 72 73 71 71 67 67 68 69 72 71 69 69 69 70 70 70
69 70 70 71 71 72 72 72 72 73 74 73 73 72 71 71 71 73 73 73 73 71 70 73 73 73 69 68 69 71 69 64 66 68 69 72 70 69 69 70 70 70 70
68 70 70 70 71 71 72 72 72 72 72 72 71 71 71 71 70 68 67 67 66 67 62 65 65 68 72 68 69 68 67 66 66 68 69 72 70 69 69 70 70 70 71
68 68 69 70 70 70 72 71 71 71 70 70 70 70 70 70 68 64 63 63 63 66 68 69 68 67 68 70 70 68 63 65 67 69 71 72 72 71 70 70 70 70 71
66 67 68 68 68 70 71 71 71 70 68 69 70 71 70 68 68 64 64 66 67 68 68 68 68 68 65 66 65 68 64 63 66 69 70 73 73 71 70 70 70 71 71
64 65 66 66 67 70 70 70 70 69 64 69 70 70 69 67 68 66 65 67 68 69 69 68 68 67 65 66 61 62 62 63 64 66 68 69 72 72 72 71 71 71 72
64 66 67 66 67 69 69 70 70 69 68 70 69 70 70 69 68 66 67 68 69 68 70 70 69 67 66 66 62 61 61 62 63 64 66 68 69 72 72 72 73 74 73
65 66 66 67 68 68 67 68 68 68 70 68 65 70 69 68 68 68 68 68 69 65 71 68 69 68 68 66 63 62 62 60 59 60 62 64 66 67 69 73 75 75 74
65 65 65 66 67 67 68 68 68 68 70 68 66 71 69 68 68 70 71 70 69 70 70 69 68 67 66 64 63 64 65 65 61 59 60 61 62 65 65 67 72 74 74
64 64 65 68 69 70 70 69 70 69 69 68 70 71 70 70 71 71 69 68 68 70 70 69 68 69 66 64 65 64 64 64 66 67 62 61 63 62 64 64 66 70 73
64 64 65 68 67 68 68 66 67 67 68 69 71 70 71 71 72 71 70 65 68 69 68 70 70 68 66 66 64 63 62 64 64 68 67 67 67 66 66 66 67 70 71
63 64 65 67 66 67 68 68 69 69 70 69 70 71 71 71 71 71 70 69 69 66 65 70 71 69 68 68 67 62 59 63 65 66 68 68 67 67 67 68 70 70 72
63 65 65 67 66 68 69 69 69 70 69 69 70 70 70 71 71 70 70 68 68 65 60 68 70 70 68 69 68 65 62 58 62 65 66 68 68 69 70 71 72 71 72
64 66 66 67 69 69 69 68 67 67 66 68 68 69 70 67 71 71 69 68 66 62 66 69 71 71 69 67 67 66 66 65 62 59 64 66 67 67 68 70 70 72 72
65 66 66 68 69 69 69 68 68 66 66 68 68 68 68 67 70 72 68 69 67 68 69 70 70 70 71 68 66 66 64 64 65 63 59 60 64 67 68 69 69 70 71
65 66 68 68 69 69 68 68 68 67 67 68 68 68 68 69 70 70 71 70 69 69 67 67 70 70 70 69 66 64 63 62 62 63 61 60 61 64 67 69 68 69 70

GFSSE_sfc_dewp_114.txt.gz
Dewpoint
64 67 70 70 70 72 74 75 75 75 74 74 75 74 74 74 74 74 74 74 73 74 74 74 73 74 74 74 74 74 74 74 74 74 74 74 73 73 73 73 73 71 73
65 68 71 70 70 72 75 75 74 75 74 73 74 73 74 74 74 74 74 74 74 74 74 74 74 74 74 75 74 74 73 74 74 74 74 73 74 74 72 72 72 71 73
67 70 70 72 72 74 75 75 74 74 74 74 73 74 74 74 74 74 74 73 73 74 74 73 73 73 73 73 74 74 73 73 74 74 74 73 72 72 72 72 71 71 71
70 72 72 74 73 74 75 74 74 74 74 74 73 74 74 74 74 72 72 73 73 73 73 73 73 73 73 73 74 74 74 74 74 74 72 72 71 74 74 74 73 73 73
72 72 72 73 74 74 74 74 74 73 74 74 74 74 73 74 73 72 73 73 74 73 73 74 73 73 73 74 74 74 74 74 74 73 72 73 73 73 73 73 73 73 73
71 71 72 73 73 74 74 74 74 74 74 74 74 74 74 73 74 74 73 73 73 73 73 74 74 74 74 74 74 74 74 74 74 72 73 73 73 73 73 73 73 73 73
70 72 72 74 74 74 74 74 74 74 74 74 74 74 73 73 73 73 73 74 73 72 73 73 73 73 73 74 73 72 73 74 72 72 72 73 73 74 73 73 72 72 73
71 72 72 73 73 74 74 74 74 74 74 74 73 73 73 73 74 74 74 74 72 72 72 72 72 73 73 73 73 72 72 72 71 71 72 72 73 72 72 72 72 72 73
73 72 72 73 72 74 74 74 74 74 74 74 74 74 74 74 74 73 72 72 71 71 71 71 72 72 73 73 72 72 71 72 70 70 70 71 73 71 71 71 71 71 70
72 72 72 72 72 73 73 74 74 74 74 74 74 74 74 74 74 74 74 73 71 70 70 70 71 72 72 73 73 72 71 71 68 69 70 71 72 70 70 70 70 70 70
71 71 71 72 72 72 73 74 74 74 74 73 73 75 73 73 73 73 73 73 73 72 71 71 71 72 73 72 72 71 72 67 68 69 70 72 71 69 70 70 70 70 70
69 70 71 71 72 72 74 72 73 74 73 73 73 72 72 71 72 73 74 73 72 70 70 71 71 73 70 68 68 71 68 67 67 68 69 71 69 69 69 69 69 70 70
69 70 70 70 71 72 72 72 72 72 73 73 72 72 72 72 69 68 68 67 66 68 67 67 67 68 69 70 71 69 70 65 66 67 68 71 70 69 69 69 69 70 71
68 70 70 70 71 71 72 72 71 71 71 71 72 71 71 70 68 66 63 64 66 69 69 70 70 69 68 69 69 70 65 67 66 68 70 71 71 71 70 69 70 70 71
68 68 69 70 70 71 72 71 71 71 70 70 71 72 71 71 69 66 66 68 69 70 70 70 69 68 67 67 66 69 65 66 67 68 71 73 73 72 71 70 70 71 71
67 67 68 69 69 70 71 71 71 69 68 70 71 72 70 70 69 67 67 69 70 71 70 70 70 69 67 67 65 65 67 65 66 68 69 69 73 72 72 71 71 72 72
65 66 67 67 68 70 70 70 71 70 66 70 71 71 71 68 69 68 68 70 71 69 72 71 70 70 69 68 66 65 64 64 65 65 66 67 68 71 72 72 73 74 73
65 66 67 66 67 69 69 70 70 70 69 70 69 71 71 70 69 69 70 70 70 68 72 72 71 69 69 68 66 66 65 64 63 63 64 66 67 65 68 71 74 75 74
66 66 67 67 68 68 69 69 69 70 70 69 68 71 69 69 69 70 72 71 72 72 72 71 72 69 68 67 66 66 67 67 64 60 63 64 63 65 66 67 70 72 73
66 66 66 68 68 69 70 70 70 70 70 69 69 71 70 70 71 72 71 70 72 72 72 71 71 71 68 68 64 65 66 67 68 69 68 66 65 66 66 68 69 69 72
65 65 66 68 69 68 68 68 68 68 69 70 71 72 72 71 72 72 71 68 72 71 70 72 72 70 70 69 68 66 66 67 68 70 68 68 69 69 68 69 70 72 71
64 65 67 68 68 68 68 68 69 69 70 70 72 72 72 72 72 71 70 70 71 69 70 72 72 70 70 70 69 64 63 65 67 68 70 68 68 69 69 70 72 72 74
64 64 66 68 68 69 69 69 70 70 70 70 71 71 72 72 72 72 71 71 70 68 69 72 73 71 70 69 69 68 66 63 64 68 68 69 69 70 70 72 72 73 74
64 65 66 68 67 69 70 69 69 68 67 69 70 71 71 70 72 71 71 70 68 66 70 72 73 72 71 69 69 66 68 69 64 63 67 67 68 67 69 71 71 72 72
64 66 66 68 68 69 69 69 68 68 68 70 70 70 70 70 71 72 71 71 69 71 71 72 72 73 72 70 69 69 67 67 67 67 63 65 65 67 70 71 70 71 71
65 66 66 68 68 69 69 68 68 68 68 69 69 69 70 70 71 72 71 70 71 71 70 71 73 72 72 71 68 68 68 68 67 67 66 65 64 68 69 70 71 71 72

GFSSE_sfc_dewp_117.txt.gz
Dewpoint
64 66 70 71 71 71 72 74 75 74 75 75 75 74 74 74 74 74 74 74 74 74 74 74 74 75 75 75 74 73 74 75 74 74 73 73 74 74 74 73 73 68 73
65 68 70 70 71 72 74 74 75 74 73 73 74 75 74 74 74 74 74 74 74 74 74 75 74 75 75 74 74 73 73 74 74 74 74 74 74 73 73 73 73 72 73
65 69 69 70 70 73 74 74 75 74 73 73 74 74 74 74 74 74 73 74 74 74 74 73 74 74 74 74 74 74 74 74 74 74 73 69 68 71 71 71 71 71 71
65 69 68 72 71 71 74 74 74 74 74 74 74 74 74 74 73 73 74 74 74 74 73 73 73 73 74 74 75 75 75 75 74 73 70 69 69 73 74 74 73 74 73
68 67 69 73 73 73 74 74 73 74 73 75 74 74 74 73 72 72 73 74 74 74 73 73 73 73 74 74 74 74 74 74 73 71 70 70 69 73 74 73 73 73 73
68 67 71 74 74 74 74 74 73 74 74 74 74 73 73 74 74 74 74 73 73 74 74 74 73 74 74 74 74 74 74 74 72 70 70 72 71 74 73 73 73 73 73
67 68 67 74 73 74 74 74 74 74 74 74 74 74 73 74 73 73 74 73 73 74 74 73 73 74 74 73 73 73 74 73 71 70 71 71 72 74 73 72 73 73 71
65 69 70 73 74 74 74 74 74 74 74 74 74 73 74 74 74 73 73 72 73 73 73 73 74 74 74 73 72 72 73 71 70 71 70 69 73 73 73 73 73 73 73
68 68 70 70 72 73 74 74 74 74 74 74 74 74 74 73 73 72 72 71 72 72 72 72 73 73 73 73 72 71 72 71 69 70 68 67 73 71 71 71 71 70 70
70 69 71 70 71 71 72 74 74 74 74 74 74 74 73 74 74 73 74 73 71 71 71 71 72 72 73 73 72 71 71 69 62 67 66 67 71 70 70 70 70 71 71
69 69 70 70 72 75 74 74 74 74 74 74 74 75 74 71 71 70 73 73 72 71 71 71 71 72 72 72 72 72 71 66 61 63 64 71 69 69 70 70 70 70 70
67 69 69 71 71 73 72 74 75 73 74 74 74 74 73 72 73 72 72 72 71 70 71 71 71 71 70 68 69 71 68 68 64 62 64 70 69 69 69 69 70 70 70
67 68 70 72 73 73 73 72 72 72 72 73 74 73 73 72 69 68 67 67 68 68 67 67 68 68 69 70 71 70 69 68 64 62 65 70 70 69 69 69 69 70 71
67 68 70 71 73 74 71 73 71 70 70 70 72 73 73 68 68 68 64 66 69 69 70 71 69 70 69 69 68 70 66 65 62 62 65 70 71 71 70 69 69 70 71
65 68 69 71 73 73 73 72 72 70 68 69 72 73 73 71 70 67 69 70 71 71 71 71 70 69 70 67 66 69 66 65 64 62 65 71 72 72 71 70 70 71 72
65 67 69 70 72 73 72 73 72 70 69 70 71 73 73 72 71 69 68 70 71 71 71 71 71 70 70 65 66 67 67 65 65 65 64 66 73 73 71 71 72 73 73
65 67 68 69 70 72 72 73 72 70 69 70 72 73 72 71 72 72 70 71 70 69 73 73 72 72 69 64 67 65 65 65 63 64 64 64 65 69 71 72 73 73 74
65 68 69 66 68 70 71 72 71 70 69 70 72 72 73 71 72 72 71 70 70 72 73 73 71 69 68 66 66 65 65 66 66 65 64 64 66 63 67 68 71 73 73
66 68 68 69 68 70 72 71 71 72 69 71 70 72 73 72 71 72 72 71 74 74 74 72 73 71 67 66 65 66 67 68 67 62 66 67 66 65 65 70 71 72 72
67 68 69 68 70 71 71 72 71 71 71 70 70 72 71 70 72 74 72 72 74 73 73 71 73 72 69 68 63 65 67 68 68 69 68 67 69 68 68 70 69 69 72
66 67 69 69 71 71 70 70 69 74 70 70 70 73 73 73 74 75 72 70 73 72 74 75 72 73 70 71 68 67 68 68 68 69 68 68 68 68 69 70 71 70 71
66 68 69 70 72 71 70 71 70 71 70 70 72 74 74 73 74 73 73 71 74 71 75 75 74 70 70 71 68 66 62 63 66 66 69 68 68 67 67 70 71 73 74
66 67 69 71 72 72 72 71 72 72 75 71 72 72 73 73 74 74 73 73 73 71 71 75 74 73 69 70 72 68 63 61 65 67 68 69 70 69 70 71 71 73 74
65 67 69 71 72 72 72 71 73 69 68 73 77 75 72 73 74 73 73 72 73 68 73 74 73 73 73 69 69 68 71 70 64 62 66 68 68 67 70 70 69 70 72
65 66 68 71 72 72 72 72 69 74 69 72 72 74 73 73 73 73 73 73 71 69 74 75 75 75 72 69 69 69 70 67 69 65 61 64 65 65 67 69 69 69 70
64 65 66 69 71 72 72 72 72 73 73 70 73 70 72 71 70 74 74 73 73 73 73 74 75 74 74 72 70 70 68 66 65 65 64 66 64 66 65 65 67 68 70

GFSSE_sfc_dewp_123.txt.gz
Dewpoint
66 66 73 71 71 70 71 72 71 73 73 73 74 75 74 74 75 75 74 74 74 75 75 75 75 75 74 74 75 74 74 74 74 74 74 74 74 73 73 72 75 70 75
63 67 73 72 72 72 71 71 73 73 74 74 74 74 74 74 74 74 75 75 75 75 75 75 75 75 75 74 74 74 75 75 74 74 74 74 74 74 74 74 74 71 74
64 65 70 74 72 72 72 72 73 74 74 74 74 74 74 74 75 75 75 74 74 74 75 75 75 75 74 74 74 74 74 74 74 74 74 64 68 71 72 73 74 74 73
62 63 65 74 73 72 73 73 74 74 74 74 74 74 74 74 75 74 73 74 74 74 74 75 75 75 75 75 75 74 74 73 73 74 68 65 67 74 73 72 72 72 72
62 62 70 73 74 74 74 74 74 74 74 74 74 72 73 74 75 74 73 73 73 74 74 74 74 74 74 74 74 74 73 72 72 71 69 70 67 72 73 73 74 73 73
62 65 71 74 75 74 74 74 74 74 74 74 74 75 74 74 75 74 74 74 74 73 75 75 74 74 73 73 73 73 73 73 74 68 68 70 71 73 73 73 73 74 73
61 63 67 74 75 74 74 74 74 74 74 75 74 74 73 74 73 74 74 74 74 74 75 74 73 72 73 73 73 72 73 73 69 71 68 69 71 73 74 73 72 71 71
57 62 66 73 74 74 74 73 74 74 73 74 74 74 73 74 74 73 74 74 73 74 75 75 74 73 72 72 73 72 73 73 64 66 66 68 73 73 73 73 73 72 72
57 61 63 66 73 74 74 74 74 73 74 73 74 74 74 74 73 73 74 73 74 74 74 74 74 73 73 71 70 68 69 71 63 63 63 65 72 71 70 70 70 70 69
61 62 66 63 65 68 69 73 74 74 74 74 73 73 74 72 72 72 73 73 73 73 73 74 74 73 73 72 71 70 68 69 60 61 61 67 71 70 70 70 70 70 70
61 64 63 67 69 73 70 71 73 74 74 74 73 73 73 65 67 70 73 72 72 71 72 72 72 73 74 73 73 73 73 60 57 59 60 72 70 69 69 69 69 69 69
58 62 67 65 64 67 65 71 71 70 70 69 66 68 64 69 67 67 72 73 72 73 73 73 72 72 73 69 69 73 66 58 59 60 62 71 70 69 68 68 69 69 70
56 62 62 64 70 67 68 68 67 64 64 66 68 67 67 64 66 63 67 68 67 71 67 70 70 68 65 63 61 58 61 58 58 59 66 70 69 68 68 68 69 70 71
58 60 61 64 68 70 66 63 67 66 62 63 65 68 68 63 65 65 64 66 67 62 66 66 63 66 65 64 61 59 58 56 58 59 66 70 70 70 71 70 70 70 71
58 61 61 68 73 74 69 70 66 64 63 63 66 67 64 63 67 66 67 65 70 62 63 64 64 65 65 64 62 60 59 59 60 60 63 71 71 71 72 71 71 72 73
59 61 62 67 73 68 71 71 66 65 66 66 69 67 70 66 68 66 66 64 64 64 63 64 67 66 62 62 62 60 59 60 62 62 62 66 72 72 72 72 72 73 73
60 62 64 66 68 69 69 68 65 62 61 63 69 70 69 68 71 70 66 71 64 68 69 67 67 65 61 59 64 62 61 62 63 64 62 63 67 74 73 73 73 73 74
61 64 65 63 66 68 70 69 65 67 64 70 70 67 70 71 71 73 66 66 67 69 64 63 63 62 61 59 60 61 61 62 65 65 63 64 64 64 72 75 75 75 73
62 64 65 66 69 71 71 70 72 68 70 68 71 68 70 70 71 71 69 68 72 64 64 67 62 63 62 59 59 60 61 61 64 61 65 66 65 63 64 73 75 74 73
63 65 65 65 70 71 68 74 72 67 68 66 70 72 70 69 71 72 67 70 73 64 70 73 74 66 64 61 56 58 60 60 62 62 63 63 63 65 65 68 70 73 75
62 64 66 67 71 70 67 65 68 65 71 70 69 71 71 70 72 73 68 70 74 71 73 70 69 71 66 65 62 59 61 61 61 61 61 60 63 62 63 64 69 70 70
61 65 67 68 71 72 67 75 73 71 72 69 70 70 70 70 72 71 74 69 74 68 74 72 73 71 63 65 68 59 58 57 57 57 61 60 61 61 61 64 67 70 72
61 64 67 70 72 72 74 69 72 75 71 66 67 67 69 70 71 72 72 73 72 73 70 71 73 73 71 65 71 66 61 61 60 57 61 61 64 62 62 64 66 69 71
61 63 67 70 72 71 73 73 72 68 65 65 67 69 68 70 70 70 71 72 74 71 74 70 68 74 73 70 64 62 70 68 62 67 65 69 65 63 65 65 64 66 69
61 63 65 70 73 73 73 76 69 70 70 69 71 73 72 72 71 69 71 72 73 69 72 74 73 74 71 67 64 70 68 63 66 61 60 67 69 70 63 63 62 63 66
60 63 64 70 73 73 73 71 74 74 71 70 69 70 68 67 68 71 70 73 73 73 72 72 74 74 74 73 70 68 62 63 63 63 58 61 65 62 69 63 64 65 66

GFSSE_sfc_dewp_126.txt.gz
Dewpoint
66 66 73 71 71 71 72 71 70 72 72 73 74 74 74 75 74 75 75 75 75 75 75 75 75 75 75 75 75 75 74 75 75 74 74 74 75 75 75 74 75 71 75
63 66 74 72 71 71 71 71 72 74 74 74 74 74 74 75 75 75 75 75 75 75 75 75 75 75 75 74 74 75 74 75 76 74 74 75 74 74 74 74 75 73 75
63 67 72 74 72 72 72 71 73 74 74 74 74 74 75 75 75 74 75 75 74 75 75 75 75 75 75 74 75 75 75 75 75 74 75 67 69 72 74 75 74 73 73
63 66 70 74 73 73 73 73 74 74 74 74 74 74 75 75 74 74 74 75 75 75 75 75 75 75 75 75 74 74 73 74 73 72 69 67 69 73 73 72 72 72 72
61 65 71 75 74 73 73 73 74 74 74 74 74 74 74 74 74 74 74 74 74 74 75 75 75 75 75 74 73 74 73 73 72 70 69 69 69 72 73 74 74 73 74
70 67 74 75 74 73 74 74 74 74 74 75 75 73 74 74 74 74 74 74 75 75 75 75 74 74 74 73 73 73 73 73 73 70 70 73 72 73 73 74 74 74 73
70 68 71 76 75 74 74 74 74 74 74 74 75 74 74 75 74 74 74 74 74 74 73 72 73 74 73 73 72 72 73 74 71 70 70 71 72 75 74 72 71 72 72
69 65 70 75 75 74 74 74 74 74 74 74 75 74 74 75 75 74 74 74 74 75 75 73 72 72 72 71 71 72 72 73 69 68 70 71 74 74 74 73 73 72 72
63 63 68 70 73 74 74 74 73 74 74 74 74 75 74 74 74 74 74 74 74 74 74 74 73 72 71 69 68 68 70 72 68 67 66 69 73 71 71 70 70 70 69
67 61 65 68 69 70 71 74 74 74 74 74 75 74 74 73 73 74 75 75 73 73 74 74 74 73 73 72 71 70 70 71 63 64 65 70 73 70 70 70 70 70 70
68 64 62 65 70 72 72 73 74 75 75 74 74 74 75 69 71 71 74 73 73 73 73 74 74 74 73 73 73 73 72 68 60 61 66 73 73 70 70 69 69 69 70
65 69 66 70 70 69 66 73 75 74 71 71 72 73 74 71 72 70 72 73 72 73 73 74 74 74 74 70 71 74 71 64 62 63 68 73 72 69 69 69 69 69 70
65 62 68 67 71 69 70 73 73 73 70 70 73 70 71 68 68 68 71 71 72 73 70 72 71 71 70 71 70 68 64 63 61 63 70 73 72 70 69 68 69 70 71
63 64 64 69 68 69 70 72 70 68 66 67 72 73 74 70 72 70 70 71 72 71 71 71 70 70 69 69 64 62 61 61 62 64 70 73 73 71 70 70 70 71 72
61 62 65 70 68 70 72 70 68 68 64 66 70 72 71 69 71 72 72 71 72 67 71 71 72 70 70 67 66 64 62 63 62 64 67 73 73 72 72 72 72 72 73
61 63 67 68 73 72 71 75 71 68 67 69 71 72 73 71 75 72 73 72 68 72 69 72 74 74 70 66 66 64 65 65 67 66 66 70 74 74 74 73 73 73 74
61 65 69 68 70 73 74 73 69 69 68 70 71 75 73 73 75 75 73 73 73 74 73 72 72 72 68 66 68 67 66 66 66 68 66 66 70 75 75 75 75 75 75
62 66 69 64 69 71 72 74 74 64 70 71 73 72 73 75 75 76 73 71 72 75 74 72 72 71 68 67 68 68 68 67 68 69 69 67 68 66 74 76 76 76 76
64 67 67 68 69 73 74 74 71 72 70 71 71 72 75 74 74 76 72 74 76 74 71 73 71 70 68 67 64 67 68 68 70 63 68 68 68 68 69 73 75 76 76
65 67 69 69 72 70 74 76 70 71 71 71 71 74 75 75 74 77 73 75 77 74 71 71 77 71 72 69 59 61 65 68 68 69 66 66 69 68 68 70 71 73 75
64 66 69 69 72 71 72 71 70 72 71 70 69 76 75 74 76 77 77 76 70 67 72 71 74 73 72 71 71 68 67 66 66 67 66 66 66 65 64 70 73 75 74
64 67 70 72 73 71 72 75 73 71 71 71 73 75 74 75 76 76 75 74 71 67 69 70 69 72 72 71 71 70 66 66 63 65 64 63 64 66 67 67 73 73 75
64 67 69 73 73 74 75 72 73 75 73 70 73 71 73 73 74 74 76 76 72 72 75 69 66 71 68 69 72 71 66 63 62 64 66 66 66 67 68 71 70 70 75
64 66 70 73 73 74 75 75 73 71 69 70 74 75 73 73 74 73 76 76 77 76 73 74 73 66 66 68 72 68 69 64 59 59 66 66 67 69 66 69 69 73 73
63 65 69 72 74 74 75 76 73 74 74 72 69 76 77 77 76 73 75 76 76 76 76 76 76 76 75 74 71 65 64 68 66 68 64 64 68 68 70 69 68 71 71
62 63 68 72 73 75 74 74 75 74 74 69 73 71 73 73 73 75 75 77 78 77 77 75 77 77 77 77 76 75 72 69 66 66 67 63 65 69 69 70 69 68 73